     2.11           OBSERVATION DATA    G (GPS)             RINEX VERSION / TYPE
teqc 2010Oct21 OPUS Account 20111025 20:18:18UTC            PGM / RUN BY / DATE
50R C                                                       MARKER NAME
1006                                                        MARKER NUMBER
CSMIDDLETON NGS                                             OBSERVER / AGENCY
4820152812 TRIMBLE R7 2.32                                  REC # / TYPE / VERS
60244996 TRM41249.00 NONE                                   ANT # / TYPE
  -739203.0401 -5487374.5196  3155559.0637                  APPROX POSITION XYZ
        2.0030        0.0000        0.0000                  ANTENNA: DELTA H/E/N
     1     1                                                WAVELENGTH FACT L1/2
     5    L1    L2    C1    P1    P2                        # / TYPES OF OBSERV
    15                                                      LEAP SECONDS
  2011     7    29     0     0   30.0000000     GPS         TIME OF FIRST OBS
                                                            END OF HEADER
 11  7 29  0  0 30.0000000  0  8G09G04G17G02G28G20G10G27
  -7888934.29757  -5878722.75855  22241830.0394                   22241827.2624
 -21391553.74258 -15640214.16456  19986009.6254                   19986006.8244
      5728.11758     28231.50056  21529526.7424                   21529523.5704
 -10766066.18058  -8336636.42255  22298857.9774                   22298854.2194
  11583039.43058   9023211.39155  21978573.8204                   21978570.4964
   1114395.96556   1024603.27053  24377255.8284                   24377253.7234
  -7206052.54757  -5587420.83254  23483410.5234                   23483410.1994
 -10161983.38757  -8517315.33255  22500250.6414                   22500248.1684
 11  7 29  0  1  0.0000000  0  8G09G04G17G02G28G20G10G27
  -7880184.23447  -5871904.52345  22243494.1954                   22243492.0394
 -21369339.60948 -15622904.43746  19990237.1724                   19990234.1844
     69011.72748     77543.39846  21541569.4614                   21541565.6454
 -10811470.02748  -8372015.97745  22290218.3834                   22290214.0354
  11667830.95747   9089282.68845  21994709.1564                   21994705.7464
   1185165.95746   1079748.72743  24390722.8054                   24390720.7734
  -7267515.82046  -5635314.15244  23471714.9614                   23471714.3244
 -10137231.86748  -8498028.44545  22504960.4694                   22504958.1884
 11  7 29  0  1 30.0000000  0  8G09G04G17G02G28G20G10G27
  -7870739.67247  -5864545.12145  22245291.4774                   22245288.9654
 -21346499.25448 -15605106.75446  19994583.6024                   19994580.6804
    132441.76248    126969.38746  21553639.7894                   21553636.4884
 -10856515.05548  -8407115.93445  22281646.1334                   22281642.2424
  11753052.15248   9155688.78545  22010926.2424                   22010922.9304
   1256479.75446   1135317.93843  24404293.3594                   24404291.2544
  -7328850.03946  -5683106.91444  23460043.1024                   23460042.7234
 -10111933.10247  -8478315.12945  22509774.7814                   22509772.5354
 11  7 29  0  2  0.0000000  0  8G09G04G17G02G28G20G10G27
  -7860610.05147  -5856651.91045  22247219.3984                   22247216.8594
 -21323043.30948 -15586829.37546  19999047.0634                   19999043.9304
    196007.78148    176501.34046  21565735.7194                   21565732.0434
 -10901209.67248  -8441942.84045  22273141.4454                   22273137.0784
  11838693.39847   9222422.19145  22027223.2424                   22027219.8674
   1328326.43446   1191302.33643  24417965.0474                   24417963.4804
  -7390061.77047  -5730804.24644  23448394.3754                   23448394.6374
 -10086096.97347  -8458183.09045  22514691.1174                   22514688.9104
 11  7 29  0  2 30.0000000  0  8G09G04G17G02G28G20G10G27
  -7849793.82047  -5848223.67645  22249277.6174                   22249275.3594
 -21298970.96148 -15568071.68446  20003627.7034                   20003624.7074
    259710.96148    226140.16446  21577858.1884                   21577855.0904
 -10945551.53948  -8476494.88345  22264703.0234                   22264698.9614
  11924755.28148   9289483.36745  22043599.8204                   22043597.2194
   1400706.58646   1247702.44143  24431738.9614                   24431736.9024
  -7451147.03547  -5778403.00844  23436770.4844                   23436770.1564
 -10059722.71147  -8437631.73045  22519709.6024                   22519707.6294
 11  7 29  0  3  0.0000000  0  8G09G04G17G02G28G20G10G27
  -7838292.75247  -5839261.80145  22251466.0164                   22251463.6564
 -21274284.90248 -15548835.78346  20008325.5164                   20008322.7344
    323549.35948    275884.35846  21590006.5234                   21590002.9454
 -10989541.19348  -8510772.48045  22256331.9534                   22256328.0434
  12011236.16547   9356871.03945  22060057.1564                   22060053.7704
   1473617.32746   1304516.00443  24445613.4384                   24445610.8594
  -7512104.43947  -5825902.14944  23425171.0164                   23425170.4774
 -10032812.41047  -8416662.68545  22524831.1334                   22524828.9414
 11  7 29  0  3 30.0000000  0  8G09G04G17G02G28G20G10G27
  -7826103.59847  -5829763.75045  22253785.3984                   22253783.4414
 -21248982.62948 -15529119.70746  20013140.3284                   20013137.3914
    387525.78148    325736.10946  21602180.5944                   21602176.8674
 -11033174.53148  -8544772.43045  22248029.0004                   22248024.6724
  12098139.07847   9424587.55945  22076594.3134                   22076590.8594
   1547060.88346   1361744.73843  24459588.8054                   24459587.1174
  -7572927.97746  -5873296.97344  23413596.3134                   23413595.1214
 -10005363.59047  -8395274.00445  22530054.1484                   22530052.1764
 11  7 29  0  4  0.0000000  0  8G09G04G17G02G28G20G10G27
  -7813237.23447  -5819738.01645  22256234.2504                   22256232.4304
 -21223076.22348 -15508932.88746  20018070.2424                   20018067.0984
    451627.73448    375685.66846  21614379.0634                   21614375.5044
 -11076461.75048  -8578502.67645  22239791.6094                   22239787.4184
  12185452.17347   9492623.70445  22093209.6484                   22093206.1294
   1621024.89946   1419379.00343  24473664.1174                   24473661.8054
  -7633625.74246  -5920593.79344  23402045.6564                   23402045.0554
  -9977387.67647  -8373474.60945  22535377.8444                   22535375.6374
 11  7 29  0  4 30.0000000  0  8G09G04G17G02G28G20G10G27
  -7799685.07847  -5809177.88345  22258813.1484                   22258810.4844
 -21196557.70348 -15488269.09046  20023116.4614                   20023113.1844
    515864.00848    425739.89146  21626602.4924                   21626599.3164
 -11119393.04748  -8611955.58245  22231622.0634                   22231617.8524
  12273184.07047   9560986.19545  22109903.9614                   22109901.0784
   1695517.05146   1477424.81343  24487839.6644                   24487837.8324
  -7694186.03147  -5967783.48444  23390521.1804                   23390520.6844
  -9948876.53547  -8351258.15645  22540803.4614                   22540800.9064
 11  7 29  0  5  0.0000000  0  8G09G04G17G02G28G20G10G27
  -7785448.99647  -5798084.82445  22261521.9304                   22261519.7894
 -21169429.93448 -15467130.55946  20028278.5474                   20028275.4064
    580231.79348    475896.59446  21638851.4384                   21638847.9064
 -11161969.41048  -8645131.91445  22223520.1564                   22223515.7504
  12361332.07847   9629672.92645  22126678.2974                   22126675.1954
   1770533.89546   1535879.48443  24502114.3444                   24502112.9804
  -7754607.87146  -6014865.30744  23379023.4384                   23379022.4224
  -9919832.89148  -8328626.75845  22546329.8754                   22546328.2974
 11  7 29  0  5 30.0000000  0  8G09G04G17G02G28G20G10G27
  -9345947.77747  -7014057.88745  21964569.1024                   21964566.4844
 -22717112.10248 -16673116.64846  19733764.4924                   19733761.4104
   -930686.04348   -701441.98846  21351333.4774                   21351329.7384
 -12779610.54748  -9905631.45746  21915693.0944                   21915689.0704
  10874479.61748   8471086.56645  21843740.0474                   21843736.6374
    270657.76647    367144.81643  24216698.1414                   24216695.5274
  -9390309.25846  -7289437.66844  23067759.5554                   23067758.3054
 -11465675.42647  -9533179.39845  22252165.9454                   22252164.1844
 11  7 29  0  6  0.0000000  0  8G09G04G17G02G28G20G10G27
  -9330345.67247  -7001900.39545  21967538.0784                   21967535.4774
 -22688770.16048 -16651032.00046  19739157.7034                   19739154.6954
   -866057.58648   -651082.15646  21363631.4304                   21363628.1684
 -12821475.86348  -9938253.72745  21907726.4614                   21907721.9494
  10963457.16847   8540419.68445  21860671.3284                   21860668.1684
    346719.00046    426413.30143  24231171.8594                   24231170.0004
  -9450446.64847  -7336297.81644  23056315.7734                   23056314.6524
 -11435569.85247  -9509720.52745  22257895.0554                   22257892.9734
 11  7 29  0  6 30.0000000  0  8G09G04G17G02G28G20G10G27
  -9314072.45747  -6989219.96945  21970634.4224                   21970632.4064
 -22659834.33248 -16628484.59446  19744663.9064                   19744661.2504
   -801311.48848   -600630.66846  21375952.3834                   21375949.0004
 -12862996.30148  -9970607.27045  21899825.2424                   21899820.7154
  11052837.16847   8610066.42645  21877679.7194                   21877676.9344
    423288.67246    486077.94943  24245742.8834                   24245740.7114
  -9510449.35547  -7383053.05544  23044897.5164                   23044896.3874
 -11404946.32447  -9485858.05545  22263722.8524                   22263720.2274
 11  7 29  0  7  0.0000000  0  8G09G04G17G02G28G20G10G27
  -9297111.09047  -6976003.30145  21973862.2344                   21973859.9414
 -22630288.68748 -16605461.99646  19750286.3364                   19750283.2504
   -736431.03148   -550074.48046  21388298.9144                   21388295.3874
 -12904153.57448 -10002677.82445  21891992.9144                   21891988.9614
  11142635.93447   8680039.44945  21894768.1414                   21894765.2034
    500382.78946    546151.25443  24260413.0864                   24260411.0234
  -9570296.86347  -7429687.32844  23033509.1094                   23033507.7344
 -11373788.34847  -9461579.12545  22269651.6724                   22269649.1644
 11  7 29  0  7 30.0000000  0  8G09G04G17G02G28G20G10G27
  -9279474.78947  -6962260.73845  21977218.1174                   21977215.7814
 -22600146.87948 -16581974.85946  19756022.3674                   19756019.2274
   -671429.25448   -499423.75846  21400668.4534                   21400664.7384
 -12944959.71948 -10034474.77046  21884228.1484                   21884223.8054
  11232840.50847   8750328.69945  21911933.2814                   21911930.3554
    577987.23846    606622.24243  24275181.2974                   24275179.0744
  -9629999.28547  -7476208.58244  23022147.2344                   23022146.3444
 -11342109.20747  -9436894.09845  22275680.4614                   22275678.0744
 11  7 29  0  8  0.0000000  0  8G09G04G17G02G28G20G10G27
  -9261166.25447  -6947994.34045  21980702.5704                   21980700.3054
 -22569412.33648 -16558025.86346  19761870.6954                   19761868.0944
   -606309.23847   -448680.89146  21413060.3364                   21413057.0554
 -12985416.35248 -10065999.37546  21876529.4924                   21876525.1484
  11323447.67647   8820931.64145  21929175.8674                   21929172.6484
    656098.30546    667487.98843  24290044.5554                   24290043.3134
  -9689556.15247  -7522616.36944  23010813.8204                   23010813.1174
 -11309912.16447  -9411805.52045  22281806.5234                   22281804.7814
 11  7 29  0  8 30.0000000  0  8G09G04G17G02G28G20G10G27
  -9242194.17647  -6933210.90245  21984312.5554                   21984310.5864
 -22538095.04748 -16533622.76246  19767830.4224                   19767827.1884
   -541080.01648   -397852.93446  21425472.6804                   21425469.6414
 -13025531.22348 -10097257.66846  21868895.8754                   21868891.3984
  11414448.23847   8891841.14545  21946492.1094                   21946489.1454
    734705.75046    728740.51643  24305002.7894                   24305001.3484
  -9748972.69147  -7568914.84044  22999507.0474                   22999506.6844
 -11277206.62947  -9386320.70745  22288030.6094                   22288028.5704
 11  7 29  0  9  0.0000000  0  8G09G04G17G02G28G20G10G27
  -9222561.80947  -6917912.96545  21988048.3834                   21988046.0904
 -22506198.92248 -16508768.62946  19773899.7584                   19773896.5664
   -475745.17647   -346942.68446  21437905.7344                   21437902.5554
 -13065306.30948 -10128251.20745  21861326.5784                   21861322.5354
  11505838.84847   8963054.56645  21963883.4844                   21963880.3324
    813805.38746    790376.58243  24320055.1644                   24320053.6214
  -9808249.08246  -7615104.10244  22988227.2974                   22988226.5634
 -11243996.26647  -9360442.51645  22294350.5784                   22294348.2814
 11  7 29  0  9 30.0000000  0  9G12G09G04G17G02G28G20G10G27
  -1658709.05157  -1288811.94154  24546838.5164                   24546836.5474
  -9202257.89548  -6902091.71945  21991912.2504                   21991909.7854
 -22473713.26648 -16483455.12546  19780081.6884                   19780078.5314
   -410293.28148   -295941.21946  21450360.9384                   21450357.5124
 -13104729.41048 -10158970.44945  21853824.4924                   21853820.3284
  11597630.69947   9034580.64545  21981350.6954                   21981347.8404
    893407.86346    852404.50443  24335203.5474                   24335201.2814
  -9867370.52346  -7661172.64144  22976976.3204                   22976976.3914
 -11210270.19147  -9334162.47745  22300767.9844                   22300766.1134
 11  7 29  0 10  0.0000000  0  9G12G09G04G17G02G28G20G10G27
  -1723203.89147  -1339067.60244  24534565.3754                   24534563.4304
  -9181288.25848  -6885751.74245  21995902.7034                   21995900.3014
 -22440644.75448 -16457687.44146  19786374.4774                   19786371.7544
   -344730.17247   -244853.08646  21462837.0394                   21462833.5944
 -13143804.83648 -10189418.78546  21846388.5554                   21846384.7114
  11689817.92647   9106414.81645  21998893.8444                   21998890.5044
    973505.90246    914818.54342  24350444.3674                   24350443.5204
  -9926339.80947  -7707122.59844  22965755.5314                   22965754.1524
 -11176034.75447  -9307485.52745  22307283.1024                   22307280.8714
 11  7 29  0 10 30.0000000  0  9G12G09G04G17G02G28G20G10G27
  -1787703.50047  -1389326.95744  24522291.5234                   24522289.4574
  -9159661.23247  -6868899.52445  22000018.1644                   22000015.7194
 -22407002.63348 -16431472.79346  19792776.1644                   19792772.8794
   -279064.48447   -193685.03146  21475332.8364                   21475329.4494
 -13182540.04348 -10219602.00446  21839017.6564                   21839013.9454
  11782391.61347   9178550.11345  22016509.6024                   22016506.8954
   1054090.27046    977611.51243  24365780.0784                   24365778.8134
  -9985161.83247  -7752957.80944  22954561.6254                   22954560.7734
 -11141298.75047  -9280418.53345  22313892.7734                   22313890.9414
 11  7 29  0 11  0.0000000  0  9G12G09G04G17G02G28G20G10G27
  -1852211.79346  -1439593.09444  24510015.8054                   24510013.7814
  -9137382.62147  -6851539.57845  22004257.8134                   22004255.2424
 -22372793.31648 -16404816.16846  19799285.8134                   19799282.8364
   -213301.68447   -142441.31646  21487847.2114                   21487843.7974
 -13220939.26648 -10249523.43446  21831710.5634                   21831706.2774
  11875345.84447   9250981.94145  22034198.7344                   22034195.4344
   1135154.19946   1040778.18042  24381206.4064                   24381204.4534
 -10043838.70347  -7798679.93444  22943395.6174                   22943395.1414
 -11106068.30147  -9252966.26245  22320597.3524                   22320595.2234
 11  7 29  0 11 30.0000000  0  9G12G09G04G17G02G28G20G10G27
  -1916731.94546  -1489868.46543  24497737.7504                   24497735.8444
  -9114457.11747  -6833675.55545  22008620.0314                   22008618.0274
 -22338022.43748 -16377721.96946  19805902.8054                   19805899.6844
   -147447.03148    -91126.00446  21500379.3524                   21500375.5904
 -13259006.35248 -10279186.05146  21824466.5394                   21824462.4024
  11968675.59047   9323706.37545  22051958.8444                   22051955.5984
   1216691.55146   1104313.77742  24396722.2504                   24396720.6914
 -10102371.73847  -7844289.96544  22932257.2504                   22932256.4024
 -11070348.77347  -9225132.87945  22327393.9774                   22327392.0784
 11  7 29  0 12  0.0000000  0  9G12G09G04G17G02G28G20G10G27
  -1981253.93746  -1540145.23843  24485460.0634                   24485457.4384
  -9090876.75447  -6815301.25445  22013107.3444                   22013105.0704
 -22302682.73048 -16350184.52046  19812627.5394                   19812624.2194
    -81491.83647    -39732.36346  21512929.5554                   21512926.3134
 -13296731.90648 -10308582.53146  21817287.7974                   21817283.4144
  12062388.86747   9396729.66845  22069792.0394                   22069788.4614
   1298709.56646   1168223.87942  24412329.5944                   24412327.6414
 -10160749.36347  -7889778.90244  22921148.2664                   22921147.3874
 -11034132.59447  -9196912.50445  22334286.0704                   22334283.6024
 11  7 29  0 12 30.0000000  0  9G12G09G04G17G02G28G20G10G27
  -2045775.56646  -1590421.76243  24473181.0164                   24473179.0084
  -9066641.33647  -6796416.53145  22017719.0084                   22017716.6724
 -22266774.74648 -16322204.27046  19819461.0704                   19819457.5354
    -15435.96148     11739.72746  21525499.6954                   21525496.2034
 -13334114.44948 -10337711.73446  21810173.9304                   21810169.4494
  12156485.64847   9470051.79345  22087697.8284                   22087695.0594
   1381207.54346   1232508.10942  24428028.7034                   24428027.2304
 -10218968.15647  -7935144.09044  22910069.5084                   22910068.6954
 -10997419.98047  -9168305.29745  22341272.4144                   22341270.4844
 11  7 29  0 13  0.0000000  0  9G12G09G04G17G02G28G20G10G27
  -2110296.26646  -1640697.53942  24460902.8594                   24460901.8324
  -9041751.88347  -6777022.16045  22022455.8674                   22022452.9384
 -22230300.02348 -16293782.39846  19826401.6484                   19826398.5164
     50719.52047     63289.43846  21538088.6334                   21538085.3444
 -13371153.70748 -10366573.44146  21803125.7344                   21803121.5234
  12250964.91847   9543671.96945  22105676.1484                   22105673.3634
   1464183.38746   1297164.51242  24443818.8134                   24443817.6764
 -10277025.48847  -7980383.44544  22899021.7974                   22899020.4344
 -10960212.29347  -9139312.31245  22348352.6094                   22348350.4344
 11  7 29  0 13 30.0000000  0  9G12G09G04G17G02G28G20G10G27
  -2174808.19546  -1690966.53942  24448627.2974                   24448625.4574
  -9016202.75047  -6757113.76645  22027317.4064                   22027315.2154
 -22193253.91048 -16264915.29346  19833451.0944                   19833447.9024
    116980.50448    114921.35546  21550697.6954                   21550694.5044
 -13407842.93748 -10395162.39546  21796143.7504                   21796139.1954
  12345831.97747   9617594.31645  22123728.8364                   22123725.9184
   1547641.73846   1362196.94942  24459699.4844                   24459699.2154
 -10334912.14547  -8025489.84044  22888005.8754                   22888005.5234
 -10922504.38747  -9109929.55145  22355528.0634                   22355525.8594
 11  7 29  0 14  0.0000000  0  9G12G09G04G17G02G28G20G10G27
  -2239314.37146  -1741231.06643  24436352.3134                   24436349.8954
  -8989999.10247  -6736695.35945  22032304.1884                   22032301.6724
 -22155642.30948 -16235607.53546  19840608.5944                   19840605.2384
    183341.90648    166631.52346  21563326.1724                   21563322.9064
 -13444185.71948 -10423481.39146  21789227.8914                   21789223.5434
  12441081.85947   9691814.95745  22141854.8984                   22141851.2974
   1631576.41846   1427600.63342  24475672.2584                   24475671.6684
 -10392629.53547  -8070464.32444  22877022.2664                   22877021.7274
 -10884301.82047  -9080161.33645  22362797.8284                   22362795.4414
 11  7 29  0 14 30.0000000  0  9G12G09G04G17G02G28G20G10G27
  -2303806.83246  -1791484.86743  24424079.8674                   24424077.4774
  -8963134.78147  -6715762.12945  22037416.2664                   22037413.3484
 -22117459.62148 -16205854.78546  19847874.5314                   19847871.1414
    249810.50047    218425.21946  21575974.7734                   21575971.0164
 -13480174.92248 -10451524.87546  21782379.6414                   21782375.2894
  12536720.11747   9766338.23845  22160054.0394                   22160050.9304
   1715992.48046   1493379.42642  24491735.7034                   24491734.9884
 -10450167.95347  -8115299.32844  22866073.6174                   22866072.2274
 -10845598.73847  -9050003.11345  22370163.3204                   22370160.9574
 11  7 29  0 15  0.0000000  0  9G12G09G04G17G02G28G20G10G27
  -2368272.43447  -1841717.78943  24411812.3754                   24411809.7464
  -8935599.09847  -6694305.78145  22042656.1484                   22042653.8054
 -22078696.03948 -16175649.38746  19855250.6174                   19855247.7424
    316397.10247    270310.87146  21588645.5234                   21588642.3244
 -13515798.23448 -10479283.24646  21775600.2194                   21775596.1374
  12632757.87947   9841172.82045  22178329.5944                   22178326.2034
   1800899.97746   1559541.13742  24507893.0944                   24507891.7974
 -10507513.02347  -8159983.69144  22855160.8754                   22855159.8164
 -10806384.91047  -9019446.89845  22377625.2114                   22377622.6684
 11  7 29  0 15 30.0000000  0  9G12G09G04G17G02G28G20G10G27
  -2432705.18047  -1891925.08244  24399550.8594                   24399548.7274
  -8907388.01247  -6672323.13345  22048023.7664                   22048021.5944
 -22039348.00048 -16144988.57046  19862738.5554                   19862735.3714
    383106.46948    322292.17646  21601339.9384                   21601336.3524
 -13551050.07848 -10506752.16446  21768892.0944                   21768887.9494
  12729198.94547   9916321.64845  22196681.7034                   22196678.9144
   1886301.82446   1626088.03542  24524144.9694                   24524143.4804
 -10564656.77347  -8204511.18044  22844286.8054                   22844285.6604
 -10766656.45347  -8988489.69145  22385185.1414                   22385182.9104
 11  7 29  0 16  0.0000000  0  9G12G09G04G17G02G28G20G10G27
  -2497103.44147  -1942105.50444  24387295.8594                   24387294.0434
  -8878501.95747  -6649814.53145  22053521.3594                   22053518.9804
 -21999416.59048 -16113873.17246  19870337.0554                   19870334.1454
    449938.38748    374368.98446  21614057.7114                   21614054.4884
 -13585929.70748 -10533931.04346  21762254.6954                   21762250.2274
  12826042.73447   9991784.29345  22215110.7424                   22215107.0554
   1972196.95746   1693019.26243  24540490.2424                   24540488.1524
 -10621596.09047  -8248879.36344  22833451.5944                   22833450.2304
 -10726414.32847  -8957132.21145  22392843.0704                   22392840.8754
 11  7 29  0 16 30.0000000  0  9G12G09G04G17G02G28G20G10G27
  -2561459.39847  -1992252.97744  24375050.2274                   24375047.9304
  -8848935.68447  -6626775.89545  22059147.4304                   22059145.3794
 -21958897.27748 -16082299.68046  19878048.0554                   19878044.9534
    516897.64148    426545.01246  21626799.5634                   21626796.0944
 -13620430.56648 -10560814.78546  21755689.7114                   21755684.9614
  12923294.77747  10067565.05145  22233617.1094                   22233613.5434
   2058589.66846   1760338.26643  24556930.2584                   24556928.4694
 -10678321.93747  -8293081.22744  22822656.5554                   22822655.4414
 -10685653.59847  -8925370.60945  22400600.0704                   22400597.5634
 11  7 29  0 17  0.0000000  0  8G12G09G04G17G02G28G10G27
  -2625771.52347  -2042366.25844  24362811.7424                   24362809.3954
  -8818689.94547  -6603207.79745  22064903.1024                   22064900.5044
 -21917791.59048 -16050269.27346  19885869.9534                   19885867.2504
    583984.65648    478820.59846  21639565.8444                   21639562.5434
 -13654551.64148 -10587402.58646  21749196.6644                   21749192.1174
  13020954.16047  10143663.23045  22252201.0864                   22252197.8594
 -10734831.41047  -8337114.47744  22811903.8754                   22811902.1174
 -10644375.43747  -8893205.82845  22408454.8364                   22408452.5204
 11  7 29  0 17 30.0000000  0  8G12G09G04G17G02G28G10G27
  -2690032.44147  -2092439.65244  24350583.5554                   24350581.1884
  -8787759.32847  -6579106.01645  22070788.9304                   22070786.2234
 -21876094.68048 -16017778.16446  19893804.9304                   19893801.7114
    651205.67248    531200.59046  21652357.7194                   21652354.5864
 -13688286.05148 -10613689.09046  21742776.9534                   21742772.7894
  13119025.96947  10220082.77345  22270863.8364                   22270860.5164
 -10791114.44147  -8380971.28144  22801192.9924                   22801191.3164
 -10602574.64147  -8860633.78145  22416408.6254                   22416406.8754
 11  7 29  0 18  0.0000000  0  8G12G09G04G17G02G28G10G27
  -2754238.44147  -2142470.24644  24338365.2504                   24338362.9804
  -8756142.42648  -6554469.47745  22076804.8834                   22076803.1214
 -21833805.82448 -15984825.80146  19901852.0704                   19901849.0164
    718562.15648    583686.16046  21665175.0944                   21665171.8634
 -13721631.54748 -10639672.53946  21736431.7344                   21736427.1334
  13217511.76647  10296824.89845  22289604.7814                   22289601.7464
 -10847166.35547  -8424648.00044  22790525.9304                   22790524.6334
 -10560250.46148  -8827653.92645  22424462.3754                   22424460.7154
 11  7 29  0 18 30.0000000  0  8G12G09G04G17G02G28G10G27
  -2818374.81246  -2192446.57444  24326160.5084                   24326157.9384
  -8723827.34848  -6529288.90645  22082955.2274                   22082952.5984
 -21790913.78948 -15951403.43446  19910013.9534                   19910011.3404
    786066.52347    636286.94946  21678020.8284                   21678017.7074
 -13754574.26248 -10665342.14546  21730162.4534                   21730158.4144
  13316423.75047  10373899.11345  22308427.1174                   22308423.6954
 -10902971.25447  -8468132.22344  22779907.2734                   22779906.0944
 -10517390.98048  -8794256.94545  22432618.9614                   22432616.5744
 11  7 29  0 19  0.0000000  0  8G12G09G04G17G02G28G10G27
  -2882434.00046  -2242362.75443  24313969.8204                   24313967.9344
  -8690808.52747  -6503559.96145  22089238.3204                   22089235.7384
 -21747413.71548 -15917507.26646  19918291.7974                   19918288.8484
    853725.00448    689007.84046  21690895.7584                   21690892.1804
 -13787107.23048 -10690692.46146  21723971.5634                   21723967.1254
  13415766.98847  10451309.38745  22327331.5084                   22327328.6994
 -10958519.72347  -8511416.66044  22769336.5634                   22769335.1994
 -10473991.05147  -8760438.84445  22440877.8984                   22440875.4384
 11  7 29  0 19 30.0000000  0  8G12G09G04G17G02G28G10G27
  -2946416.05946  -2292218.83643  24301794.5634                   24301792.7504
  -8657088.68048  -6477284.77045  22095655.0554                   22095652.4064
 -21703308.59848 -15883139.63346  19926684.5004                   19926681.9574
    921535.73448    741847.36746  21703799.5004                   21703796.3134
 -13819231.87148 -10715724.60946  21717858.4144                   21717853.9494
  13515539.54347  10529054.19145  22346317.5474                   22346314.6684
 -11013810.10947  -8554499.97344  22758815.2814                   22758813.8594
 -10430053.55148  -8726201.85545  22449238.6254                   22449236.7774
 11  7 29  0 20  0.0000000  0  8G12G09G04G17G02G28G10G27
  -3010307.76646  -2342004.52343  24289636.3134                   24289634.2384
  -8622657.23447  -6450455.07045  22102207.0314                   22102204.6564
 -21658588.68748 -15848292.94546  19935194.5944                   19935191.6294
    989510.25448    794814.51646  21716735.1644                   21716731.4224
 -13850935.51248 -10740428.69946  21711825.5944                   21711821.0234
  13615751.94147  10607141.72345  22365387.1644                   22365384.2734
 -11068828.42247  -8597371.28144  22748345.5944                   22748343.8284
 -10385568.12947  -8691537.91845  22457704.1724                   22457701.8244
 11  7 29  0 20 30.0000000  0  8G12G09G04G17G02G28G10G27
  -3074108.60246  -2391719.39843  24277495.7034                   24277493.2384
  -8587516.32047  -6423072.55145  22108894.2894                   22108892.0234
 -21613256.46948 -15812969.13746  19943821.2584                   19943818.3324
   1057646.52347    847907.71546  21729700.7114                   21729697.4064
 -13882218.93748 -10764805.35946  21705872.4694                   21705868.1644
  13716402.05147  10685570.32845  22384540.6564                   22384537.6884
 -11123572.07047  -8640028.58244  22737927.7504                   22737926.4614
 -10340537.00848  -8656448.75845  22466273.3674                   22466271.2034
 11  7 29  0 21  0.0000000  0  8G12G09G04G17G02G28G10G27
  -3137817.68746  -2441362.78143  24265372.1254                   24265369.5864
  -8551667.46147  -6395138.38745  22115715.5554                   22115713.4924
 -21567314.08648 -15777169.87947  19952563.5634                   19952560.4064
   1125944.10347    901126.60146  21742697.5394                   21742694.0634
 -13913081.80548 -10788854.30546  21699999.9064                   21699994.9694
  13817488.64147  10764339.05945  22403776.6174                   22403773.7274
 -11178038.76247  -8682470.05944  22727563.0864                   22727561.9264
 -10294962.12548  -8620935.89145  22474945.8984                   22474943.8484
 11  7 29  0 21 30.0000000  0  8G12G09G04G17G02G28G10G27
  -3201432.41846  -2490932.67643  24253266.8674                   24253263.7304
  -8515111.02747  -6366652.86345  22122672.0704                   22122669.8444
 -21520762.64548 -15740896.02046  19961421.8054                   19961419.1684
   1194403.23848    954471.38346  21755724.8594                   21755721.7194
 -13943523.37548 -10812574.96146  21694206.8524                   21694202.4654
  13919011.01247  10843447.35245  22423095.9534                   22423092.9804
 -11232224.96147  -8724692.98044  22717252.0634                   22717250.3484
 -10248844.23848  -8584999.89545  22483722.0704                   22483719.8204
 11  7 29  0 22  0.0000000  0  8G12G09G04G17G02G28G10G27
  -3264950.20747  -2540427.00044  24241179.5004                   24241177.0594
  -8477846.19547  -6337615.34045  22129763.1724                   22129761.2464
 -21473602.16048 -15704147.59446  19970396.2584                   19970393.2274
   1263025.37148   1007943.17246  21768783.0704                   21768779.5434
 -13973541.43048 -10835965.60946  21688494.2584                   21688489.8094
  14020970.09447  10922895.95345  22442497.9924                   22442494.9344
 -11286125.79347  -8766693.53544  22706994.7504                   22706993.2194
 -10202182.83248  -8548640.37545  22492601.1024                   22492598.6294
 11  7 29  0 22 30.0000000  0  8G12G09G04G17G02G28G10G27
  -3328364.50447  -2589840.69543  24229112.4924                   24229109.7234
  -8439869.45347  -6308023.09045  22136989.8914                   22136987.7734
 -21425829.37548 -15666922.04746  19979487.2504                   19979484.2304
   1331815.09048   1061545.54346  21781873.5554                   21781869.8524
 -14003130.45748 -10859021.96146  21682863.8914                   21682859.2384
  14123369.54747  11002687.68845  22461983.7114                   22461981.0784
 -11339733.43447  -8808465.63744  22696793.2664                   22696792.1054
 -10154974.56247  -8511854.74245  22501584.9224                   22501582.3834
 11  7 29  0 23  0.0000000  0  8G12G09G04G17G02G28G10G27
  -3391675.74647  -2639174.09844  24217064.7194                   24217061.9774
  -8401184.50847  -6277878.99245  22144351.8204                   22144349.3954
 -21377448.36748 -15629222.55946  19988694.0314                   19988691.0044
   1400769.85947   1115276.53146  21794994.7424                   21794991.2814
 -14032292.56248 -10881745.64146  21677314.4384                   21677309.8554
  14226206.36747  11082820.23845  22481553.0864                   22481550.3364
 -11393047.12947  -8850008.68044  22686648.3674                   22686646.7894
 -10107223.17647  -8474645.89145  22510672.1414                   22510669.3244
 11  7 29  0 23 30.0000000  0  8G12G09G04G17G02G28G10G27
  -3454881.35947  -2688425.20344  24205036.5234                   24205034.1914
  -8361791.51247  -6247183.16845  22151848.3054                   22151845.7304
 -21328459.99648 -15591049.80146  19998016.3524                   19998013.2034
   1469890.32048   1169136.62946  21808148.4534                   21808144.7234
 -14061026.10248 -10904135.37946  21671846.6094                   21671841.7114
  14329480.27047  11163293.35945  22501205.7584                   22501202.4454
 -11446062.93447  -8891319.60544  22676559.4924                   22676558.0354
 -10058928.94547  -8437014.05545  22519862.0004                   22519859.4104
 11  7 29  0 24  0.0000000  0  8G12G09G04G17G02G28G10G27
  -3517983.29747  -2737595.48844  24193029.4694                   24193026.7034
  -8321694.88747  -6215939.05545  22159478.3134                   22159476.0704
 -21278869.09048 -15552407.53146  20007452.9304                   20007449.9534
   1539173.05048   1223123.15546  21821332.2734                   21821328.7934
 -14089334.09448 -10926193.50846  21666459.9144                   21666455.1094
  14433186.98947  11244103.75345  22520940.1954                   22520937.8834
 -11498781.04347  -8932398.57445  22666527.2734                   22666526.0634
 -10010096.82948  -8398963.08145  22529154.4614                   22529151.8634
 11  7 29  0 24 30.0000000  0  8G12G09G04G17G02G28G10G27
  -3580976.89147  -2786681.36344  24181041.8524                   24181039.0664
  -8280893.08247  -6184145.45745  22167242.3754                   22167240.0634
 -21228674.58648 -15513294.93446  20017004.6334                   20017001.5314
   1608620.25048   1277237.84446  21834547.3054                   21834544.3204
 -14117213.20748 -10947917.45746  21661154.4384                   21661149.7624
  14537328.49247  11325252.93444  22540757.8594                   22540754.1954
 -11551195.57847  -8973240.98044  22656553.2424                   22656551.5984
  -9960725.08248  -8360491.61345  22538548.7504                   22538547.0984
 11  7 29  0 25  0.0000000  0  8G12G09G04G17G02G28G10G27
  -3643863.65647  -2835683.98044  24169074.8204                   24169071.9344
  -8239390.43747  -6151805.75445  22175140.5864                   22175137.8324
 -21177881.35248 -15473715.78146  20026670.3284                   20026666.9264
   1678229.12548   1331478.50846  21847793.9384                   21847790.3364
 -14144666.18448 -10969309.35546  21655930.2504                   21655925.8674
  14641900.66047  11406737.68044  22560657.6254                   22560654.4064
 -11603306.60947  -9013846.88745  22646636.9384                   22646635.4494
  -9910818.65647  -8321603.51645  22548045.8594                   22548044.3204
 11  7 29  0 25 30.0000000  0  8G12G09G04G17G02G28G10G27
  -3706639.28147  -2884600.00044  24157129.0784                   24157126.1094
  -8197185.44947  -6118918.75845  22183171.7584                   22183169.2584
 -21126488.40248 -15433669.32446  20036450.1724                   20036447.0204
   1748002.09048   1385847.03946  21861071.3834                   21861067.7584
 -14171689.68748 -10990366.59846  21650788.1564                   21650783.2774
  14746905.01647  11488559.21145  22580639.0784                   22580636.0164
 -11655108.12147  -9054211.61744  22636779.2424                   22636777.6454
  -9860376.07847  -8282297.62945  22557645.2504                   22557642.7704
 11  7 29  0 26  0.0000000  0  8G12G09G04G17G02G28G10G27
  -3769306.00847  -2933431.13744  24145203.3444                   24145200.9494
  -8154283.43447  -6085488.64145  22191335.7974                   22191333.1254
 -21074501.38348 -15393159.94946  20046342.5634                   20046339.8054
   1817934.73848   1440339.99646  21874379.0784                   21874375.6684
 -14198286.77048 -11011091.55946  21645726.5944                   21645722.1214
  14852336.46147  11570713.54345  22600702.3204                   22600699.1804
 -11706601.25047  -9094336.05144  22626980.3834                   22626978.5944
  -9809402.73447  -8242578.16845  22567345.3204                   22567342.7734
 11  7 29  0 26 30.0000000  0  8G12G09G04G17G02G28G10G27
  -3831851.87147  -2982168.10544  24133301.1484                   24133298.8954
  -8110675.59847  -6051508.53545  22199634.0004                   22199631.1764
 -21021912.03948 -15352181.23846  20056350.2424                   20056347.1134
   1888037.37948   1494965.41046  21887719.2114                   21887715.8484
 -14224447.30948 -11031476.35946  21640748.4384                   21640744.1564
  14958204.13747  11653207.77744  22620848.2664                   22620845.1174
 -11757772.87547  -9134209.94944  22617243.0394                   22617241.1804
  -9757890.07848  -8202438.45345  22577147.4844                   22577145.4534
 11  7 29  0 27  0.0000000  0  8G12G09G04G17G02G28G10G27
  -3894285.57047  -3030817.66844  24121420.6334                   24121418.2704
  -8066374.04747  -6016987.86345  22208064.1174                   22208062.0314
 -20968732.87548 -15310742.92646  20066469.9384                   20066466.8164
   1958299.42248   1549715.03546  21901089.6254                   21901086.1644
 -14250181.40248 -11051528.85946  21635850.7894                   21635846.4574
  15064496.39847  11736032.87945  22641074.5944                   22641072.1094
 -11808630.01647  -9173838.81645  22607564.4144                   22607562.8634
  -9705850.05147  -8161887.80945  22587050.4304                   22587048.4884
 11  7 29  0 27 30.0000000  0  8G12G09G04G17G02G28G10G27
  -3956601.37547  -3079375.34844  24109562.3594                   24109560.0824
  -8021375.73448  -5981924.27045  22216627.2734                   22216624.6844
 -20914960.96948 -15268842.73046  20076702.2814                   20076699.1804
   2028724.44548   1604591.66046  21914490.6484                   21914487.4734
 -14275484.43448 -11071245.47346  21631036.0234                   21631031.5664
  15171216.74647  11819191.53545  22661382.8834                   22661379.9264
 -11859165.50847  -9213217.03145  22597948.1724                   22597946.7154
  -9653279.80147  -8120924.00445  22597054.4924                   22597052.3244
 11  7 29  0 28  0.0000000  0  8G12G09G04G17G02G28G10G27
  -4018805.08247  -3127845.68744  24097725.2274                   24097723.0004
  -7975689.50048  -5946324.63345  22225320.8754                   22225318.4614
 -20860605.93448 -15226488.15246  20087045.8054                   20087042.6334
   2099305.18448   1659589.61346  21927922.1484                   21927918.4184
 -14300363.06648 -11090631.38346  21626301.7974                   21626297.1994
  15278356.50347  11902676.99345  22681771.2894                   22681768.4144
 -11909383.66047  -9252347.98045  22588391.4224                   22588390.4774
  -9600188.33648  -8079554.05545  22607157.0004                   22607155.2464
 11  7 29  0 28 30.0000000  0  8G12G09G04G17G02G28G10G27
  -4080891.69946  -3176224.79344  24085910.1024                   24085908.2814
  -7929314.09848  -5910187.98445  22234145.9534                   22234143.6294
 -20805666.85248 -15183678.46546  20097500.3594                   20097497.3594
   2170043.92248   1714710.68846  21941383.1884                   21941379.6804
 -14324814.63348 -11109684.50846  21621649.0634                   21621644.3134
  15385917.14547  11986490.44144  22702238.7894                   22702236.5744
 -11959278.90247  -9291227.30945  22578897.5474                   22578895.4534
  -9546574.59447  -8037777.14545  22617359.7814                   22617357.6524
 11  7 29  0 29  0.0000000  0  8G12G09G04G17G02G28G10G27
  -4142868.07446  -3224517.97744  24074116.7114                   24074114.0474
  -7882258.81248  -5873521.55545  22243100.1804                   22243097.9344
 -20750153.43448 -15140421.25046  20108064.3364                   20108061.1914
   2240933.14848   1769949.02346  21954872.8444                   21954869.1054
 -14348846.53948 -11128410.62946  21617076.0864                   21617071.3874
  15493889.69147  12070624.82045  22722785.9694                   22722783.2074
 -12008855.85247  -9329858.61745  22569462.6644                   22569461.1884
  -9492448.14147  -7995600.71145  22627659.9064                   22627658.0274
 11  7 29  0 29 30.0000000  0  8G12G09G04G17G02G28G10G27
  -5780147.20747  -4500319.82444  23762552.8984                   23762550.3524
  -9409936.46147  -7063919.74645  21952393.0474                   21952390.4924
 -22269478.60548 -16324310.99246  19818946.3524                   19818943.4264
    736562.31348    597711.99246  21668600.4844                   21668597.5004
 -15947872.02748 -12374404.47746  21312791.6174                   21312786.7274
  14026864.02047  10927487.88345  22443620.2584                   22443617.6054
 -13633526.15247 -10595835.40245  22260298.4384                   22260296.7894
 -11013221.37547  -9180618.84045  22338266.3674                   22338263.7854
 11  7 29  0 30  0.0000000  0  8G12G09G04G17G02G28G10G27
  -5841893.04347  -4548433.39844  23750802.9144                   23750800.5634
  -9361521.69147  -7026193.97345  21961605.8834                   21961603.6134
 -22212817.72748 -16280159.66046  19829728.1884                   19829725.6334
    807756.09848    653187.64146  21682148.5704                   21682145.2814
 -15971059.11348 -12392472.28946  21308379.0234                   21308374.3484
  14135661.62947  11012265.17644  22464323.3524                   22464321.0514
 -13682453.43047 -10633960.48445  22250987.4774                   22250986.0164
 -10958069.34447  -9137643.26245  22348761.1564                   22348759.1024
 11  7 29  0 30 30.0000000  0  8G12G09G04G17G02G28G10G27
  -5903518.48047  -4596453.17444  23739075.7504                   23739073.3874
  -9312427.26648  -6987938.59245  21970948.0784                   21970946.2664
 -22155583.79448 -16235561.78446  19840619.5004                   19840616.6604
    879104.03948    708783.41646  21695725.5554                   21695722.0434
 -15993820.78848 -12410208.61646  21304047.8914                   21304043.1764
  14244872.10747  11097364.19245  22485105.8594                   22485102.9804
 -13731048.88247 -10671826.99745  22241739.7504                   22241738.5044
 -10902404.74747  -9094268.28345  22359353.8914                   22359352.0824
 11  7 29  0 31  0.0000000  0  8G12G09G04G17G02G28G10G27
  -5965031.24247  -4644385.14544  23727370.2734                   23727367.8404
  -9262664.33248  -6949162.30145  21980417.7974                   21980415.2504
 -22097788.27348 -16190526.30546  19851617.9694                   19851614.9844
    950596.55148    764491.85546  21709329.8674                   21709326.8444
 -16016166.75848 -12427621.01646  21299795.1254                   21299790.7894
  14354484.60947  11182776.47744  22505964.2194                   22505962.0474
 -13779318.99647 -10709440.00845  22232555.0234                   22232553.4844
 -10846239.08247  -9050502.85245  22370041.6804                   22370040.1914
 11  7 29  0 31 30.0000000  0  8G12G09G04G17G02G28G10G27
  -6026419.42647  -4692220.05144  23715688.6564                   23715686.1174
  -9212224.15648  -6909858.28945  21990016.2504                   21990014.0474
 -22039422.73448 -16145046.66046  19862724.4614                   19862721.3484
   1022244.17648    820321.15646  21722964.1884                   21722960.7274
 -16038086.18048 -12444701.04746  21295624.1094                   21295619.5704
  14464508.67647  11268509.45344  22526901.6644                   22526898.6294
 -13827250.17647 -10746788.90245  22223433.4534                   22223432.2584
 -10789563.43447  -9006340.03545  22380826.8674                   22380825.0704
 11  7 29  0 32  0.0000000  0  8G12G09G04G17G02G28G10G27
  -6087696.53447  -4739968.41244  23704027.7424                   23704024.8014
  -9161123.43047  -6870039.57045  21999740.4224                   21999737.6844
 -21980504.28948 -16099136.18446  19873935.7814                   19873932.9224
   1094031.43448    876259.26246  21736624.6334                   21736621.5314
 -16059593.98448 -12461460.33646  21291530.7814                   21291526.3204
  14574927.64047  11354550.13644  22547912.9534                   22547911.0744
 -13874854.56347 -10783883.16345  22214375.1414                   22214372.9844
 -10732394.70347  -8961793.00045  22391705.5944                   22391703.9884
 11  7 29  0 32 30.0000000  0  8G12G09G04G17G02G28G10G27
  -6148852.27347  -4787622.18444  23692390.3204                   23692387.2504
  -9109355.82847  -6829701.19145  22009591.7274                   22009589.2074
 -21921026.90648 -16052790.17246  19885254.2344                   19885251.3244
   1165966.12948    932312.25445  21750313.5084                   21750310.0864
 -16080681.47748 -12477892.10946  21287518.3594                   21287513.5474
  14685748.35547  11440903.88344  22569001.6254                   22568999.4964
 -13922121.03547 -10820714.10945  22205380.2504                   22205378.8364
 -10674726.55947  -8916856.81645  22402679.5554                   22402677.6174
 11  7 29  0 33  0.0000000  0  8G12G09G04G17G02G28G10G27
  -6209888.21147  -4835182.63344  23680775.7114                   23680772.7934
  -9056926.59848  -6788847.26645  22019568.8524                   22019566.5274
 -21860995.96148 -16006012.81246  19896677.8594                   19896675.0434
   1238044.75847    988477.40646  21764029.5944                   21764026.2734
 -16101351.96148 -12493998.93746  21283584.9224                   21283580.3134
  14796965.89547  11527566.84444  22590165.8674                   22590163.1094
 -13969050.19147 -10857282.21145  22196450.0004                   22196448.3094
 -10616564.03547  -8871535.40245  22413747.5944                   22413745.7974
 11  7 29  0 33 30.0000000  0  8G12G09G04G17G02G28G10G27
  -6270803.75047  -4882649.21944  23669183.6884                   23669180.8014
  -9003837.69147  -6747479.31245  22029671.1564                   22029668.5204
 -21800414.09448 -15958806.17246  19908206.2194                   19908203.3094
   1310266.99247   1044754.45746  21777773.3134                   21777769.8954
 -16121605.77048 -12509781.09046  21279730.9224                   21279726.3404
  14908578.94947  11614538.00044  22611405.0004                   22611402.7974
 -14015639.40647 -10893585.43045  22187584.0554                   22187582.4224
 -10557909.34047  -8825830.48445  22424908.9774                   22424907.4694
 11  7 29  0 34  0.0000000  0  8G12G09G04G17G02G28G10G27
  -6331604.47747  -4930026.37944  23657613.6414                   23657610.9184
  -8950099.07847  -6705605.07845  22039897.1724                   22039894.8134
 -21739291.01648 -15911177.79346  19919837.6094                   19919834.5554
   1382624.79347   1101137.13746  21791542.2974                   21791538.6884
 -16141450.79348 -12525244.71146  21275954.1724                   21275949.7304
  15020578.28147  11701810.13744  22632718.0944                   22632715.5704
 -14061893.45347 -10929627.48045  22178781.7974                   22178780.7504
 -10498772.28547  -8779749.69145  22436162.7894                   22436160.8484
 11  7 29  0 34 30.0000000  0  8G12G09G04G17G02G28G10G27
  -6392280.93746  -4977306.69744  23646067.2974                   23646064.6764
  -8895704.78547  -6663219.93045  22050248.0784                   22050245.8054
 -21677621.01248 -15863123.24246  19931572.5784                   19931569.7664
   1455125.91848   1157631.50846  21805339.1484                   21805335.7234
 -16160878.58648 -12540383.21546  21272257.2344                   21272252.0864
  15132970.01647  11789388.05144  22654105.7814                   22654103.0474
 -14107801.29347 -10965399.75845  22170046.6024                   22170044.2344
 -10439146.77347  -8733288.28545  22447509.1644                   22447507.0164
 11  7 29  0 35  0.0000000  0  8G12G09G04G17G02G28G10G27
  -6452835.95747  -5024492.39144  23634544.3914                   23634541.4654
  -8840661.39847  -6620329.00845  22060722.5864                   22060720.2274
 -21615410.95748 -15814647.87946  19943411.3524                   19943408.3594
   1527765.28548   1214233.60246  21819161.7344                   21819158.0904
 -16179893.97348 -12555200.37146  21268638.7584                   21268634.2734
  15245748.31647  11877267.20744  22675566.8204                   22675564.1294
 -14153364.92647 -11000903.82445  22161375.6724                   22161373.8714
 -10379039.41847  -8686451.41845  22458947.6254                   22458945.2974
 11  7 29  0 35 30.0000000  0  8G12G09G04G17G02G28G10G27
  -6513264.16447  -5071579.26644  23623044.9694                   23623042.7734
  -8784967.45147  -6576931.14145  22071320.6094                   22071318.4844
 -21552659.97348 -15765751.01246  19955352.1724                   19955349.5474
   1600546.10147   1270945.90846  21833011.2814                   21833007.8714
 -16198493.63148 -12569693.58146  21265099.4144                   21265094.7424
  15358915.11747  11965449.04344  22697101.5864                   22697098.7854
 -14198578.05947 -11036134.76645  22152772.0394                   22152770.1764
 -10318448.78547  -8639237.97745  22470477.0314                   22470475.5004
 11  7 29  0 36  0.0000000  0  8G12G09G04G17G02G28G10G27
  -6573569.76247  -5118570.61744  23611568.7814                   23611566.3164
  -8728630.79347  -6533032.46945  22082041.3914                   22082038.9224
 -21489375.80148 -15716438.67646  19967394.7274                   19967391.6054
   1673462.57847   1327763.92646  21846886.6724                   21846883.8634
 -16216683.13748 -12583867.19946  21261638.0784                   21261633.2894
  15472463.15647  12053927.97344  22718708.3524                   22718706.4144
 -14243443.69947 -11071094.95745  22144234.5394                   22144232.3284
 -10257382.76247  -8591654.10245  22482097.7114                   22482095.5784
 11  7 29  0 36 30.0000000  0  8G12G09G04G17G02G28G10G27
  -6633743.54747  -5165459.26644  23600118.5394                   23600116.0744
  -8671645.61747  -6488628.46945  22092884.9694                   22092882.6684
 -21425552.77748 -15666706.45746  19979539.6254                   19979536.6604
   1746522.28148   1384693.55146  21860789.2584                   21860786.3094
 -16234454.73448 -12597715.17246  21258256.0234                   21258251.3524
  15586398.88747  12142708.99244  22740390.1174                   22740387.8794
 -14287950.94547 -11105775.87145  22135765.0554                   22135763.0864
 -10195835.32447  -8543695.10245  22493810.0234                   22493807.7624
 11  7 29  0 37  0.0000000  0  8G12G09G04G17G02G28G10G27
  -6693792.17947  -5212250.37644  23588691.5554                   23588689.3324
  -8614022.64147  -6443727.46945  22103850.8284                   22103848.0784
 -21361202.10548 -15616563.08046  19991785.4924                   19991782.7854
   1819716.60748   1441728.07846  21874718.3284                   21874715.0274
 -16251816.90948 -12611244.12246  21254952.3914                   21254947.6884
  15700712.00847  12231784.07844  22762143.6564                   22762141.3914
 -14332105.75447 -11140182.16945  22127362.1884                   22127360.3014
 -10133817.40047  -8495369.48645  22505611.6724                   22505609.8754
 11  7 29  0 37 30.0000000  0  8G12G09G04G17G02G28G10G27
  -6753709.41847  -5258939.09844  23577290.0474                   23577287.0514
  -8555759.56247  -6398327.69545  22114937.3364                   22114935.1454
 -21296321.24648 -15566006.57446  20004131.5944                   20004129.0124
   1893049.40648   1498870.50046  21888672.7664                   21888669.6954
 -16268765.35548 -12624450.67646  21251727.0394                   21251722.0314
  15815405.35247  12321155.45344  22783968.9924                   22783966.6684
 -14375900.55947 -11174307.93045  22119028.6884                   22119026.9184
 -10071326.54747  -8446675.35945  22517503.4924                   22517501.4064
 11  7 29  0 38  0.0000000  0  8G12G09G04G17G02G28G10G27
  -6813493.58647  -5305524.14144  23565913.1174                   23565910.0124
  -8496858.16847  -6352430.53145  22126146.4924                   22126143.7584
 -21230912.51648 -15515038.74646  20016578.8524                   20016575.8054
   1966520.57048   1556120.74246  21902654.7664                   21902651.1884
 -16285299.86748 -12637334.68746  21248580.8054                   21248575.7624
  15930477.62147  12410822.09044  22805866.2424                   22805864.0824
 -14419332.34447 -11208150.83645  22110763.5474                   22110761.5824
 -10008364.60947  -8397614.14145  22529484.5164                   22529482.5044
 11  7 29  0 38 30.0000000  0  8G12G09G04G17G02G28G10G27
  -6873148.23847  -5352008.24644  23554561.4064                   23554558.4844
  -8437326.35247  -6306042.12945  22137474.5004                   22137472.4384
 -21164983.79748 -15463665.71946  20029124.3594                   20029121.8244
   2040124.62548   1613474.53546  21916660.6174                   21916657.0824
 -16301426.13748 -12649900.59446  21245511.8134                   21245507.1954
  16045921.67247  12500778.42644  22827835.0084                   22827832.3284
 -14462404.13347 -11241713.21945  22102567.5944                   22102565.4654
  -9944939.39147  -8348191.93445  22541554.0554                   22541552.3554
 11  7 29  0 39  0.0000000  0  8G12G09G04G17G02G28G10G27
  -6932666.57847  -5398386.11744  23543235.3914                   23543232.4534
  -8377161.40247  -6259160.37545  22148923.3134                   22148921.6954
 -21098532.24248 -15411885.28946  20041769.5944                   20041766.7424
   2113866.33248   1670935.59045  21930693.0554                   21930689.6764
 -16317138.96948 -12662144.32846  21242521.3284                   21242516.8954
  16161740.91847  12591027.11344  22849874.8204                   22849872.3874
 -14505108.05947 -11274988.95745  22094441.1644                   22094439.1024
  -9881047.44947  -8298406.03945  22553712.2424                   22553710.3164
 11  7 29  0 39 30.0000000  0  8G12G09G04G17G02G28G10G27
  -6992047.56247  -5444656.96144  23531935.2584                   23531932.5864
  -8316366.08647  -6211787.43045  22160492.5864                   22160490.4574
 -21031560.94548 -15359699.87146  20054513.6804                   20054511.2034
   2187745.13348   1728503.47346  21944752.0944                   21944748.6724
 -16332439.00448 -12674066.40246  21239609.8204                   21239605.1374
  16277933.35247  12681566.59444  22871985.4454                   22871983.0634
 -14547441.46147 -11307975.97745  22086385.2974                   22086383.2624
  -9816691.47747  -8248258.56245  22565958.7974                   22565956.9494
 11  7 29  0 40  0.0000000  0  8G12G09G04G17G02G28G10G27
  -7051293.12147  -5490822.27744  23520660.9924                   23520658.6214
  -8254946.26247  -6163927.85245  22172180.6334                   22172178.4064
 -20964075.93748 -15307114.16046  20067355.8754                   20067352.8484
   2261756.96148   1786175.02345  21958835.9694                   21958832.5044
 -16347329.98448 -12685669.73046  21236776.6174                   21236771.7974
  16394493.52047  12772392.62144  22894165.9614                   22894163.6414
 -14589405.60247 -11340675.25445  22078399.5314                   22078397.1804
  -9751877.71547  -8197754.36745  22578292.8284                   22578290.8444
 11  7 29  0 40 30.0000000  0  8G12G09G04G17G02G28G10G27
  -7110399.74247  -5536879.33244  23509413.4304                   23509410.6564
  -8192902.38747  -6115582.00845  22183987.1954                   22183985.2274
 -20896077.84048 -15254128.62946  20080295.5394                   20080292.5744
   2335903.54748   1843951.56346  21972945.8284                   21972942.4304
 -16361810.75048 -12696953.41846  21234020.7734                   21234016.2384
  16511421.54747  12863505.27744  22916417.1724                   22916414.6484
 -14630995.98447 -11373083.30545  22070485.5474                   22070482.8754
  -9686606.48447  -8146893.69545  22590713.0704                   22590711.2344
 11  7 29  0 41  0.0000000  0  8G12G09G04G17G02G28G10G27
  -7169366.83647  -5582827.66044  23498192.2424                   23498189.4694
  -8130238.46547  -6066753.01645  22195911.7664                   22195909.6564
 -20827570.75448 -15200746.48846  20093331.9454                   20093329.1334
   2410182.88348   1901831.54345  21987080.4844                   21987076.9104
 -16375882.60548 -12707918.46946  21231342.7814                   21231338.1994
  16628714.29747  12954902.15244  22938737.1174                   22938734.6804
 -14672211.19947 -11405199.01645  22062642.0234                   22062640.3364
  -9620881.53547  -8095679.48445  22603220.7194                   22603218.4224
 11  7 29  0 41 30.0000000  0  8G12G09G04G17G02G28G10G27
  -7228190.07847  -5628663.89844  23486998.5084                   23486995.9104
  -8066953.77047  -6017440.30145  22207954.3674                   22207952.0044
 -20758553.83248 -15146967.08246  20106465.7034                   20106462.9844
   2484598.07847   1959817.39546  22001241.4844                   22001237.9104
 -16389542.77348 -12718562.73446  21228743.5554                   21228738.7774
  16746372.85247  13046584.05544  22961126.9304                   22961124.5434
 -14713045.42647 -11437017.84445  22054871.4224                   22054869.6884
  -9554702.05947  -8044111.10245  22615813.6564                   22615811.8164
 11  7 29  0 42  0.0000000  0  8G12G09G04G17G02G28G10G27
  -7286862.40647  -5674382.53944  23475833.5704                   23475830.6564
  -8003045.14847  -5967641.41445  22220115.5634                   22220113.6564
 -20689024.30548 -15092788.23446  20119696.6564                   20119693.7544
   2559154.20348   2017913.05145  22015429.0164                   22015425.7154
 -16402786.28148 -12728882.32846  21226223.4384                   21226218.7424
  16864401.25047  13138554.18844  22983586.9774                   22983584.5084
 -14753490.47347 -11468533.41845  22047175.2664                   22047172.9964
  -9488064.89547  -7992186.07045  22628494.3364                   22628492.5704
 11  7 29  0 42 30.0000000  0  8G12G09G04G17G02G28G10G27
  -7345389.12547  -5719987.69544  23464696.1564                   23464693.4614
  -7938522.22347  -5917363.84445  22232394.5234                   22232391.8324
 -20618991.39548 -15038217.13746  20133023.6564                   20133020.8594
   2633844.17648   2076113.02045  22029641.7274                   22029638.5554
 -16415620.00048 -12738882.59846  21223781.4304                   21223776.4964
  16982790.71147  13230805.62944  23006115.7584                   23006113.4344
 -14793550.89547 -11499749.28145  22039551.9384                   22039549.7304
  -9420979.33247  -7939911.64145  22641260.3984                   22641258.5474
 11  7 29  0 43  0.0000000  0  8G12G09G04G17G02G28G10G27
  -7403760.35247  -5765471.70744  23453588.1024                   23453585.8284
  -7873379.77747  -5866603.52745  22244790.5704                   22244788.3204
 -20548450.10548 -14983249.89146  20146447.0234                   20146444.1334
   2708675.03147   2134422.76246  22043881.2114                   22043878.7114
 -16428036.35948 -12748557.64846  21221418.3834                   21221413.3714
  17101547.17247  13323343.04344  23028714.2584                   23028712.4224
 -14833215.70347 -11530656.87545  22032003.7974                   22032001.8404
  -9353439.98047  -7887283.61345  22654112.5164                   22654111.1174
 11  7 29  0 43 30.0000000  0  8G12G09G04G17G02G28G10G27
  -7461977.98047  -5810836.02744  23442510.2894                   23442507.2504
  -7807623.78147  -5815365.12545  22257303.2194                   22257301.3284
 -20477406.34048 -14927891.12146  20159966.1884                   20159963.4024
   2783643.99648   2192840.12145  22058147.7194                   22058144.4454
 -16440039.07848 -12757910.38346  21219134.2034                   21219129.6374
  17220665.33247  13416162.31644  23051381.6724                   23051379.4534
 -14872485.88347 -11561256.96945  22024530.8054                   22024528.5124
  -9285452.45347  -7834306.34445  22667049.8984                   22667048.9064
 11  7 29  0 44  0.0000000  0  9G05G12G09G04G17G02G28G10G27
  -3270041.79756  -2533255.41052  24713807.7664                   24713810.2894
  -7520048.76247  -5856085.92244  23431459.1174                   23431456.9104
  -7741265.54347  -5763657.44545  22269930.8054                   22269928.9184
 -20405871.26248 -14872149.50046  20173578.9454                   20173576.0164
   2858741.52347   2251357.66446  22072438.5944                   22072435.3014
 -16451637.23448 -12766947.88346  21216927.3674                   21216922.5314
  17340135.08647  13509255.53544  23074116.1724                   23074113.8524
 -14911367.26647 -11591554.10945  22017131.8204                   22017129.8754
  -9217027.92647  -7780988.57445  22680070.9064                   22680069.0394
 11  7 29  0 44 30.0000000  0  9G05G12G09G04G17G02G28G10G27
  -3338717.72746  -2586768.77042  24700739.6484                   24700741.9304
  -7577965.35947  -5901215.67245  23420438.3914                   23420435.0124
  -7674301.38747  -5711477.61345  22282673.9694                   22282671.6644
 -20333841.53948 -14816022.45346  20187285.7734                   20187282.6054
   2933973.46548   2309979.92645  22086754.6484                   22086751.4964
 -16462825.31248 -12775665.83246  21214798.1174                   21214793.5514
  17459959.77047  13602625.34444  23096917.6954                   23096915.7894
 -14949851.55947 -11621541.81645  22009808.7974                   22009806.6804
  -9148162.86747  -7727327.52345  22693175.8594                   22693174.1174
 11  7 29  0 45  0.0000000  0  9G05G12G09G04G17G02G28G10G27
  -3407444.85246  -2640322.07443  24687660.4384                   24687663.1374
  -7635733.50847  -5946229.75445  23409445.3834                   23409442.7624
  -7606741.89147  -5658833.87945  22295529.9064                   22295527.7234
 -20261327.34048 -14759517.88346  20201084.4924                   20201081.5904
   3009332.37548   2368701.13345  22101094.8364                   22101091.9224
 -16473611.16448 -12784070.36746  21212745.8284                   21212740.8484
  17580130.44547  13696264.74644  23119785.2504                   23119783.9454
 -14987943.61748 -11651223.90245  22002560.1334                   22002557.7774
  -9078867.34447  -7673331.04345  22706362.1644                   22706360.3444
 11  7 29  0 45 30.0000000  0  9G05G12G09G04G17G02G28G10G27
  -3476218.58646  -2693911.65643  24674571.7974                   24674575.4224
  -7693348.96147  -5991124.85944  23398481.3284                   23398478.9224
  -7538587.32447  -5605726.46145  22308499.4774                   22308497.3364
 -20188328.97748 -14702636.03946  20214975.9064                   20214973.0744
   3084819.64547   2427522.37145  22115459.5084                   22115456.4574
 -16483992.90248 -12792160.00446  21210770.1804                   21210765.2704
  17700647.45347  13790174.01644  23142720.1094                   23142717.4844
 -15025638.38747 -11680596.40245  21995387.3284                   21995384.8834
  -9009141.27747  -7618999.07445  22719630.6724                   22719628.7424
 11  7 29  0 46  0.0000000  0  9G05G12G09G04G17G02G28G10G27
  -3545037.23446  -2747536.25043  24661476.8204                   24661480.0124
  -7750810.53147  -6035900.05145  23387546.9064                   23387543.9064
  -7469840.68747  -5552157.68745  22321581.4694                   22321579.3594
 -20114849.41448 -14645379.24246  20228958.4614                   20228955.4694
   3160435.11348   2486443.49645  22129848.8674                   22129845.3954
 -16493970.97348 -12799935.09446  21208871.2344                   21208866.2424
  17821508.72747  13884351.56344  23165718.7344                   23165716.2234
 -15062933.70747 -11709657.64845  21988290.3284                   21988287.5124
  -8938987.62147  -7564333.91045  22732980.6334                   22732978.6134
 11  7 29  0 46 30.0000000  0  9G05G12G09G04G17G02G28G10G27
  -3613898.02047  -2801193.67244  24648373.6414                   24648374.9614
  -7808114.90647  -6080552.77745  23376642.1094                   23376639.1374
  -7400502.94547  -5498128.30945  22334775.9774                   22334773.4734
 -20040889.98048 -14587748.50446  20243032.2274                   20243029.3634
   3236179.77748   2545465.29745  22144262.3284                   22144259.3834
 -16503544.48448 -12807394.94946  21207049.6024                   21207044.9384
  17942713.56647  13978796.81344  23188783.4144                   23188781.3134
 -15099825.53947 -11738404.48445  21981269.9614                   21981267.5474
  -8868407.49647  -7509336.45745  22746411.4144                   22746409.6954
 11  7 29  0 47  0.0000000  0  9G05G12G09G04G17G02G28G10G27
  -3682791.82447  -2854876.83644  24635262.7424                   24635265.1564
  -7865253.89847  -6125076.62145  23365769.2424                   23365766.1844
  -7330570.55147  -5443635.57045  22348083.9534                   22348081.6564
 -19966446.42648 -14529740.53546  20257198.6024                   20257195.5904
   3312060.07847   2604592.78945  22158702.0784                   22158698.6914
 -16512707.29348 -12814534.77746  21205306.1094                   21205301.2854
  18064266.78547  14073513.53944  23211914.1174                   23211912.2934
 -15136304.64847 -11766829.71545  21974327.2974                   21974326.0164
  -8797396.64147  -7454003.35545  22759924.4614                   22759922.7544
 11  7 29  0 47 30.0000000  0  9G05G12G09G04G17G02G28G10G27
  -3751719.27047  -2908586.24644  24622146.6094                   24622147.7974
  -7922228.50847  -6169472.38745  23354927.1564                   23354924.1764
  -7260048.56647  -5388683.39845  22361503.7734                   22361501.4414
 -19891524.16448 -14471359.54346  20271455.5314                   20271452.5984
   3388073.44147   2663823.96945  22173166.9454                   22173163.3484
 -16521462.43448 -12821356.94946  21203639.6954                   21203635.2304
  18186163.56347  14168497.98044  23235111.3834                   23235109.0004
 -15172371.24247 -11794933.51645  21967464.4774                   21967462.2304
  -8725960.23847  -7398338.65645  22773518.2034                   22773516.7274
 11  7 29  0 48  0.0000000  0  9G05G12G09G04G17G02G28G10G27
  -3820678.75847  -2962320.63344  24609024.1884                   24609025.3714
  -7979036.71947  -6213738.47745  23344116.8594                   23344114.1454
  -7188940.24247  -5333274.35245  22375035.0234                   22375032.7974
 -19816126.28548 -14412607.94546  20285803.3524                   20285800.8094
   3464219.09848   2723158.23045  22187656.6804                   22187653.9024
 -16529810.40248 -12827861.84046  21202051.3834                   21202046.5944
  18308402.13347  14263748.74244  23258372.2344                   23258370.2034
 -15208022.75447 -11822713.87145  21960679.8984                   21960678.0864
  -8654101.12147  -7342344.57445  22787192.6564                   22787190.7854
 11  7 29  0 48 30.0000000  0  9G05G12G09G04G17G02G28G10G27
  -3889668.62947  -3016078.69944  24595895.2344                   24595896.9454
  -8035678.22747  -6257874.69145  23333338.0864                   23333335.1684
  -7117249.01247  -5277411.07045  22388677.7814                   22388675.3444
 -19740255.95748 -14353488.20746  20300241.4384                   20300238.2544
   3540495.91848   2782594.69945  22202172.0634                   22202169.2074
 -16537752.49248 -12834050.46146  21200540.0864                   21200535.2704
  18430979.23047  14359263.27744  23281697.3914                   23281695.2154
 -15243257.48448 -11850169.46545  21953975.5084                   21953973.2894
  -8581822.35547  -7286023.50845  22800946.9614                   22800945.2234
 11  7 29  0 49  0.0000000  0  9G05G12G09G04G17G02G28G10G27
  -3958680.57446  -3069854.00444  24582762.4844                   24582763.7774
  -8092144.11747  -6301874.06245  23322592.8834                   23322590.2034
  -7044971.39547  -5221090.87545  22402431.5394                   22402429.3284
 -19663909.36748 -14293997.35246  20314769.4224                   20314766.9184
   3616910.55148   2842138.55145  22216713.1094                   22216709.8244
 -16545282.76648 -12839918.18746  21199106.9454                   21199102.2304
  18553899.97747  14455045.60544  23305088.5234                   23305086.5044
 -15278066.18047 -11877293.07845  21947351.1254                   21947349.3874
  -8509120.11347  -7229372.44545  22814781.3984                   22814780.3524
 11  7 29  0 49 30.0000000  0  9G05G12G09G04G17G02G28G10G27
  -4027710.31646  -3123643.14143  24569626.4614                   24569627.6094
  -8148430.45747  -6345733.52344  23311882.2814                   23311879.1524
  -6972107.89147  -5164314.13745  22416296.7664                   22416294.9534
 -19587087.08248 -14234135.82446  20329388.1334                   20329385.3364
   3693465.58248   2901791.80145  22231281.1024                   22231277.7544
 -16552398.67248 -12845463.02346  21197752.8364                   21197748.4614
  18677164.98847  14551096.17644  23328545.2504                   23328543.6484
 -15312444.06247 -11904080.99645  21940809.4384                   21940807.4024
  -8435994.53947  -7172391.52345  22828697.1254                   22828695.4804
 11  7 29  0 50  0.0000000  0  9G05G12G09G04G17G02G28G10G27
  -4096758.09046  -3177446.34043  24556486.5704                   24556488.1294
  -8204538.17647  -6389453.79744  23301205.0234                   23301202.1094
  -6898663.68047  -5107084.90645  22430273.0864                   22430270.7974
 -19509794.10948 -14173907.53146  20344096.8914                   20344093.9884
   3770157.62947   2961551.81645  22245875.0554                   22245872.1094
 -16559104.01248 -12850687.94946  21196476.6564                   21196471.8754
  18800769.00847  14647410.93444  23352065.9774                   23352064.3204
 -15346391.12947 -11930533.20745  21934349.3754                   21934347.1414
  -8362450.86747  -7115084.80145  22842691.9384                   22842690.4224
 11  7 29  0 50 30.0000000  0  9G05G12G09G04G17G02G28G10G27
  -4165822.50846  -3231262.50443  24543344.0394                   24543345.3134
  -8260466.48847  -6433034.29345  23290562.3594                   23290559.0394
  -6824642.71947  -5049406.25845  22444358.8444                   22444356.7194
 -19432034.35948 -14113315.51646  20358894.0634                   20358890.9694
   3846985.26647   3021417.48045  22260494.8284                   22260491.9734
 -16565400.08648 -12855593.97346  21195278.9774                   21195274.2934
  18924709.18447  14743987.60244  23375651.4844                   23375649.8164
 -15379905.92247 -11956648.57045  21927971.8054                   21927969.6564
  -8288492.81647  -7057455.18445  22856765.8364                   22856763.9804
 11  7 29  0 51  0.0000000  0  9G05G12G09G04G17G02G28G10G27
  -4234893.32046  -3285083.62143  24530199.6174                   24530201.3834
  -8316204.75047  -6476466.68445  23279956.1724                   23279952.8204
  -6750039.04347  -4991273.54745  22458555.6644                   22458553.3204
 -19353801.66848 -14052354.97746  20373781.2504                   20373778.0474
   3923957.14148   3081395.54345  22275142.3204                   22275139.4384
 -16571278.66048 -12860174.66046  21194160.3204                   21194155.5004
  19048992.40247  14840831.58644  23399301.9844                   23399299.7464
 -15412977.20747 -11982418.35545  21921678.4614                   21921676.0664
  -8214114.27747  -6999497.92245  22870919.4844                   22870917.7154
 11  7 29  0 51 30.0000000  0  9G05G12G09G04G17G02G28G10G27
  -5879396.42646  -4566514.36743  24217261.6334                   24217262.3404
  -9947178.69547  -7747355.44945  22969591.1724                   22969588.5354
  -8250279.39147  -6160292.02745  22173069.2194                   22173067.2154
 -20850522.16848 -15218630.69546  20088964.6724                   20088961.7894
   2425650.20347   1913883.62545  21990023.9224                   21990021.3284
 -18152166.37948 -14092035.19946  20893327.1094                   20893322.6254
  17598194.65647  13710339.76243  23123223.6484                   23123221.9304
 -17021029.52347 -13235446.07845  21615676.3834                   21615674.2504
  -9714741.18047  -8168817.61745  22585360.2664                   22585358.1334
 11  7 29  0 52  0.0000000  0  9G05G12G09G04G17G02G28G10G27
  -5948479.87546  -4620345.35943  24204115.3204                   24204116.1024
 -10002537.52747  -7790492.18045  22959057.3834                   22959054.6094
  -8174525.87947  -6101263.35545  22187484.4224                   22187482.3524
 -20771358.42248 -15156944.66046  20104029.1724                   20104026.0594
   2502904.66848   1974081.89145  22004725.0394                   22004722.0824
 -18157217.63748 -14095971.23046  20892365.9694                   20892361.1334
  17723151.02347  13807708.26644  23147002.6254                   23147001.1994
 -17053212.57048 -13260523.73445  21609552.2974                   21609549.6604
  -9639535.76247  -8110216.03145  22599671.2974                   22599669.1254
 11  7 29  0 52 30.0000000  0  9G05G12G09G04G17G02G28G10G27
  -6017563.55546  -4674176.55143  24190968.6024                   24190969.3714
 -10057701.18447  -7833476.82845  22948560.2734                   22948556.8164
  -8098198.87947  -6041787.79745  22202009.4384                   22202007.2544
 -20691730.12948 -15094896.64546  20119181.7344                   20119179.0164
   2580302.64147   2034391.98045  22019453.5164                   22019450.3874
 -18161853.16848 -14099583.31646  20891483.7194                   20891479.1024
  17848443.80947  13905338.91443  23170845.3444                   23170842.9804
 -17084944.84848 -13285250.13745  21603513.4144                   21603511.0944
  -9563917.96547  -8051293.11745  22614060.5634                   22614058.8164
 11  7 29  0 53  0.0000000  0  9G05G12G09G04G17G02G28G10G27
  -6086644.30146  -4728005.44544  24177823.3834                   24177823.9614
 -10112667.21547  -7876307.48445  22938100.2974                   22938097.4224
  -8021300.59447  -5981867.09045  22216642.8594                   22216640.3634
 -20611639.39548 -15032488.28546  20134422.3754                   20134419.5514
   2657844.65648   2094814.30145  22034209.0084                   22034206.2854
 -18166073.00848 -14102871.48846  20890680.7424                   20890676.1024
  17974071.75047  14003230.75444  23194751.2114                   23194749.1564
 -17116223.16447 -13309622.80945  21597561.5704                   21597559.0984
  -9487889.64147  -7992050.30545  22628528.2424                   22628526.4844
 11  7 29  0 53 30.0000000  0  9G05G12G09G04G17G02G28G10G27
  -6155720.67246  -4781830.90244  24164678.3914                   24164678.7274
 -10167433.91447  -7918982.81245  22927678.6024                   22927675.1604
  -7943834.79747  -5921504.16845  22231384.3364                   22231382.0314
 -20531089.66848 -14969722.27346  20149750.8444                   20149747.5274
   2735530.25048   2155348.51245  22048992.2194                   22048989.3054
 -18169877.95748 -14105836.36346  20889956.6484                   20889951.8014
  18100032.58647  14101381.97743  23218721.0234                   23218718.9024
 -17147045.44948 -13333640.12945  21591695.6094                   21591694.0744
  -9411453.91447  -7932490.03545  22643073.6334                   22643071.7664
 11  7 29  0 54  0.0000000  0  9G05G12G09G04G17G02G28G10G27
  -6224785.87546  -4835647.69544  24151534.8594                   24151536.1844
 -10221994.41047  -7961497.46945  22917295.7344                   22917293.0784
  -7865798.99647  -5860697.08245  22246233.6804                   22246231.6374
 -20450078.47748 -14906596.69146  20165166.4224                   20165163.6174
   2813364.67248   2215998.68745  22063803.7814                   22063800.7974
 -18173263.58648 -14108474.50446  20889312.4064                   20889307.4694
  18226329.30547  14199794.91444  23242754.8754                   23242752.9344
 -17177404.08247 -13357296.16045  21585919.0784                   21585916.9734
  -9334608.29347  -7872610.38344  22657697.0314                   22657695.5554
 11  7 29  0 54 30.0000000  0  9G05G12G09G04G17G02G28G10G27
  -6293837.04747  -4889453.53544  24138395.1024                   24138395.3914
 -10276346.69147  -8003849.87145  22906952.8204                   22906950.1094
  -7787196.14147  -5799448.14145  22261191.3524                   22261189.3914
 -20368608.25448 -14843113.41046  20180669.8914                   20180667.0984
   2891347.73048   2276764.69145  22078643.5164                   22078640.2074
 -18176230.29348 -14110786.21146  20888747.7664                   20888743.1254
  18352959.70747  14298467.89143  23266851.8284                   23266849.8134
 -17207296.71947 -13380589.07445  21580230.7424                   21580228.2274
  -9257355.45747  -7812413.41045  22672397.7114                   22672396.1094
 11  7 29  0 55  0.0000000  0  9G05G12G09G04G17G02G28G10G27
  -6362872.50047  -4943247.11744  24125258.0314                   24125258.3204
 -10330489.50047  -8046039.04345  22896649.7274                   22896647.0434
  -7708029.99247  -5737760.27045  22276256.1954                   22276253.9534
 -20286682.22748 -14779274.96146  20196259.6954                   20196257.2504
   2969478.68748   2337645.93745  22093511.7584                   22093508.1724
 -18178778.79748 -14112772.03546  20888262.9844                   20888258.3984
  18479921.60947  14397399.16044  23291012.0164                   23291009.4104
 -17236720.82048 -13403516.91045  21574631.0554                   21574628.8834
  -9179698.32447  -7751901.41445  22687175.7504                   22687174.0944
 11  7 29  0 55 30.0000000  0  9G05G12G09G04G17G02G28G10G27
  -6431889.43446  -4997026.27044  24112124.3444                   24112124.8324
 -10384420.00447  -8088062.79345  22886387.2974                   22886384.5084
  -7628302.86347  -5675635.27745  22291427.8754                   22291425.6524
 -20204302.31248 -14715082.82846  20211936.2584                   20211933.3404
   3047758.29347   2398643.03945  22108407.0554                   22108404.3284
 -18180908.94148 -14114431.86746  20887857.5314                   20887852.6804
  18607213.27047  14496587.36744  23315234.4844                   23315232.7704
 -17265673.32447 -13426077.25845  21569121.6954                   21569119.7584
  -9101639.05547  -7691076.05945  22702029.5234                   22702028.1564
 11  7 29  0 56  0.0000000  0  9G05G12G09G04G17G02G28G10G27
  -6500885.17646  -5050788.89544  24098994.0944                   24098995.1294
 -10438135.82847  -8129919.24645  22876165.9454                   22876162.8484
  -7548017.19547  -5613075.06245  22306705.3674                   22306703.5784
 -20121470.93748 -14650538.91846  20227698.4614                   20227695.6844
   3126186.92647   2459756.23445  22123331.6254                   22123329.0784
 -18182621.16448 -14115766.05146  20887531.3914                   20887526.5124
  18734833.16447  14596031.36744  23339520.4064                   23339518.1844
 -17294151.58647 -13448268.06645  21563702.5474                   21563700.4804
  -9023179.84047  -7629939.05945  22716959.9534                   22716958.6684
 11  7 29  0 56 30.0000000  0  9G05G12G09G04G17G02G28G10G27
  -6569865.19546  -5104539.29744  24085867.5314                   24085867.6914
 -10491642.70947  -8171612.89045  22865982.8674                   22865980.2734
  -7467183.79447  -5550088.03145  22322087.4064                   22322085.3914
 -20038198.57448 -14585651.37546  20243544.5314                   20243541.7234
   3204756.74647   2520979.46145  22138283.3134                   22138280.6334
 -18183923.46948 -14116780.81246  20887284.0164                   20887279.0704
  18862771.77047  14695723.72344  23363865.7194                   23363863.9734
 -17322160.46547 -13470093.11745  21558372.9144                   21558370.6804
  -8944331.14747  -7568498.56544  22731964.4454                   22731962.7854
 11  7 29  0 57  0.0000000  0  9G05G12G09G04G17G02G28G10G27
  -6638823.58246  -5158272.83244  24072745.1254                   24072745.7424
 -10544935.30147  -8213139.54345  22855841.7344                   22855838.9384
  -7385801.87547  -5486673.59445  22337574.3754                   22337571.9454
 -19954484.39148 -14520419.56246  20259475.0704                   20259472.4774
   3283471.31247   2582315.45745  22153261.8364                   22153258.8594
 -18184813.21548 -14117474.09446  20887114.7274                   20887109.8364
  18991030.52046  14795665.50443  23388272.4454                   23388271.4964
 -17349694.07448 -13491547.84445  21553132.8754                   21553130.8594
  -8865092.00447  -7506753.82845  22747043.0394                   22747041.4804
 11  7 29  0 57 30.0000000  0  9G05G12G09G04G17G02G28G10G27
  -6707754.33646  -5211984.83244  24059627.6954                   24059627.9024
 -10598007.73447  -8254494.64145  22845742.5234                   22845739.2894
  -7303870.83247  -5422831.24645  22353164.9064                   22353163.1994
 -19870327.14148 -14454842.50046  20275489.5784                   20275486.4654
   3362334.24648   2643767.05945  22168269.3594                   22168266.0474
 -18185286.90248 -14117843.17646  20887024.3674                   20887019.4384
  19119610.93046  14895857.95744  23412740.9454                   23412739.0234
 -17376746.47347 -13512627.60245  21547985.1254                   21547982.7774
  -8785461.44947  -7444704.07445  22762196.3054                   22762194.9454
 11  7 29  0 58  0.0000000  0  9G05G12G09G04G17G02G28G10G27
  -6776658.71546  -5265676.28944  24046515.4064                   24046515.5984
 -10650861.56247  -8295679.38745  22835684.9614                   22835682.2974
  -7221397.39847  -5358566.27045  22368859.3914                   22368857.6484
 -19785733.05148 -14388925.04746  20291587.3364                   20291584.4574
   3441342.30548   2705331.77045  22183304.2504                   22183300.8794
 -18185348.59848 -14117891.21546  20887012.8754                   20887007.7584
  19248507.57046  14996296.78944  23437268.5704                   23437268.0784
 -17403318.66847 -13533333.18045  21542928.6334                   21542926.2154
  -8705445.45347  -7382353.99244  22777423.1644                   22777421.7624
 11  7 29  0 58 30.0000000  0  9G05G12G09G04G17G02G28G10G27
  -6845534.07346  -5319345.15043  24033408.8674                   24033408.6644
 -10703493.97747  -8336691.61145  22825669.2814                   22825666.1914
  -7138384.27747  -5293880.76645  22384656.3984                   22384654.3874
 -19700704.47748 -14322669.02346  20307767.6804                   20307764.9344
   3520496.02348   2767009.97345  22198366.5634                   22198363.4344
 -18184998.17648 -14117618.14546  20887079.0474                   20887074.5744
  19377718.79746  15096980.78943  23461856.9144                   23461855.6254
 -17429407.53947 -13553662.13745  21537963.9924                   21537961.9654
  -8625046.23047  -7319705.29344  22792721.9144                   22792720.6094
 11  7 29  0 59  0.0000000  0  9G05G12G09G04G17G02G28G10G27
  -6914377.21946  -5372988.91444  24020308.2344                   24020308.6454
 -10755902.53147  -8377529.39845  22815696.2504                   22815693.3484
  -7054833.75047  -5228776.48845  22400555.3984                   22400553.7344
 -19615243.17248 -14256075.81646  20324030.5784                   20324027.7504
   3599796.27748   2828802.35945  22213456.5634                   22213453.5164
 -18184235.99248 -14117024.19946  20887224.1644                   20887219.6604
  19507243.25046  15197908.83644  23486504.5704                   23486503.7384
 -17455009.79747 -13573611.90245  21533091.6484                   21533089.6604
  -8544265.82047  -7256759.54744  22808094.5474                   22808092.9534
 11  7 29  0 59 30.0000000  0  9G05G12G09G04G17G02G28G10G27
  -6983183.02347  -5426603.60244  24007214.5084                   24007214.6994
 -10808082.37547  -8418188.96945  22805767.0474                   22805763.8594
  -6970746.07448  -5163253.66045  22416556.7734                   22416554.9924
 -19529349.30148 -14189145.53146  20340375.5864                   20340372.4574
   3679245.39848   2890710.74245  22228575.5004                   22228572.6024
 -18183059.46148 -14116107.39846  20887448.0084                   20887443.2854
  19637081.80546  15299081.64144  23511212.9144                   23511211.4344
 -17480120.28547 -13593178.48445  21528313.5704                   21528311.0664
  -8463104.00847  -7193516.63744  22823539.2584                   22823537.5164
 11  7 29  1  0  0.0000000  0  9G05G12G09G04G17G02G28G10G27
  -7051948.33647  -5480186.77344  23994129.2274                   23994128.3594
 -10860030.49647  -8458667.96945  22795881.2814                   22795878.3324
  -6886123.55947  -5097314.06645  22432659.8834                   22432658.1644
 -19443024.55148 -14121879.50446  20356802.6094                   20356800.0124
   3758844.21147   2952735.77345  22243722.5084                   22243719.6294
 -18181468.52748 -14114867.68746  20887751.1094                   20887746.2464
  19767232.99246  15400498.05944  23535978.7584                   23535978.3524
 -17504735.98447 -13612359.52345  21523629.4774                   21523626.9924
  -8381562.96547  -7129978.21144  22839055.9064                   22839054.5554
 11  7 29  1  0 30.0000000  0  9G05G12G09G04G17G02G28G10G27
  -7120675.53547  -5533740.23044  23981050.1644                   23981050.3594
 -10911749.86747  -8498968.72345  22786039.3204                   22786036.5634
  -6800974.04747  -5030963.82845  22448863.4924                   22448861.4774
 -19356276.50448 -14054283.63746  20373310.4384                   20373307.4734
   3838588.29748   3014874.00045  22258897.1564                   22258894.4184
 -18179468.48048 -14113309.18046  20888131.3364                   20888126.7154
  19897690.25446  15502152.99644  23560804.7894                   23560803.4884
 -17528858.69147 -13631156.39845  21519038.9224                   21519036.5274
  -8299649.92647  -7066149.91844  22854643.6414                   22854642.0004
 11  7 29  1  1  0.0000000  0  9G05G12G09G04G17G02G28G10G27
  -7189354.59847  -5587256.21544  23967981.4064                   23967980.5744
 -10963230.74247  -8539083.63345  22776243.2584                   22776240.0634
  -6715293.31347  -4964199.64845  22465167.6644                   22465165.9774
 -19269100.20348 -13986354.05946  20389899.2344                   20389896.3594
   3918485.32048   3077131.39545  22274101.3914                   22274098.5784
 -18177052.32848 -14111426.44146  20888591.3054                   20888586.0554
  20028458.80546  15604050.46143  23585689.3914                   23585687.8524
 -17552478.62547 -13649561.51645  21514544.6024                   21514542.1644
  -8217360.10947  -7002028.02344  22870302.4454                   22870301.3164
 11  7 29  1  1 30.0000000  0  9G05G12G09G04G17G02G28G10G27
  -7257985.70347  -5640734.82044  23954920.5634                   23954920.4804
 -11014473.52347  -8579013.02745  22766491.8524                   22766488.6644
  -6629087.02347  -4897025.96145  22481572.5704                   22481570.4614
 -19181500.83248 -13918094.80946  20406568.7504                   20406565.5554
   3998532.41848   3139505.73845  22289333.6094                   22289330.9804
 -18174223.21148 -14109221.91046  20889129.3674                   20889124.8364
  20159534.13747  15706187.02043  23610632.7664                   23610630.9614
 -17575595.88347 -13667574.93745  21510145.1884                   21510143.1054
  -8134698.74647  -6937616.61344  22886032.3674                   22886031.1564
 11  7 29  1  2  0.0000000  0  9G05G12G09G04G17G02G28G10G27
  -7326569.03147  -5694176.21144  23941869.3594                   23941868.8444
 -11065478.44947  -8618757.07445  22756785.3754                   22756782.4304
  -6542360.42247  -4829446.82445  22498075.8284                   22498073.6374
 -19093483.46148 -13849509.85946  20423317.8524                   20423315.1724
   4078727.55947   3201995.43445  22304594.7194                   22304591.5234
 -18170983.82848 -14106697.68446  20889745.9614                   20889741.1844
  20290912.00447  15808559.30543  23635632.8364                   23635630.9104
 -17598210.68747 -13685196.84045  21505841.7344                   21505839.1254
  -8051670.89147  -6872919.62944  22901832.0784                   22901831.3014
 11  7 29  1  2 30.0000000  0  9G05G12G09G04G17G02G28G10G27
  -7395098.00447  -5747575.21944  23928829.7034                   23928829.1524
 -11116239.39547  -8658311.00845  22747126.0234                   22747123.2854
  -6455112.71147  -4761461.63345  22514678.9694                   22514677.2464
 -19005047.00448 -13780598.33246  20440146.9924                   20440143.9804
   4159074.88348   3264603.71545  22319884.5474                   22319881.2704
 -18167331.13348 -14103851.40646  20890441.2114                   20890435.9304
  20422593.91447  15911168.53943  23660691.3524                   23660688.7274
 -17620316.42247 -13702422.06245  21501635.1174                   21501632.7734
  -7968275.24247  -6807936.05144  22917702.1884                   22917700.9694
 11  7 29  1  3  0.0000000  0  9G05G12G09G04G17G02G28G10G27
  -7463573.92347  -5800932.89744  23915798.1334                   23915798.2544
 -11166757.51547  -8697675.73345  22737512.7814                   22737510.0594
  -6367351.07447  -4693075.98445  22531379.1564                   22531377.4534
 -18916197.60048 -13711365.03946  20457054.3984                   20457051.7034
   4239570.76948   3327327.74745  22335201.8134                   22335198.6294
 -18163269.42248 -14100686.41446  20891213.9384                   20891209.1174
  20554574.29046  16014010.35543  23685805.8984                   23685803.6524
 -17641914.55348 -13719251.74345  21497525.5234                   21497522.6214
  -7884518.34647  -6742671.00444  22933640.5634                   22933639.3754
 11  7 29  1  3 30.0000000  0  9G05G12G09G04G17G02G28G10G27
  -7531987.48447  -5854241.99244  23902779.3984                   23902779.6994
 -11217024.87547  -8736845.06645  22727946.9064                   22727944.0204
  -6279071.67647  -4624286.87145  22548177.9224                   22548176.5354
 -18826931.10948 -13641806.75446  20474041.3284                   20474038.4144
   4320221.98047   3390172.82045  22350549.3674                   22350546.2034
 -18158792.44148 -14097197.83646  20892065.9534                   20892060.8954
  20686857.63346  16117088.25043  23710979.0234                   23710976.7384
 -17662995.62148 -13735678.53145  21493513.4924                   21493511.2504
  -7800396.17647  -6677121.28944  22949648.5474                   22949647.0164
 11  7 29  1  4  0.0000000  0  9G05G12G09G04G17G02G28G10G27
  -7600339.07847  -5907502.77344  23889771.9694                   23889772.2384
 -11267041.46547  -8775819.00845  22718429.4304                   22718426.2464
  -6190280.46147  -4555098.93745  22565074.5784                   22565072.9844
 -18737252.91448 -13571927.64146  20491106.8134                   20491103.4454
   4401025.86747   3453136.85945  22365925.6804                   22365922.4574
 -18153903.46148 -14093388.21546  20892996.3134                   20892990.9844
  20819439.57446  16220398.76243  23736207.9144                   23736206.1994
 -17683559.85248 -13751702.57445  21489600.1724                   21489597.6884
  -7715913.99647  -6611291.06644  22965725.3134                   22965723.3324
 11  7 29  1  4 30.0000000  0  9G05G12G09G04G17G02G28G10G27
  -7668620.30547  -5960708.75044  23876778.6884                   23876778.9694
 -11316799.16847  -8814591.21145  22708960.9384                   22708957.8594
  -6100974.49247  -4485509.91445  22582069.2274                   22582067.6564
 -18647159.57848 -13501725.05546  20508250.7194                   20508247.6174
   4481988.99648   3516224.97345  22381332.6254                   22381329.9414
 -18148597.05948 -14089253.34446  20894006.0004                   20894001.1684
  20952323.70346  16323944.74643  23761495.0394                   23761493.3554
 -17703598.97348 -13767317.45745  21485786.9614                   21485784.3244
  -7631068.48847  -6545177.71944  22981870.7894                   22981868.9844
 11  7 29  1  5  0.0000000  0  9G05G12G09G04G17G02G28G10G27
  -7736842.43847  -6013868.69544  23863796.1024                   23863796.5314
 -11366309.76247  -8853170.88345  22699538.7274                   22699536.3404
  -6011171.12147  -4415533.30545  22599157.5784                   22599156.0664
 -18556668.07448 -13431212.20746  20525470.7974                   20525467.5274
   4563097.01647   3579425.99645  22396767.0164                   22396763.7704
 -18142888.10548 -14084804.78546  20895091.9454                   20895087.3834
  21085494.30146  16427713.95743  23786836.7734                   23786835.0394
 -17723124.93448 -13782532.46546  21482071.5944                   21482068.6914
  -7545876.41847  -6478794.32044  22998082.3444                   22998080.6054
 11  7 29  1  5 30.0000000  0  9G05G12G09G04G17G02G28G10G27
  -7804992.77747  -6066972.68444  23850827.5784                   23850827.9064
 -11415560.91447  -8891548.39145  22690166.8524                   22690164.1414
  -5920863.42047  -4345163.69945  22616343.0394                   22616341.5274
 -18465770.61348 -13360383.02046  20542767.6804                   20542765.6294
   4644360.46948   3642748.13345  22412231.1724                   22412227.9734
 -18136766.71148 -14080034.85246  20896257.1644                   20896252.1024
  21218958.99246  16531712.30443  23812234.6254                   23812233.2974
 -17742124.75447 -13797337.49646  21478455.6564                   21478453.5434
  -7460330.41047  -6412135.12544  23014360.8984                   23014359.6994
 11  7 29  1  6  0.0000000  0  9G05G12G09G04G17G02G28G10G27
  -7873070.85547  -6120020.37544  23837873.1024                   23837872.4384
 -11464552.02747  -8929723.27345  22680844.1564                   22680841.1954
  -5830056.68447  -4274405.24645  22633622.6644                   22633621.2384
 -18374471.99248 -13289241.25846  20560141.6174                   20560138.5554
   4725777.76647   3706190.14845  22427724.3754                   22427721.3634
 -18130235.95348 -14074945.94146  20897499.7504                   20897494.9804
  21352713.55146  16635936.52743  23837687.7974                   23837685.9104
 -17760598.59848 -13811732.68746  21474939.9614                   21474937.6414
  -7374435.33247  -6345203.93744  23030706.6254                   23030704.8524
 11  7 29  1  6 30.0000000  0  9G05G12G09G04G17G02G28G10G27
  -7941069.27047  -6173005.99644  23824933.7584                   23824932.0204
 -11513276.56647  -8967690.43745  22671572.6414                   22671569.2194
  -5738748.86747  -4203256.34445  22650998.5234                   22650996.5984
 -18282770.02748 -13217785.18746  20577591.8984                   20577589.1484
   4807353.49648   3769755.60945  22443248.0084                   22443244.7664
 -18123291.17648 -14069534.41446  20898821.3364                   20898816.5044
  21486761.01246  16740388.97744  23863196.1484                   23863194.7934
 -17778538.73048 -13825711.97345  21471526.3594                   21471523.6604
  -7288188.84047  -6277998.91444  23047118.1954                   23047117.0274
 11  7 29  1  7  0.0000000  0  9G05G12G09G04G17G02G28G10G27
  -8008983.11747  -6225925.71944  23812009.1414                   23812008.8014
 -11561729.69147  -9005446.10945  22662351.9694                   22662349.2344
  -5646940.80947  -4131717.64145  22668468.8754                   22668467.1294
 -18190664.56648 -13146014.71946  20595118.8284                   20595116.1564
   4889090.75447   3833446.94545  22458801.6174                   22458798.9884
 -18115930.43048 -14063798.75446  20900221.8594                   20900217.1724
  21621102.05547  16845070.22343  23888759.8134                   23888758.9064
 -17795940.07048 -13839271.43445  21468214.6724                   21468212.4734
  -7201591.04347  -6210520.15244  23063597.3524                   23063595.8364
 11  7 29  1  7 30.0000000  0  9G05G12G09G04G17G02G28G10G27
  -8076815.60247  -6278782.03944  23799101.2194                   23799100.5204
 -11609914.84447  -9042992.96945  22653182.6724                   22653179.4804
  -5554641.69147  -4059796.28945  22686033.1484                   22686031.0204
 -18098164.16048 -13073936.48846  20612721.3284                   20612718.3834
   4970983.65247   3897259.55145  22474385.5864                   22474383.0354
 -18108160.55948 -14057744.30946  20901700.4144                   20901695.6524
  21755728.55947  16949973.89544  23914379.1954                   23914377.4264
 -17812806.41048 -13852414.01245  21465005.1804                   21465002.6954
  -7114650.55947  -6142774.36344  23080141.2584                   23080140.2504
 11  7 29  1  8  0.0000000  0  9G05G12G09G04G17G02G28G10G27
  -8144566.41447  -6331574.73444  23786208.6644                   23786208.0744
 -11657832.43047  -9080331.33245  22644064.2664                   22644060.8914
  -5461857.12547  -3987496.64145  22703689.4384                   22703687.6644
 -18005273.81648 -13001554.41446  20630397.4454                   20630394.6844
   5053030.09448   3961191.81245  22489998.5084                   22489995.7304
 -18099984.38748 -14051373.25046  20903256.5864                   20903251.6684
  21890635.83247  17055096.36343  23940050.9144                   23940049.4924
 -17829138.31248 -13865140.14545  21461897.2344                   21461894.7344
  -7027372.44947  -6074765.48844  23096750.0234                   23096749.0904
 11  7 29  1  8 30.0000000  0  9G05G12G09G04G17G02G28G10G27
  -8212230.03947  -6384299.48844  23773331.8754                   23773331.7114
 -11705477.00047  -9117456.96945  22634997.7274                   22634994.6024
  -5368587.68047  -3914819.18444  22721437.8364                   22721436.1174
 -17911993.34448 -12928868.33646  20648148.4224                   20648145.9184
   5135233.23848   4025246.17245  22505641.3054                   22505638.2344
 -18091399.52348 -14044683.73846  20904890.3364                   20904885.4064
  22025824.83247  17160438.34043  23965776.6254                   23965775.3524
 -17844930.36748 -13877445.61345  21458892.3284                   21458889.8954
  -6939756.59447  -6006493.43044  23113423.1644                   23113421.8634
 11  7 29  1  9  0.0000000  0  9G05G12G09G04G17G02G28G10G27
  -8279810.78947  -6436959.67244  23760471.9224                   23760471.5044
 -11752853.03947  -9154373.34045  22625982.2584                   22625979.5594
  -5274843.39547  -3841771.72345  22739276.8284                   22739275.1524
 -17818332.20748 -12855885.64546  20665971.8134                   20665968.8404
   5217586.59047   4089417.59045  22521312.5554                   22521309.6484
 -18082413.54748 -14037681.66846  20906599.9694                   20906595.4534
  22161287.08246  17265993.26243  23991554.1174                   23991552.9384
 -17860186.86348 -13889333.75846  21455989.0084                   21455986.8914
  -6851812.65647  -5937965.73044  23130158.4454                   23130157.0944
 11  7 29  1  9 30.0000000  0  9G05G12G09G04G17G02G28G10G27
  -8347304.76247  -6489552.22344  23747628.0164                   23747627.5594
 -11799956.64547  -9191077.43745  22617019.2814                   22617015.8324
  -5180625.74647  -3768355.41444  22757206.1564                   22757204.3094
 -17724291.09048 -12782606.86746  20683866.7424                   20683864.1174
   5300091.67247   4153707.24245  22537013.0704                   22537010.4104
 -18073025.76648 -14030366.50446  20908386.6254                   20908381.4344
  22297021.22747  17371760.07443  24017382.9614                   24017382.6024
 -17874903.78948 -13900801.46546  21453188.6094                   21453185.6094
  -6763541.90647  -5869183.37944  23146955.4304                   23146954.9494
 11  7 29  1 10  0.0000000  0  9G05G12G09G04G17G02G28G10G27
  -8414700.69147  -6542068.39544  23734803.4064                   23734802.8284
 -11846777.45347  -9227561.14845  22608109.0394                   22608106.0314
  -5085929.64147  -3694566.27045  22775225.6174                   22775224.3874
 -17629864.64148 -12709027.82446  20701835.5234                   20701833.1954
   5382757.43047   4218122.09445  22552743.8284                   22552740.9414
 -18063228.31648 -14022732.10946  20910250.7504                   20910246.3874
  22433033.71546  17477743.75043  24043266.0944                   24043264.2854
 -17889070.63348 -13911840.53545  21450492.9384                   21450490.2154
  -6674938.78947  -5800142.03144  23163816.6334                   23163815.1294
 11  7 29  1 10 30.0000000  0  9G05G12G09G04G17G02G28G10G27
  -8481997.93047  -6594507.62544  23721997.1094                   23721996.1604
 -11893314.92647  -9263824.09045  22599253.2344                   22599250.1024
  -4990760.34447  -3620408.41445  22793336.3834                   22793334.5824
 -17535056.98848 -12635151.75046  20719877.1564                   20719874.1374
   5465582.09447   4282660.77745  22568504.7974                   22568501.9104
 -18053023.59848 -14014780.36746  20912193.0084                   20912188.0984
  22569321.02346  17583941.59043  24069201.2194                   24069199.3954
 -17902686.78948 -13922450.49645  21447901.5084                   21447898.6564
  -6586007.73847  -5730845.15244  23180739.7194                   23180737.7974
 11  7 29  1 11  0.0000000  0  9G05G12G09G04G17G02G28G10G27
  -8549191.14147  -6646865.83244  23709209.9144                   23709209.9734
 -11939564.16047  -9299862.41845  22590452.8134                   22590449.1644
  -4895118.35247  -3545882.20745  22811536.4844                   22811534.5474
 -17439868.41048 -12560978.84446  20737990.8524                   20737987.7424
   5548568.46548   4347325.47345  22584296.3594                   22584293.5554
 -18042409.73448 -14006509.79746  20914212.8134                   20914207.8094
  22705883.49646  17690353.80942  24095187.4774                   24095186.6954
 -17915747.83248 -13932627.90246  21445415.9774                   21445413.1644
  -6496748.90247  -5661292.86344  23197724.6414                   23197723.6484
 11  7 29  1 11 30.0000000  0  9G05G12G09G04G17G02G28G10G27
  -8616281.57847  -6699143.94544  23696443.4224                   23696442.5004
 -11985526.58647  -9335677.25445  22581706.0474                   22581702.9614
  -4799010.87947  -3470993.30544  22829825.0234                   22829823.0984
 -17344305.30948 -12486514.09446  20756175.8054                   20756172.8364
   5631713.37547   4412113.69545  22600118.0164                   22600115.4344
 -18031391.16748 -13997923.88446  20916309.2114                   20916304.8524
  22842715.24646  17796975.89142  24121225.9844                   24121224.8874
 -17928254.98448 -13942373.70746  21443036.0314                   21443033.2194
  -6407168.80947  -5591490.25444  23214771.8674                   23214770.4224
 11  7 29  1 12  0.0000000  0  9G05G12G09G04G17G02G28G10G27
  -8683263.56647  -6751337.55944  23683697.4384                   23683695.7384
 -12031197.05547  -9371264.59045  22573015.4694                   22573012.2974
  -4702438.10947  -3395741.82845  22848202.0784                   22848200.4024
 -17248366.87548 -12411756.87946  20774432.4614                   20774429.6644
   5715019.59847   4477027.62545  22615970.6884                   22615968.2624
 -18019965.48848 -13989020.73846  20918483.6564                   20918478.9264
  22979817.01246  17903808.40243  24147315.1334                   24147314.0164
 -17940203.09848 -13951683.89546  21440762.5084                   21440759.9884
  -6317267.36347  -5521437.22744  23231879.0234                   23231877.9184
 11  7 29  1 12 30.0000000  0  9G05G12G09G04G17G02G28G10G27
 -10325560.61747  -8031049.41044  23371177.9844                   23371177.3594
 -13651998.19547 -10634226.47745  22264587.1884                   22264583.9144
  -6180823.95347  -4547730.83244  22566874.6564                   22566873.0944
 -18727476.53548 -13564309.85946  20492966.9454                   20492964.0824
   4223066.69947   3314466.92645  22332062.1334                   22332059.1334
 -19583557.00448 -15207403.71546  20620942.0634                   20620937.1644
  21541767.39146  16783250.21143  23873663.2734                   23873663.3164
 -19527014.13348 -15188159.99646  21138802.3444                   21138799.5204
  -7802468.05147  -6678736.51244  22949254.7894                   22949253.4654
 11  7 29  1 13  0.0000000  0  9G05G12G09G04G17G02G28G10G27
 -10392334.68447  -8083081.02344  23358471.6024                   23358471.0864
 -13697094.35547 -10669366.30145  22256005.4304                   22256002.3714
  -6083347.80947  -4471775.43045  22585423.9534                   22585421.9614
 -18630812.88748 -13488987.53946  20511362.0084                   20511358.8834
   4306679.80147   3379619.98445  22347972.5234                   22347970.3014
 -19571336.82048 -15197881.46146  20623267.2194                   20623262.2974
  21679385.73046  16890485.19943  23899851.4844                   23899850.6174
 -19537854.95348 -15196607.35546  21136739.4924                   21136736.7154
  -7711949.14547  -6608202.36744  22966480.0474                   22966478.6214
 11  7 29  1 13 30.0000000  0  9G05G12G09G04G17G02G28G10G27
 -10458992.19147  -8135021.80945  23345786.8914                   23345785.8134
 -13741891.43047 -10704273.07445  22247480.5704                   22247477.7304
  -5985416.31647  -4395465.20344  22604059.8284                   22604057.4454
 -18533781.82448 -13413378.92646  20529826.1094                   20529822.8524
   4390455.41047   3444899.68445  22363914.9694                   22363911.8674
 -19558711.59048 -15188043.58646  20625669.9774                   20625664.9924
  21817267.71946  16997925.61743  23926089.9384                   23926089.1134
 -19548129.94148 -15204613.80546  21134783.9064                   21134780.9064
  -7621117.00847  -6537424.12144  22983765.5004                   22983763.2114
 11  7 29  1 14  0.0000000  0  9G05G12G09G04G17G02G28G10G27
 -10525536.77347  -8186874.60945  23333123.6484                   23333122.8674
 -13786393.12947 -10738949.68745  22239012.6884                   22239009.2894
  -5887038.85847  -4318807.47844  22622780.4224                   22622778.3954
 -18436391.89148 -13337490.67246  20548358.7114                   20548356.1954
   4474387.79747   3510301.53545  22379886.4694                   22379883.6644
 -19545688.17248 -15177895.44546  20628147.9384                   20628142.8754
  21955405.25046  17105565.18043  23952377.0164                   23952375.4804
 -19557843.10248 -15212182.47346  21132935.8524                   21132933.1054
  -7529980.32447  -6466408.59044  23001107.6254                   23001106.4454
 11  7 29  1 14 30.0000000  0  9G05G12G09G04G17G02G28G10G27
 -10591958.48447  -8238631.65245  23320483.7664                   23320482.9884
 -13830589.97348 -10773388.76245  22230602.2424                   22230598.6644
  -5788211.71547  -4241799.34844  22641586.6644                   22641584.7344
 -18338638.66848 -13261319.33246  20566960.2344                   20566957.6994
   4558484.32047   3575831.30145  22395889.9614                   22395886.5824
 -19532260.02048 -15167431.92246  20630703.4534                   20630698.5234
  22093803.07446  17213407.57043  23978712.8914                   23978711.6644
 -19566985.25448 -15219306.18746  21131195.8524                   21131193.5434
  -7438534.87547  -6395152.44944  23018509.0634                   23018507.8444
 11  7 29  1 15  0.0000000  0  9G05G12G09G04G17G02G28G10G27
 -10658256.82447  -8290292.59045  23307867.6804                   23307866.6094
 -13874482.09847 -10807590.38745  22222249.6644                   22222246.4184
  -5688940.92647  -4164445.52045  22660477.2974                   22660475.3984
 -18240527.30948 -13184868.93446  20585630.5314                   20585627.5434
   4642742.57847   3641487.07845  22411923.4924                   22411920.6484
 -19518430.75848 -15156655.84046  20633335.2274                   20633330.1134
  22232456.66046  17321449.21943  24005097.8364                   24005097.0044
 -19575557.02048 -15225985.44545  21129564.8054                   21129561.8054
  -7346786.12947  -6323659.97344  23035968.2424                   23035967.3754
 11  7 29  1 15 30.0000000  0  9G05G12G09G04G17G02G28G10G27
 -10724431.40247  -8341857.07844  23295274.8134                   23295273.6414
 -13918069.19147 -10841554.32445  22213955.3524                   22213951.8674
  -5589231.43447  -4086749.84445  22679450.9774                   22679449.3014
 -18142062.15648 -13108142.84046  20604367.8134                   20604365.4694
   4727161.13347   3707267.76645  22427987.8674                   22427984.5784
 -19504202.90648 -15145569.17646  20636042.4384                   20636037.6254
  22371362.21146  17429687.19143  24031531.3054                   24031530.1914
 -19583558.16048 -15232220.06646  21128042.3134                   21128039.3404
  -7254738.71547  -6251934.78944  23053484.5864                   23053483.0234
 11  7 29  1 16  0.0000000  0  9G05G12G09G04G17G02G28G10G27
 -10790483.41447  -8393326.07445  23282705.9144                   23282704.6804
 -13961352.83247 -10875281.80545  22205718.5314                   22205715.3874
  -5489090.82447  -4008718.24245  22698507.3054                   22698505.5554
 -18043249.93448 -13031146.30946  20623171.3054                   20623168.4534
   4811736.28947   3773170.48045  22444082.1724                   22444079.2424
 -19489580.93448 -15134175.40246  20638824.8834                   20638819.7154
  22510513.05946  17538116.29743  24058010.3134                   24058010.1914
 -19590990.28148 -15238011.29346  21126627.8134                   21126625.1294
  -7162399.45747  -6179982.16844  23071055.9924                   23071054.9414
 11  7 29  1 16 30.0000000  0  9G05G12G09G04G17G02G28G10G27
 -10856400.82847  -8444690.17244  23270162.0864                   23270160.5204
 -14004321.25447 -10908763.65645  22197541.9384                   22197538.8674
  -5388513.05147  -3930345.98444  22717646.2664                   22717644.8404
 -17944083.94948 -12953874.11346  20642041.5944                   20642038.9384
   4896477.59047   3839202.66045  22460207.3674                   22460205.0274
 -19474556.59848 -15122468.09446  20641683.6414                   20641679.0084
  22649916.67246  17646742.44143  24084537.7974                   24084537.6214
 -19597842.14548 -15243350.37146  21125323.6334                   21125321.2704
  -7069762.00047  -6107797.19944  23088684.6334                   23088683.1524
 11  7 29  1 17  0.0000000  0  9G05G12G09G04G17G02G28G10G27
 -10922188.46947  -8495953.17244  23257642.9694                   23257641.5634
 -14046979.83247 -10942004.08645  22189424.1024                   22189421.2624
  -5287509.27047  -3851641.77745  22736867.4384                   22736865.5514
 -17844574.18748 -12876334.04346  20660977.6174                   20660974.9844
   4981377.92247   3905358.75845  22476363.3834                   22476360.5784
 -19459138.77348 -15110454.17246  20644617.6884                   20644612.8754
  22789563.19546  17755557.72743  24111112.4774                   24111111.3914
 -19604119.48448 -15248241.76646  21124129.2344                   21124126.4614
  -6976836.57447  -6035387.83244  23106367.6484                   23106366.6524
 11  7 29  1 17 30.0000000  0  9G05G12G09G04G17G02G28G10G27
 -10987839.88747  -8547110.01644  23245149.6094                   23245148.4144
 -14089322.23847 -10974998.14845  22181366.7424                   22181363.3954
  -5186079.04747  -3772605.28544  22756168.8754                   22756166.6024
 -17744719.46548 -12798525.17246  20679979.4924                   20679976.8014
   5066441.51647   3971642.08245  22492550.7274                   22492548.0164
 -19443323.39848 -15098130.46546  20647627.3984                   20647622.4614
  22929454.16046  17864563.55942  24137732.3054                   24137731.8524
 -19609816.19948 -15252680.73046  21123045.0864                   21123042.5084
  -6883622.14147  -5962753.26244  23124105.7504                   23124104.9694
 11  7 29  1 18  0.0000000  0  9G05G12G09G04G17G02G28G10G27
 -11053352.23847  -8598158.49244  23232682.9614                   23232681.6414
 -14131345.92248 -11007743.85945  22173369.9924                   22173366.8054
  -5084225.66447  -3693239.05144  22775550.1804                   22775549.1954
 -17644521.94148 -12720449.18746  20699046.6334                   20699043.8834
   5151668.73447   4038052.88745  22508769.2114                   22508765.8524
 -19427111.44148 -15085497.73446  20650712.1644                   20650707.3954
  23069587.48845  17973758.20742  24164398.9774                   24164398.5594
 -19614930.24648 -15256665.66846  21122072.0314                   21122069.1564
  -6790121.44147  -5889895.62944  23141898.6334                   23141897.4304
 11  7 29  1 18 30.0000000  0  9G05G12G09G04G17G02G28G10G27
 -11118725.47347  -8649098.56244  23220242.9384                   23220241.7814
 -14173051.57847 -11040241.75845  22165433.3204                   22165430.0824
  -4981955.33247  -3613547.94144  22795011.9614                   22795010.5354
 -17543987.50048 -12642110.66446  20718177.4144                   20718174.6134
   5237056.74247   4104588.98045  22525017.8054                   22525014.6414
 -19410506.64548 -15072558.89546  20653872.0944                   20653867.0474
  23209958.32446  18083137.99242  24191110.4694                   24191110.8244
 -19619462.69948 -15260197.41446  21121209.6564                   21121207.1374
  -6696340.04347  -5816819.28144  23159744.7114                   23159743.6214
 11  7 29  1 19  0.0000000  0  9G05G12G09G04G17G02G28G10G27
 -11183956.55147  -8699927.85544  23207829.7814                   23207828.4454
 -14214436.40648 -11072489.65645  22157558.6564                   22157555.2274
  -4879270.84847  -3533534.09845  22814551.9844                   22814550.8674
 -17443117.85948 -12563510.94546  20737372.4774                   20737369.5864
   5322606.56647   4171251.17645  22541297.4924                   22541294.4184
 -19393509.40648 -15059314.26246  20657106.6094                   20657101.4494
  23350565.020 6                  24217867.813
 -19623410.69948 -15263273.74246  21120458.0634                   21120455.4694
  -6602280.39547  -5743526.10544  23177643.2114                   23177642.3094
 11  7 29  1 19 30.0000000  0  9G05G12G09G04G17G02G28G10G27
 -11249043.11747  -8750644.56644  23195443.8364                   23195442.6994
 -14255498.15647 -11104485.80145  22149744.9844                   22149741.4224
  -4776176.37147  -3453200.78944  22834170.7894                   22834169.1484
 -17341916.24248 -12484652.54746  20756630.5004                   20756627.6914
   5408317.93447   4238039.25445  22557607.7424                   22557604.5204
 -19376120.91048 -15045764.75446  20660415.3054                   20660410.3834
  23491404.969 6                  24244668.609
 -19626773.31648 -15265893.92646  21119818.2034                   21119815.8134
  -6507945.72347  -5670018.62944  23195594.7034                   23195593.9264
 11  7 29  1 20  0.0000000  0  9G05G12G09G04G17G02G28G10G27
 -11313979.43047  -8801244.16445  23183087.4534                   23183085.7384
 -14296231.78947 -11136226.28145  22141992.9454                   22141989.5824
  -4672672.32447  -3372548.34444  22853866.7274                   22853865.6644
 -17240381.96948 -12405534.93746  20775951.9534                   20775949.0554
   5494194.48847   4304956.03945  22573949.4224                   22573946.5124
 -19358339.10948 -15031908.78146  20663798.9694                   20663794.0984
  23632478.637 6                  24271514.000
 -19629545.28148 -15268053.86346  21119290.6414                   21119288.0434
  -6413335.87547  -5596296.73044  23213598.5864                   23213597.8834
 11  7 29  1 20 30.0000000  0  9G05G12G09G04G17G02G28G10G27
 -11378762.53547  -8851724.38745  23170758.9144                   23170757.9574
 -14336634.78547 -11167709.10546  22134304.7424                   22134301.3874
  -4568761.93747  -3291579.26244  22873640.2034                   22873639.3404
 -17138517.59848 -12326160.11346  20795336.1174                   20795333.2464
   5580236.46947   4372001.71945  22590322.6174                   22590319.8914
 -19340164.69548 -15017746.85946  20667257.8674                   20667252.7664
  23773783.918 6                  24298403.883
 -19631724.30948 -15269751.77746  21118875.8364                   21118873.0984
  -6318453.69947  -5522362.63744  23231654.2974                   23231653.5514
 11  7 29  1 21  0.0000000  0  8G05G12G09G04G17G02G10G27
 -11443392.31247  -8902085.14545  23158460.4384                   23158458.9734
 -14376706.87548 -11198934.08245  22126679.1884                   22126675.8834
  -4464450.91447  -3210298.00844  22893489.6884                   22893489.0514
 -17036328.07848 -12246531.92646  20814781.7344                   20814779.2624
   5666442.00047   4439174.85245  22606727.3134                   22606724.2114
 -19321600.69548 -15003281.38746  20670790.1094                   20670785.2154
 -19633311.01648 -15270988.14146  21118574.2814                   21118571.7344
  -6223304.45347  -5448220.42644  23249760.3524                   23249759.6484
 11  7 29  1 21 30.0000000  0  8G05G12G09G04G17G02G10G27
 -11507866.48047  -8952324.64145  23146191.1954                   23146190.1134
 -14416446.51648 -11229900.00845  22119117.0554                   22119113.7544
  -4359743.45347  -3128707.82844  22913415.3834                   22913413.4534
 -16933816.47748 -12166652.76646  20834289.4454                   20834286.6094
   5752810.68047   4506475.09845  22623162.5864                   22623159.6054
 -19302648.52748 -14988513.44946  20674396.8754                   20674391.7934
 -19634304.48448 -15271762.24246  21118384.8984                   21118381.9654
  -6127891.52347  -5373872.75444  23267916.5314                   23267916.0004
 11  7 29  1 22  0.0000000  0  8G05G12G09G04G17G02G10G27
 -11572174.32847  -9002434.53545  23133953.5084                   23133952.2624
 -14455842.89547 -11260598.44946  22111620.2344                   22111617.0594
  -4254635.02747  -3046805.21144  22933417.4224                   22933415.9304
 -16830977.41848 -12086518.44546  20853858.8594                   20853856.1604
   5839350.99647   4573909.09445  22639630.3834                   22639628.0634
 -19283301.31648 -14973437.69946  20678078.2974                   20678073.1564
 -19634695.05148 -15272066.54746  21118310.7504                   21118308.3554
  -6032209.79347  -5299315.62544  23286124.4304                   23286123.9614
 11  7 29  1 22 30.0000000  0  8G05G12G09G04G17G02G10G27
 -11636308.68747  -9052409.24645  23121749.3444                   23121748.2344
 -14494889.85947 -11291024.62546  22104189.5394                   22104186.4774
  -4149124.80547  -2964589.50844  22953494.9924                   22953493.6884
 -16727808.99648 -12006127.48446  20873491.2734                   20873488.7504
   5926067.44947   4641480.34045  22656132.2734                   22656129.6174
 -19263555.22348 -14958051.10946  20681835.8284                   20681830.9344
 -19634476.14848 -15271895.94146  21118352.2584                   21118350.0984
  -5936257.52347  -5224547.68744  23304383.7344                   23304382.7424
 11  7 29  1 23  0.0000000  0  8G05G12G09G04G17G02G10G27
 -11700267.29747  -9102247.00845  23109578.0394                   23109576.8014
 -14533585.49647 -11321177.03546  22096826.3984                   22096822.7154
  -4043217.00447  -2882064.00044  22973648.0634                   22973646.8164
 -16624314.28148 -11925482.27046  20893185.7194                   20893183.2774
   6012959.98447   4709188.79745  22672666.9384                   22672664.6994
 -19243411.80948 -14942354.92646  20685669.1254                   20685663.7584
 -19633646.66848 -15271249.56646  21118510.2344                   21118507.2974
  -5840038.34047  -5149571.77344  23322693.8134                   23322692.7854
 11  7 29  1 23 30.0000000  0  8G05G12G09G04G17G02G10G27
 -11764051.92647  -9151949.18045  23097440.0394                   23097438.9104
 -14571931.75048 -11351057.19946  22089529.6484                   22089525.9184
  -3936919.19547  -2799234.59444  22993875.8594                   22993874.6604
 -16520500.28948 -11844588.25846  20912940.8754                   20912938.1994
   6100024.63347   4777031.36345  22689235.1884                   22689232.4344
 -19222876.44148 -14926353.32046  20689576.8364                   20689571.7074
 -19632209.04748 -15270129.31246  21118783.9224                   21118780.9304
  -5743559.41447  -5074393.44544  23341052.8054                   23341052.5084
 11  7 29  1 24  0.0000000  0  8G05G12G09G04G17G02G10G27
 -11827655.34447  -9201510.17645  23085336.8674                   23085335.7304
 -14609921.79348 -11380659.80146  22082299.7664                   22082296.2664
  -3830230.26647  -2716100.42244  23014178.8444                   23014177.2154
 -16416365.13748 -11763444.00846  20932757.3204                   20932754.6454
   6187265.96147   4845011.60245  22705836.5314                   22705834.0164
 -19201945.43048 -14910043.41846  20693559.7894                   20693554.5314
 -19630157.21148 -15268530.44946  21119173.9694                   21119171.4414
  -5646819.23447  -4999011.54744  23359461.9924                   23359461.3484
 11  7 29  1 24 30.0000000  0  8G05G12G09G04G17G02G10G27
 -11891084.67647  -9250935.50045  23073266.8524                   23073265.0594
 -14647562.95748 -11409990.54746  22075137.0634                   22075133.7234
  -3723163.96147  -2632672.18744  23034552.2584                   23034551.3284
 -16311921.02348 -11682058.99246  20952632.1334                   20952629.3324
   6274674.58247   4913122.19945  22722469.9614                   22722467.0634
 -19180629.82048 -14893433.81646  20697615.9694                   20697610.8714
 -19627499.42248 -15266459.42246  21119679.5554                   21119677.1094
  -5549830.82847  -4923436.24644  23377918.3364                   23377917.6454
 11  7 29  1 25  0.0000000  0  8G05G12G09G04G17G02G10G27
 -11954325.48847  -9300213.95345  23061232.0084                   23061230.2304
 -14684841.60948 -11439038.82446  22068042.8204                   22068039.5204
  -3615712.22347  -2548943.60244  23055000.3984                   23054998.7114
 -16207159.32448 -11600426.52046  20972567.7274                   20972564.8794
   6362262.18847   4981372.25845  22739137.2894                   22739134.6024
 -19158918.85248 -14876516.15646  20701747.4694                   20701742.3134
 -19624222.51648 -15263905.96546  21120303.4774                   21120300.7664
  -5452585.45347  -4847660.69144  23396423.3054                   23396423.1954
 11  7 29  1 25 30.0000000  0  8G05G12G09G04G17G02G10G27
 -12017384.15647  -9349350.46145  23049232.7894                   23049230.8794
 -14721764.39148 -11467809.79346  22061016.8134                   22061013.5204
  -3507887.55947  -2464924.43044  23075518.6954                   23075516.7154
 -16102091.25448 -11518555.30946  20992561.3984                   20992558.5204
   6450020.10547   5049755.02745  22755837.3914                   22755834.3404
 -19136822.46548 -14859298.18746  20705952.2664                   20705946.8594
 -19620333.68448 -15260875.69546  21121043.5084                   21121040.9344
  -5355094.91447  -4771694.10544  23414975.8754                   23414974.9574
 11  7 29  1 26  0.0000000  0  8G05G12G09G04G17G02G10G27
 -12080254.86747  -9398340.52345  23037268.5314                   23037266.4304
 -14758325.59848 -11496299.02746  22054059.3674                   22054056.3164
  -3399690.35547  -2380614.98044  23096107.3284                   23096106.4844
 -15996716.18048 -11436444.87546  21012613.8834                   21012610.9804
   6537951.95347   5118273.32445  22772569.7504                   22772567.5824
 -19114338.18048 -14841777.93046  20710230.7194                   20710225.6994
 -19615828.32048 -15257365.00846  21121900.6804                   21121897.8754
  -5257358.84046  -4695536.19144  23433573.9534                   23433573.3164
 11  7 29  1 26 30.0000000  0  8G05G12G09G04G17G02G10G27
 -12142941.21547  -9447186.92645  23025339.8134                   23025338.0004
 -14794529.52048 -11524509.85546  22047169.9844                   22047166.3054
  -3291130.43447  -2296022.87944  23116766.1174                   23116764.5314
 -15891043.10248 -11354102.22746  21032722.6644                   21032720.0434
   6626051.66447   5186922.42645  22789334.6724                   22789332.4304
 -19091473.79748 -14823961.51646  20714582.0084                   20714576.6914
 -19610710.94148 -15253377.41846  21122874.6254                   21122871.9534
  -5159386.85946  -4619194.46544  23452217.8984                   23452217.0434
 11  7 29  1 27  0.0000000  0  8G05G12G09G04G17G02G10G27
 -12205431.63747  -9495880.66845  23013448.1024                   23013446.6724
 -14830364.93448 -11552433.55146  22040350.9224                   22040347.5634
  -3182202.53947  -2211144.06244  23137494.4844                   23137493.2464
 -15785065.76648 -11271522.48846  21052889.5944                   21052887.1724
   6714328.36747   5255709.44145  22806133.4844                   22806130.7774
 -19068221.21548 -14805842.61346  20719006.5554                   20719001.6804
 -19604971.19148 -15248904.85946  21123966.6174                   21123964.0084
  -5061173.09446  -4542664.33244  23470907.7504                   23470906.4574
 11  7 29  1 27 30.0000000  0  8G05G12G09G04G17G02G10G27
 -12267724.25847  -9544420.28545  23001594.5314                   23001592.1524
 -14865830.66048 -11580069.17246  22033601.8914                   22033598.4774
  -3072911.48046  -2125982.25844  23158291.5314                   23158290.3284
 -15678787.75448 -11188708.46146  21073113.6254                   21073110.8874
   6802781.16847   5324633.68445  22822965.5004                   22822962.9384
 -19044582.97748 -14787423.21546  20723505.1334                   20723499.5824
 -19598608.87548 -15243947.18446  21125177.5704                   21125174.2504
  -4962721.50046  -4465948.88744  23489641.6884                   23489641.1374
 11  7 29  1 28  0.0000000  0  8G05G12G09G04G17G02G10G27
 -12329818.50947  -9592805.33245  22989778.0634                   22989775.8404
 -14900926.02348 -11607416.21146  22026923.4844                   22026920.1334
  -2963262.87947  -2040541.85444  23179156.9774                   23179156.0594
 -15572213.65648 -11105663.71946  21093393.7894                   21093391.1294
   6891408.71147   5393694.07345  22839830.9614                   22839828.1604
 -19020561.39048 -14768705.07246  20728076.1484                   20728070.7234
 -19591624.35948 -15238504.68046  21126506.3284                   21126503.8874
  -4864036.84446  -4389051.81244  23508421.1724                   23508420.1684
 11  7 29  1 28 30.0000000  0  8G05G12G09G04G17G02G10G27
 -12391718.34847  -9641038.88345  22977998.6414                   22977997.1954
 -14935655.65247 -11634478.27046  22020314.5164                   22020311.4654
  -2853266.82847  -1954830.69944  23200088.8444                   23200087.5904
 -15465352.90248 -11022395.59446  21113728.7034                   21113726.1804
   6980204.52047   5462885.59045  22856728.2274                   22856725.3794
 -18996164.23048 -14749694.28146  20732718.6094                   20732713.5474
 -19584023.03948 -15232581.55146  21127953.1414                   21127950.6054
  -4765128.91046  -4311980.77044  23527242.1094                   23527241.8754
 11  7 29  1 29  0.0000000  0  8G05G12G09G04G17G02G10G27
 -12453418.17247  -9689116.57045  22966257.3054                   22966255.6604
 -14970014.44548 -11661251.35246  22013776.5394                   22013773.0434
  -2742924.27347  -1868849.53544  23221086.1174                   23221084.9694
 -15358204.87148 -10938903.62546  21134118.1954                   21134115.7934
   7069171.34047   5532210.36745  22873657.5864                   22873655.1764
 -18971390.19548 -14730389.82047  20737432.6174                   20737427.3914
 -19575800.76648 -15226174.55946  21129517.7424                   21129514.6884
  -4665997.88346  -4234735.87944  23546106.8284                   23546106.2074
 11  7 29  1 29 30.0000000  0  8G05G12G09G04G17G02G10G27
 -12514906.53147  -9737029.47345  22954556.6484                   22954555.2114
 -15003991.27048 -11687726.79746  22007310.8444                   22007307.2544
  -2632230.12547  -1782594.42244  23242150.7274                   23242149.8874
 -15250763.42648 -10855183.02046  21154563.7274                   21154561.1054
   7158318.61747   5601675.76645  22890622.1564                   22890619.3444
 -18946231.11748 -14710785.34046  20742220.3984                   20742215.4964
 -19566946.97748 -15219275.48046  21131202.1484                   21131199.6484
  -4566637.89447  -4157312.56844  23565014.2424                   23565013.5434
 11  7 29  1 30  0.0000000  0  8G05G12G09G04G17G02G10G27
 -12576185.62147  -9784779.32045  22942895.4924                   22942893.9454
 -15037588.77347 -11713906.65646  22000917.3524                   22000914.3794
  -2521192.99247  -1696072.04744  23263280.1884                   23263279.1994
 -15143036.05148 -10771239.60246  21175063.5234                   21175060.7774
   7247641.45347   5671277.96145  22907619.6804                   22907617.2034
 -18920693.31648 -14690885.74646  20747080.2894                   20747074.6454
 -19557465.23048 -15211887.07046  21133006.7194                   21133003.9884
  -4467056.84447  -4079717.01244  23583964.5314                   23583963.5514
 11  7 29  1 30 30.0000000  0  8G05G12G09G04G17G02G10G27
 -12637255.25447  -9832365.94145  22931274.2734                   22931272.6484
 -15070807.06248 -11739791.02746  21994596.0864                   21994592.6914
  -2409818.64547  -1609286.90244  23284474.1484                   23284473.5354
 -15035027.83248 -10687077.35946  21195617.0164                   21195614.4384
   7337137.77047   5741015.33245  22924650.5234                   22924647.4454
 -18894780.09848 -14670693.62146  20752011.5474                   20752006.2384
 -19547356.48448 -15204010.10246  21134930.4534                   21134927.4924
  -4367260.26247  -4001953.52744  23602955.1564                   23602954.4224
 11  7 29  1 31  0.0000000  0  8G05G12G09G04G17G02G10G27
 -12698112.12147  -9879786.77345  22919693.5554                   22919691.9024
 -15103643.55547 -11765377.88746  21988347.8134                   21988344.3134
  -2298110.22747  -1522241.44144  23305731.5554                   23305730.7854
 -14926740.74648 -10602697.80946  21216223.3674                   21216220.5164
   7426808.56347   5810888.66845  22941713.6024                   22941711.3444
 -18868492.01248 -14650209.39546  20757013.6644                   20757008.8834
 -19536619.09448 -15195643.26646  21136973.6414                   21136970.8134
  -4267250.37947  -3924023.80544  23621986.2894                   23621985.1604
 11  7 29  1 31 30.0000000  0  8G05G12G09G04G17G02G10G27
 -12758756.00447  -9927041.64545  22908153.0164                   22908151.5234
 -15136098.59047 -11790667.49646  21982171.3524                   21982168.5084
  -2186074.39847  -1434940.87144  23327051.1644                   23327050.6684
 -14818180.05948 -10518105.06246  21236881.5004                   21236879.1954
   7516651.21947   5880895.92645  22958811.1094                   22958808.0004
 -18841832.90648 -14629436.05946  20762087.0704                   20762081.8594
 -19525254.66048 -15186787.82846  21139136.2194                   21139133.7344
  -4167033.12546  -3845932.48844  23641057.1414                   23641056.2854
 11  7 29  1 32  0.0000000  0  8G05G12G09G04G17G02G10G27
 -12819184.85247  -9974128.94945  22896654.2344                   22896652.2894
 -15168170.07848 -11815658.25046  21976068.6094                   21976065.0944
  -2073715.00847  -1347388.16844  23348433.1884                   23348432.0044
 -14709348.55948 -10433301.30146  21257591.4304                   21257589.1294
   7606665.72747   5951037.09845  22975940.0084                   22975937.0314
 -18814804.12148 -14608374.65646  20767230.2274                   20767224.8834
 -19513261.98448 -15177442.84846  21141418.0554                   21141415.3524
  -4066611.77346  -3767682.15644  23660166.4614                   23660165.8554
 11  7 29  1 32 30.0000000  0  8G05G12G09G04G17G02G10G27
 -14454823.42647 -11248652.40645  22585401.9924                   22585400.3404
 -16775282.49048 -13067953.60946  21670245.1644                   21670241.5944
  -3536457.41847  -2487187.51644  23070082.9844                   23070081.4304
 -16175670.64648 -11575889.93946  20978559.8754                   20978557.3714
   6121429.68447   4793710.30145  22693308.9534                   22693305.5554
 -20362831.44548 -15814629.70747  20472650.2034                   20472645.1374
 -21076064.88948 -16395211.31946  20844026.7424                   20844023.7774
  -5541411.57946  -4916876.86144  23379521.5314                   23379520.8834
 11  7 29  1 33  0.0000000  0  8G05G12G09G04G17G02G10G27
 -14514813.21947 -11295397.60545  22573986.4304                   22573984.3364
 -16806579.50048 -13092340.85946  21664289.6484                   21664286.1994
  -3423461.29747  -2399138.64544  23091584.9224                   23091583.8914
 -16066304.57448 -11490669.63346  20999371.3984                   20999368.9734
   6211789.23047   4864120.33645  22710503.7274                   22710501.0664
 -20335066.25848 -15792994.49246  20477933.8204                   20477928.6094
 -21062811.51648 -16384883.98046  20846548.4694                   20846545.8284
  -5440590.64146  -4838315.15644  23398707.0164                   23398706.5824
 11  7 29  1 33 30.0000000  0  8G05G12G09G04G17G02G10G27
 -14574575.91447 -11341965.83245  22562613.4614                   22562612.4184
 -16837482.69147 -13116421.23046  21658408.8134                   21658405.3364
  -3310149.15647  -2310843.53944  23113147.5234                   23113146.6804
 -15956671.68448 -11405241.40646  21020234.0944                   21020231.4804
   6302325.12547   4934667.77345  22727731.6094                   22727729.3284
 -20306931.00448 -15771070.90646  20483287.8524                   20483282.6724
 -21048922.51248 -16374061.35246  20849191.8834                   20849189.0744
  -5339571.11746  -4759598.69544  23417930.0474                   23417930.2504
 11  7 29  1 34  0.0000000  0  8G05G12G09G04G17G02G10G27
 -14634110.32847 -11388356.18745  22551285.0314                   22551282.9064
 -16867991.22348 -13140194.08246  21652603.0234                   21652599.4064
  -3196525.84446  -2222305.96544  23134769.3754                   23134768.2464
 -15846775.84848 -11319608.29346  21041146.4304                   21041144.1024
   6393036.24647   5005351.76645  22744993.8984                   22744990.9734
 -20278428.47348 -15748861.11746  20488711.5944                   20488706.9104
 -21034398.47748 -16362743.89146  20851955.4844                   20851952.7424
  -5238357.45746  -4680730.96944  23437190.9304                   23437190.7344
 11  7 29  1 34 30.0000000  0  8G05G12G09G04G17G02G10G27
 -14693414.73847 -11434567.30945  22539999.5634                   22539997.6844
 -16898103.34048 -13163658.03146  21646872.9534                   21646869.3244
  -3082595.69547  -2133529.28544  23156449.9694                   23156448.4964
 -15736620.35948 -11233772.85946  21062108.3444                   21062105.9024
   6483922.10947   5076171.91045  22762288.7274                   22762285.9614
 -20249560.46948 -15726366.55546  20494205.1954                   20494199.8984
 -21019238.72748 -16350931.07046  20854840.3834                   20854837.3594
  -5136953.38347  -4601714.86744  23456487.4614                   23456487.5394
 11  7 29  1 35  0.0000000  0  8G05G12G09G04G17G02G10G27
 -14752484.29347 -11480595.42245  22528758.7424                   22528757.0744
 -16927815.40248 -13186810.25046  21641219.1094                   21641215.1454
  -2968360.45747  -2044514.87944  23178187.6094                   23178187.0944
 -15626205.92648 -11147735.64146  21083119.4694                   21083116.6454
   6574984.30947   5147129.46945  22779617.4614                   22779614.3054
 -20220326.34048 -15703586.70746  20499768.6174                   20499763.0634
 -21003440.49648 -16338620.73846  20857846.5864                   20857843.8754
  -5035360.01246  -4522551.24244  23475820.6884                   23475819.4844
 11  7 29  1 35 30.0000000  0  8G05G12G09G04G17G02G10G27
 -14811315.86347 -11526438.11345  22517563.5314                   22517561.3324
 -16957124.48047 -13209648.45746  21635641.7194                   21635638.3284
  -2853823.53147  -1955265.39544  23199983.6484                   23199982.3554
 -15515534.53948 -11061498.20746  21104179.6884                   21104177.3284
   6666224.36347   5218225.59445  22796979.7664                   22796976.9574
 -20190726.48048 -15680521.86346  20505400.7894                   20505395.5124
 -20987002.01248 -16325811.50446  20860974.8364                   20860971.8594
  -4933579.89846  -4443242.11344  23495188.1644                   23495187.6764
 11  7 29  1 36  0.0000000  0  8G05G12G09G04G17G02G10G27
 -14869913.93047 -11572098.84845  22506412.6644                   22506411.0044
 -16986035.40648 -13232176.41446  21630139.8984                   21630136.3954
  -2738995.78947  -1865789.28544  23221834.1484                   23221833.3554
 -15404615.82848 -10975068.05146  21125286.6254                   21125284.0984
   6757635.59047   5289455.09445  22814374.5944                   22814372.0824
 -20160769.44148 -15657178.70346  20511101.6644                   20511096.1294
 -20969929.62548 -16312508.31246  20864223.2894                   20864220.5354
  -4831623.28546  -4363795.45744  23514589.1884                   23514589.5554
 11  7 29  1 36 30.0000000  0  9G05G12G09G04G17G02G25G10G27
 -14928267.39547 -11617568.98445  22495307.8754                   22495306.3444
 -17014537.82048 -13254386.05546  21624716.3674                   21624712.8754
  -2623872.76247  -1776083.10244  23243741.8754                   23243740.9884
 -15293443.82448 -10888440.52046  21146441.8054                   21146439.6254
   6849225.62947   5360823.93045  22831803.9844                   22831801.5784
 -20130448.10548 -15633551.67246  20516871.2194                   20516866.1054
  -7992742.30957  -6222563.53554  24550497.2424                   24550498.4104
 -20952214.15648 -16298704.03146  20867594.7664                   20867591.7384
  -4729484.80546  -4284207.10544  23534026.0944                   23534026.0594
 11  7 29  1 37  0.0000000  0  9G05G12G09G04G17G02G25G10G27
 -14986382.99247 -11662853.76245  22484249.1804                   22484247.2114
 -17042638.29748 -13276282.49646  21619368.3204                   21619365.3164
  -2508467.17647  -1686156.72344  23265702.8984                   23265701.8954
 -15182030.44948 -10801624.91446  21167643.0554                   21167640.6294
   6940985.88747   5432325.41845  22849264.8524                   22849262.7304
 -20099772.80148 -15609648.83246  20522708.6644                   20522703.7154
  -8055433.15247  -6271413.52344  24538568.2194                   24538568.3444
 -20933863.32848 -16284404.65646  20871086.5864                   20871084.0634
  -4627176.81646  -4204486.65244  23553494.2974                   23553494.9224
 11  7 29  1 37 30.0000000  0  9G05G12G09G04G17G02G25G10G27
 -15044261.10947 -11707953.51245  22473234.7664                   22473233.4344
 -17070338.36748 -13297866.93746  21614097.6484                   21614094.1174
  -2392786.01647  -1596015.61344  23287716.0084                   23287715.2464
 -15070381.44148 -10714625.69946  21188889.3054                   21188886.9694
   7032913.64147   5503957.39845  22866757.7504                   22866755.7624
 -20068747.90648 -15585473.57046  20528612.6174                   20528607.5474
  -8117988.60247  -6320157.98444  24526663.9064                   24526664.3204
 -20914879.72748 -16269612.21546  20874699.0864                   20874695.8754
  -4524705.66846  -4124639.07043  23572994.5164                   23572994.0904
 11  7 29  1 38  0.0000000  0  9G05G12G09G04G17G02G25G10G27
 -15101894.54347 -11752862.57045  22462268.2584                   22462266.0164
 -17097631.25048 -13319134.08246  21608903.9224                   21608900.3524
  -2276828.37547  -1505659.06644  23309782.2194                   23309781.3914
 -14958494.68048 -10627441.22346  21210180.8524                   21210178.3404
   7125013.55947   5575723.53545  22884284.2734                   22884281.6174
 -20037370.35548 -15561023.51646  20534583.6564                   20534578.2154
  -8180401.93846  -6368791.70743  24514787.0554                   24514787.4844
 -20895258.09448 -16254322.60546  20878432.6724                   20878429.8554
  -4422069.81346  -4044663.15244  23592525.6724                   23592525.3094
 11  7 29  1 38 30.0000000  0  9G05G12G09G04G17G02G25G10G27
 -15159282.88347 -11797580.68045  22451347.2734                   22451345.2074
 -17124516.96548 -13340083.96946  21603787.7584                   21603784.0204
  -2160600.20347  -1415091.72344  23331900.0704                   23331898.7774
 -14846375.07848 -10540075.31246  21231516.5864                   21231513.8874
   7217283.34447   5647622.03545  22901843.2894                   22901840.1954
 -20005643.37548 -15536301.18446  20540621.0084                   20540615.9694
  -8242673.34046  -6417314.82843  24502937.4224                   24502937.8094
 -20874999.47348 -16238536.64146  20882287.8594                   20882285.0784
  -4319274.66046  -3964563.08243  23612086.7734                   23612086.6724
 11  7 29  1 39  0.0000000  0  9G05G12G09G04G17G02G25G10G27
 -15216422.94547 -11842105.31245  22440474.0234                   22440471.9024
 -17150992.85248 -13360714.49646  21598749.3984                   21598746.2234
  -2044104.84847  -1324316.15644  23354068.2814                   23354067.3954
 -14734024.53948 -10452529.44546  21252896.0864                   21252893.2424
   7309723.78147   5719653.50045  22919433.8134                   22919431.1024
 -19973567.85948 -15511307.25846  20546724.4844                   20546719.7304
  -8304800.15246  -6465725.28543  24491114.4384                   24491115.0984
 -20854102.88348 -16222253.55546  20886264.5314                   20886261.6374
  -4216322.78146  -3884340.90244  23631678.0784                   23631677.6954
 11  7 29  1 39 30.0000000  0  9G05G12G09G04G17G02G25G10G27
 -15273306.39847 -11886430.00045  22429649.2344                   22429647.2894
 -17177050.80148 -13381019.36746  21593790.8134                   21593787.3954
  -1927340.14547  -1233330.72744  23376287.1724                   23376286.8054
 -14621439.60948 -10364800.94146  21274320.5864                   21274317.6564
   7402341.19547   5791822.89545  22937058.1884                   22937055.6804
 -19941138.93748 -15486037.95346  20552895.7894                   20552890.6684
  -8366774.18446  -6514016.65243  24479321.2974                   24479321.3874
 -20832561.23048 -16205467.82846  20890363.5704                   20890360.5594
  -4113211.41446  -3803994.44943  23651299.4534                   23651299.4184
 11  7 29  1 40  0.0000000  0  9G05G12G09G04G17G02G25G10G27
 -15329940.66447 -11930560.51645  22418872.1174                   22418869.6954
 -17202698.57448 -13401004.62146  21588909.8834                   21588906.7704
  -1810319.92247  -1142146.18444  23398555.7894                   23398555.4024
 -14508632.94548 -10276899.66045  21295786.5314                   21295783.9024
   7495125.80547   5864122.55145  22954714.9534                   22954711.6254
 -19908368.46148 -15460502.49646  20559131.8134                   20559126.5044
  -8428603.52946  -6562195.36943  24467555.3364                   24467555.5944
 -20810384.05548 -16188186.88746  20894583.5704                   20894580.8014
  -4009953.69946  -3723533.94143  23670948.8054                   23670948.2194
 11  7 29  1 40 30.0000000  0  9G05G12G09G04G17G02G25G10G27
 -15386310.60947 -11974485.07045  22408144.8914                   22408143.1644
 -17227922.37948 -13420659.51646  21584110.2504                   21584107.0474
  -1693035.70347  -1050755.93744  23420874.3674                   23420873.6054
 -14395594.90248 -10188818.07446  21317297.0004                   21317294.4774
   7588089.78147   5936561.98045  22972405.1564                   22972401.9144
 -19875245.06248 -15434692.04746  20565434.9454                   20565429.4964
  -8490273.55946  -6610249.84443  24455819.6094                   24455819.9884
 -20787558.39848 -16170400.63346  20898927.6414                   20898924.7074
  -3906540.29346  -3642952.10543  23690628.3834                   23690627.2194
 11  7 29  1 41  0.0000000  0  9G05G12G09G04G17G02G25G10G27
 -15442414.41047 -12018202.25445  22397468.7274                   22397466.8134
 -17252720.69148 -13439982.86346  21579391.4144                   21579387.8054
  -1575492.05547   -959163.53944  23443242.7194                   23443241.8754
 -14282328.52748 -10100558.57046  21338851.1564                   21338848.3874
   7681232.73447   6009140.86745  22990129.8754                   22990127.4454
 -19841770.71948 -15408608.13746  20571804.8054                   20571799.6764
  -8551782.94547  -6658179.16443  24444115.1564                   24444115.5124
 -20764084.26248 -16152109.07846  20903394.8054                   20903391.8794
  -3802975.04346  -3562251.96143  23710335.4454                   23710334.9694
 11  7 29  1 41 30.0000000  0  9G05G12G09G04G17G02G25G10G27
 -15498254.80947 -12061714.17645  22386842.7344                   22386840.6094
 -17277096.37948 -13458976.88346  21574752.8524                   21574749.5434
  -1457697.81647   -867375.86344  23465658.0004                   23465656.7274
 -14168841.72748 -10012127.31246  21360446.9614                   21360444.7034
   7774549.12947   6081854.91445  23007886.9924                   23007884.5004
 -19807952.18048 -15382256.01646  20578240.0634                   20578234.6334
  -8613134.73047  -6705985.66043  24432440.1334                   24432440.3594
 -20739966.08648 -16133315.66846  20907983.9304                   20907980.9414
  -3699266.52746  -3481440.18043  23730070.6174                   23730070.6684
 11  7 29  1 42  0.0000000  0  9G05G12G09G04G17G02G25G10G27
 -15553826.79747 -12105016.95345  22376267.6884                   22376265.0744
 -17301045.37548 -13477638.42246  21570195.5004                   21570192.1334
  -1339654.71547   -775394.27044  23488120.8204                   23488120.1684
 -14055134.60248  -9923524.37146  21382084.7734                   21382081.9494
   7868041.71547   6154706.25445  23025678.3674                   23025675.4614
 -19773788.50848 -15355634.95746  20584741.3054                   20584736.4064
  -8674324.60247  -6753666.02043  24420795.5704                   24420796.3204
 -20715201.16048 -16114018.30546  20912696.3674                   20912693.5944
  -3595415.60546  -3400517.41843  23749832.9454                   23749832.7464
 11  7 29  1 42 30.0000000  0  9G05G12G09G04G17G02G25G10G27
 -15609126.15647 -12148107.28545  22365744.7194                   22365742.0234
 -17324563.56648 -13495964.27046  21565720.0394                   21565716.9654
  -1221364.50447   -683220.12144  23510631.0864                   23510630.0984
 -13941207.86748  -9834750.30946  21403764.1884                   21403761.7974
   7961712.70747   6227696.60945  23043503.3524                   23043501.0314
 -19739279.12548 -15328744.52046  20591308.0944                   20591303.0984
  -8735348.47347  -6801216.96943  24409183.3984                   24409183.9414
 -20689786.54348 -16094214.68446  20917532.6094                   20917529.8754
  -3491423.43846  -3319484.61744  23769622.8444                   23769621.8364
 11  7 29  1 43  0.0000000  0  9G05G12G09G04G17G02G25G10G27
 -15664144.56647 -12190978.70345  22355274.5164                   22355272.1024
 -17347643.27348 -13513948.43746  21561328.3914                   21561324.7934
  -1102825.78147   -590852.35244  23533187.8444                   23533187.0354
 -13827058.62148  -9745802.85946  21425486.3594                   21425483.7384
   8055567.72347   6300830.36345  23061364.2584                   23061361.0204
 -19704419.95748 -15301581.52346  20597941.7034                   20597936.6094
  -8796198.64547  -6848632.60944  24397604.3984                   24397604.2114
 -20663716.77748 -16073900.56246  20922493.3284                   20922490.7704
  -3387287.82046  -3238340.03143  23789438.4384                   23789438.5354
 11  7 29  1 43 30.0000000  0  9G05G12G09G04G17G02G25G10G27
 -15718895.28947 -12233641.53145  22344855.3834                   22344853.7344
 -17370298.32847 -13531601.71546  21557017.0554                   21557013.4494
   -984057.81347   -498305.91844  23555788.8134                   23555788.4774
 -13712705.04348  -9656696.19546  21447246.7274                   21447244.1254
   8149591.16847   6374095.37945  23079255.4304                   23079252.6804
 -19669227.77748 -15274159.03946  20604638.5004                   20604633.2584
  -8856888.66046  -6895923.43444  24386055.4304                   24386055.3404
 -20637006.80148 -16053087.56646  20927576.6414                   20927573.4264
  -3283027.52347  -3157098.27744  23809278.7424                   23809278.2624
 11  7 29  1 44  0.0000000  0  9G05G12G09G04G17G02G25G10G27
 -15773366.13347 -12276086.27345  22334490.9534                   22334487.8834
 -17392517.43448 -13548915.28946  21552789.0704                   21552785.4024
   -865054.96547   -405576.48044  23578434.3054                   23578433.8484
 -13598140.06648  -9567424.77746  21469047.5314                   21469045.3204
   8243792.53147   6447499.01245  23097181.5554                   23097178.4654
 -19633694.71548 -15246470.93046  20611400.2034                   20611395.1254
  -8917406.91447  -6943080.44144  24374538.9064                   24374539.3834
 -20609646.61748 -16031767.92246  20932782.9304                   20932779.7774
  -3178636.12546  -3075754.37944  23829143.7274                   23829143.4414
 11  7 29  1 44 30.0000000  0  9G05G12G09G04G17G02G25G10G27
 -15827553.80547 -12318310.35545  22324178.8984                   22324176.4344
 -17414297.87948 -13565887.05946  21548644.2344                   21548640.3874
   -745820.40247   -312666.50844  23601124.2974                   23601123.4494
 -13483365.52748  -9477990.09446  21490888.7814                   21490886.1414
   8338172.69947   6521041.98845  23115141.6024                   23115138.9534
 -19597821.60548 -15218517.84846  20618226.4224                   20618221.6374
  -8977750.74647  -6990101.54344  24363055.6174                   24363056.3244
 -20581635.34048 -16009940.93046  20938113.3914                   20938110.4654
  -3074116.11346  -2994310.27744  23849032.9144                   23849032.9534
 11  7 29  1 45  0.0000000  0  9G05G12G09G04G17G02G25G10G27
 -15881455.67247 -12360311.75045  22313921.8674                   22313919.2664
 -17435637.18448 -13582515.07046  21544583.4144                   21544579.8284
   -626357.63347   -219578.68044  23623857.1644                   23623856.3754
 -13368383.89148  -9388394.02745  21512769.0554                   21512766.1684
   8432731.91047   6594724.49645  23133135.3524                   23133133.1024
 -19561609.25048 -15190300.41846  20625117.4454                   20625112.1094
  -9037917.48847  -7036984.65244  24351605.9224                   24351606.4574
 -20552972.16448 -15987605.96546  20943567.1644                   20943564.3794
  -2969470.50046  -2912768.32044  23868947.2664                   23868946.6294
 11  7 29  1 45 30.0000000  0  9G05G12G09G04G17G02G25G10G27
 -15935070.85947 -12402089.74645  22303719.1644                   22303716.5824
 -17456535.14548 -13598799.18746  21540606.7974                   21540603.2344
   -506672.21547   -126317.36344  23646632.6804                   23646631.5314
 -13253199.11748  -9298639.68046  21534687.9064                   21534685.6094
   8527468.65647   6668545.32044  23151163.0704                   23151160.9414
 -19525060.84448 -15161821.13346  20632072.6414                   20632067.4414
  -9097906.80146  -7083729.50044  24340190.6724                   24340191.3164
 -20523658.39548 -15964764.04346  20949145.7814                   20949142.8954
  -2864704.16046  -2831132.27744  23888882.7194                   23888883.1334
 11  7 29  1 46  0.0000000  0  9G05G12G09G04G17G02G25G10G27
 -15988397.59047 -12443642.97345  22293570.8524                   22293568.6484
 -17476990.12148 -13614738.12946  21536714.0084                   21536710.4654
   -386768.79747    -32886.19544  23669449.5474                   23669449.0554
 -13137814.57448  -9208729.67246  21556645.0784                   21556642.3984
   8622382.46547   6742504.12945  23169224.4614                   23169222.3984
 -19488178.64848 -15133081.74646  20639090.8054                   20639085.8634
  -9157717.24247  -7130334.97743  24328809.3984                   24328809.4844
 -20493694.28148 -15941415.36346  20954847.5634                   20954844.5434
  -2759820.75846  -2749405.03543  23908842.0004                   23908842.1214
 11  7 29  1 46 30.0000000  0  9G05G12G09G04G17G02G25G10G27
 -16041430.32847 -12484967.11345  22283479.1174                   22283476.2734
 -17496998.02347 -13630328.69546  21532906.5944                   21532903.3554
   -266648.22347     60714.19944  23692307.7734                   23692306.9454
 -13022229.77048  -9118663.61746  21578640.1094                   21578637.8634
   8717476.10947   6816603.07045  23187320.2504                   23187318.0354
 -19450961.30148 -15104081.20746  20646173.5314                   20646168.4924
  -9217343.76246  -7176797.11343  24317462.1094                   24317462.8674
 -20463076.59848 -15917557.41046  20960673.8364                   20960671.2074
  -2654820.75446  -2667586.93043  23928822.4844                   23928822.6644
 11  7 29  1 47  0.0000000  0  9G05G12G09G04G17G02G25G10G27
 -16094164.61347 -12526058.69146  22273444.2424                   22273441.9064
 -17516554.32048 -13645567.36346  21529185.3984                   21529181.8524
   -146312.13347    154482.52044  23715206.8834                   23715206.2894
 -12906444.70348  -9028441.50446  21600673.3054                   21600670.9184
   8812751.95747   6890843.99644  23205450.2894                   23205447.8484
 -19413407.86348 -15074818.77746  20653319.5164                   20653314.5274
  -9276781.89146  -7223112.52343  24306151.8444                   24306151.6334
 -20431802.70348 -15893188.12146  20966625.3524                   20966622.5634
  -2549704.99646  -2585678.64544  23948826.2814                   23948825.5984
 11  7 29  1 47 30.0000000  0  9G05G12G09G04G17G02G25G10G27
 -16146601.33647 -12566918.41045  22263465.9144                   22263463.3244
 -17535660.96548 -13660455.64846  21525549.4534                   21525546.0824
    -25768.15247    248412.84844  23738145.2894                   23738144.9804
 -12790465.94548  -8938068.45346  21622743.1564                   21622740.4804
   8908206.53947   6965224.17644  23223615.2114                   23223612.6994
 -19375523.49648 -15045298.46546  20660528.4144                   20660523.7074
  -9336033.29746  -7269282.37543  24294876.6884                   24294876.8054
 -20399876.30948 -15868310.38746  20972700.7894                   20972697.8874
  -2444480.51246  -2503685.63344  23968848.9844                   23968849.5904
 11  7 29  1 48  0.0000000  0  9G05G12G09G04G17G02G25G10G27
 -16198737.71547 -12607544.08645  22253544.5314                   22253542.1374
 -17554315.33648 -13674991.52346  21521999.7664                   21521996.0124
     94980.35947    342502.54344  23761123.5554                   23761122.8634
 -12674295.71148  -8847546.20745  21644849.8204                   21644847.0164
   9003840.15247   7039743.86744  23241814.1644                   23241811.7194
 -19337309.37148 -15015521.21946  20667800.6564                   20667795.3404
  -9395095.41846  -7315304.79743  24283637.0314                   24283637.7154
 -20367296.62548 -15842923.60246  20978900.3594                   20978897.5084
  -2339150.00446  -2421609.99243  23988892.8524                   23988892.7974
 11  7 29  1 48 30.0000000  0  9G05G12G09G04G17G02G25G10G27
 -16250570.68447 -12647933.34445  22243680.9384                   22243678.6024
 -17572515.32448 -13689173.32846  21518536.3284                   21518532.6914
    215930.17646    436749.09844  23784139.1564                   23784138.7934
 -12557935.76648  -8756876.14545  21666992.3984                   21666989.5744
   9099653.63347   7114403.73844  23260046.4774                   23260043.5664
 -19298766.22348 -14985487.57846  20675134.8914                   20675129.6804
  -9453965.46547  -7361177.51643  24272434.5704                   24272435.1024
 -20334063.41848 -15817027.57446  20985224.2344                   20985221.5004
  -2233716.23046  -2339453.89543  24008956.3674                   24008956.4104
 11  7 29  1 49  0.0000000  0  9G05G12G09G04G17G02G25G10G27
 -16302100.32447 -12688086.24245  22233875.0784                   22233872.7894
 -17590261.53948 -13703001.55146  21515158.9534                   21515156.0554
    337075.02047    531147.61744  23807192.6174                   23807192.0704
 -12441391.02048  -8666062.07845  21689170.3594                   21689167.6094
   9195644.27347   7189201.61744  23278313.1094                   23278310.1684
 -19259898.16848 -14955200.77346  20682531.5944                   20682526.0784
  -9512643.93447  -7406900.96543  24261268.8364                   24261268.7304
 -20300178.90648 -15790624.04746  20991672.3524                   20991669.6914
  -2128184.93446  -2257221.81643  24029038.9454                   24029039.1094
 11  7 29  1 49 30.0000000  0  9G05G12G09G04G17G02G25G10G27
 -16353319.68447 -12727997.36745  22224128.2734                   22224125.8634
 -17607547.34848 -13716471.01246  21511869.8444                   21511866.2544
    458415.49247    625698.57844  23830282.6884                   23830281.8874
 -12324659.29348  -8575102.30145  21711383.5084                   21711380.8874
   9291817.00846   7264141.41044  23296613.5704                   23296611.8054
 -19220701.85248 -14924658.17246  20689989.7814                   20689985.2894
  -9571123.86347  -7452469.71944  24250139.7584                   24250140.3554
 -20265638.01648 -15763709.05946  20998245.0314                   20998242.6134
  -2022554.53146  -2174912.50844  24049139.3444                   24049139.5704
 11  7 29  1 50  0.0000000  0  9G05G12G09G04G17G02G25G10G27
 -16404233.44147 -12767670.35945  22214439.5864                   22214437.2624
 -17624378.16047 -13729585.91846  21508667.1254                   21508663.6374
    579940.50047    720393.34044  23853408.5164                   23853407.7814
 -12207750.32048  -8484004.41445  21733630.3594                   21733627.4924
   9388164.22347   7339217.17644  23314948.3204                   23314945.3054
 -19181186.36348 -14893866.86746  20697510.0474                   20697504.4144
  -9629410.37547  -7497887.75043  24239048.6564                   24239048.7154
 -20230448.38348 -15736288.55546  21004941.5784                   21004939.0784
  -1916835.54746  -2092534.15243  24069257.9144                   24069257.2344
 11  7 29  1 50 30.0000000  0  9G05G12G09G04G17G02G25G10G27
 -16454832.61747 -12807098.23446  22204810.8834                   22204808.7424
 -17640746.09048 -13742340.14846  21505552.2424                   21505548.6564
    701652.47347    815233.75844  23876569.6804                   23876569.0744
 -12090660.56648  -8392765.66445  21755911.8134                   21755909.4384
   9484692.33647   7414433.87944  23333316.5944                   23333314.0124
 -19141346.79348 -14862823.02346  20705090.6804                   20705085.6994
  -9687495.19547  -7543148.62544  24227996.2274                   24227995.9304
 -20194603.11348 -15708357.17246  21011762.6644                   21011759.8594
  -1811025.20346  -2010084.60943  24089392.3984                   24089392.4344
 11  7 29  1 51  0.0000000  0  9G05G12G09G04G17G02G25G10G27
 -16505108.62547 -12846274.27045  22195244.0314                   22195241.4414
 -17656642.82848 -13754727.21146  21502527.2274                   21502523.6644
    823553.69147    910221.67243  23899766.7894                   23899766.0984
 -11973385.96548  -8301382.87545  21778228.3834                   21778225.8444
   9581407.85547   7489796.61344  23351720.9694                   23351718.5004
 -19101178.31648 -14831522.89146  20712734.6024                   20712729.3364
  -9745369.71947  -7588245.64144  24216981.9694                   24216982.4224
 -20158096.02348 -15679910.07046  21018709.9454                   21018706.6604
  -1705119.99246  -1927561.13343  24109545.9224                   24109544.9774
 11  7 29  1 51 30.0000000  0  9G05G12G09G04G17G02G25G10G27
 -16555064.97347 -12885201.24646  22185737.3984                   22185734.9534
 -17672072.31248 -13766750.18446  21499591.1414                   21499587.9924
    945634.56247   1005349.54344  23922998.0944                   23922996.7034
 -11855934.92248  -8209862.60245  21800578.6024                   21800576.2114
   9678304.89547   7565300.79344  23370159.8364                   23370157.1684
 -19060688.39148 -14799972.28946  20720439.6804                   20720434.3324
  -9803037.71547  -7633181.71144  24206008.5474                   24206008.1914
 -20120933.34448 -15650952.13346  21025781.5394                   21025778.5434
  -1599129.11746  -1844970.93743  24129714.9064                   24129714.8874
 11  7 29  1 52  0.0000000  0  9G05G12G09G04G17G02G25G10G27
 -18180121.06247 -14151478.66446  21876499.2974                   21876496.5864
 -19262453.52748 -15006008.27346  21196951.7584                   21196948.2584
   -507524.52347   -126982.26244  23646470.6804                   23646470.3134
 -13313726.18848  -9345803.86345  21523170.3594                   21523167.6254
   8199966.54747   6413348.80944  23088841.5704                   23088838.6454
 -20595297.30148 -15995771.42646  20428413.3444                   20428408.4224
 -11435919.16447  -8905556.82444  23895281.6024                   23895281.5004
 -21658533.85248 -16849082.38746  20733185.9304                   20733182.9384
  -3068472.34046  -2989913.77043  23850107.8134                   23850107.8754
 11  7 29  1 52 30.0000000  0  9G05G12G09G04G17G02G25G10G27
 -18229429.41047 -14189900.69946  21867116.7194                   21867113.6024
 -19276941.84448 -15017297.85246  21194194.4924                   21194191.2974
   -385094.25847    -31582.11743  23669768.9224                   23669768.3444
 -13195928.31648  -9254013.32445  21545586.8524                   21545584.0514
   8297228.00847   6489136.96144  23107349.9694                   23107347.5864
 -20554167.60948 -15963722.29746  20436239.8914                   20436234.8484
 -11493166.32447  -8950164.94544  23884387.5864                   23884388.0704
 -21620058.43448 -16819101.53546  20740507.6954                   20740504.7424
  -2962318.40646  -2907196.48043  23870309.3594                   23870308.5044
 11  7 29  1 53  0.0000000  0  9G05G12G09G04G17G02G25G10G27
 -18278409.66847 -14228067.07846  21857795.6334                   21857793.3204
 -19290956.58247 -15028218.41846  21191528.1094                   21191524.3794
   -262494.78547     63949.85244  23693098.7424                   23693098.4384
 -13077959.87948  -9162089.88345  21568034.9144                   21568032.6094
   8394672.50047   6565067.73844  23125892.7344                   23125890.3094
 -20512719.54348 -15931425.09046  20444127.4144                   20444121.9494
 -11550199.08647  -8994606.01644  23873534.6564                   23873534.8404
 -21580926.12147 -16788608.81646  20747954.2424                   20747951.6684
  -2856087.16046  -2824418.96143  23890523.8674                   23890523.7774
 11  7 29  1 53 30.0000000  0  9G05G12G09G04G17G02G25G10G27
 -18327059.94147 -14265976.32846  21848537.9844                   21848535.2274
 -19304496.76648 -15038769.19946  21188951.1884                   21188947.5044
   -139730.84047    159610.03543  23716460.0704                   23716459.4654
 -12959824.44548  -9070036.31245  21590515.3674                   21590512.9344
   8492298.92647   6641140.25844  23144470.4774                   23144468.2624
 -20470955.80948 -15898881.91846  20452074.4774                   20452069.2854
 -11607016.25447  -9038879.06644  23862722.7504                   23862722.7734
 -21541138.28948 -16757605.28546  20755525.7344                   20755522.8954
  -2749782.77346  -2741584.45543  23910752.7734                   23910753.1024
 11  7 29  1 54  0.0000000  0  9G05G12G09G04G17G02G25G10G27
 -18375378.22347 -14303626.89146  21839342.7584                   21839340.7774
 -19317560.28947 -15048948.55546  21186465.2974                   21186461.5904
    -16806.00847    255395.54744  23739851.7274                   23739851.3674
 -12841524.44548  -8977854.50845  21613027.3754                   21613024.4534
   8590107.14147   6717354.45745  23163082.9144                   23163080.6024
 -20428877.88748 -15866093.91846  20460081.9304                   20460076.6174
 -11663615.63747  -9082982.42244  23851951.8284                   23851952.4104
 -21500694.89148 -16726090.93746  20763221.5704                   20763218.8674
  -2643408.33246  -2658695.36343  23930995.4924                   23930995.6214
 11  7 29  1 54 30.0000000  0  9G05G12G09G04G17G02G25G10G27
 -18423358.05147 -14341013.72746  21830212.4694                   21830210.1604
 -19330142.20748 -15058752.62946  21184070.7504                   21184067.4304
    106279.54747    351306.29744  23763274.0634                   23763273.4574
 -12723058.43848  -8885543.34845  21635570.4924                   21635567.9574
   8688101.02347   6793713.32844  23181730.9924                   23181728.1724
 -20386483.51248 -15833059.32446  20468149.3594                   20468143.9694
 -11719991.43447  -9126911.54744  23841223.7584                   23841224.0904
 -21459592.18448 -16694062.84846  20771043.2274                   20771039.9574
  -2536963.22746  -2575751.22343  23951250.9694                   23951251.1684
 11  7 29  1 55  0.0000000  0  9G05G12G09G04G17G02G25G10G27
 -18471001.90247 -14378138.75046  21821146.3284                   21821143.9304
 -19342245.32448 -15068183.60946  21181767.8834                   21181764.5634
    229517.34047    447335.69944  23786725.1724                   23786725.0314
 -12604433.46948  -8793108.31645  21658144.0554                   21658141.6914
   8786276.10247   6870213.36745  23200412.7584                   23200409.9884
 -20343778.93748 -15799783.03546  20476275.6024                   20476270.8444
 -11776145.96947  -9170668.27044  23830537.7894                   23830538.1994
 -21417835.22748 -16661524.94546  20778989.4454                   20778986.4414
  -2430455.33646  -2492758.14543  23971517.8204                   23971519.0904
 11  7 29  1 55 30.0000000  0  9G05G12G09G04G17G02G25G10G27
 -18518305.84447 -14414998.92246  21812144.8914                   21812142.1684
 -19353866.07448 -15077238.72346  21179556.3134                   21179552.9224
    352904.90647    543481.78143  23810205.7424                   23810205.1054
 -12485650.40648  -8700550.09845  21680748.0234                   21680745.1914
   8884633.79347   6946855.72345  23219129.8674                   23219127.4414
 -20300764.27748 -15766265.11346  20484461.0554                   20484455.5864
 -11832075.64847  -9214249.79344  23819894.9064                   23819895.5394
 -21375422.85248 -16628476.32846  20787060.1414                   20787057.2974
  -2323886.48046  -2409717.58243  23991798.2274                   23991798.8594
 11  7 29  1 56  0.0000000  0  9G05G12G09G04G17G02G25G10G27
 -18565269.77048 -14451594.12946  21803207.7424                   21803205.3404
 -19365005.43048 -15085918.72246  21177436.8914                   21177433.5824
    476436.37347    639739.98844  23833712.5944                   23833712.1524
 -12366714.17148  -8607872.52245  21703380.9064                   21703378.3094
   8983171.43047   7023638.28545  23237880.8594                   23237877.8984
 -20257443.14148 -15732508.38346  20492704.4384                   20492699.4694
 -11887780.57047  -9257656.18044  23809294.7034                   23809294.8484
 -21332357.68048 -16594919.03446  20795255.3524                   20795252.6054
  -2217262.19146  -2326633.82843  24012088.7894                   24012088.6844
 11  7 29  1 56 30.0000000  0  9G05G12G09G04G17G02G25G10G27
 -18611891.89147 -14487923.01246  21794335.4454                   21794333.4884
 -19375662.10948 -15094222.60246  21175408.8914                   21175405.3204
    600107.51647    736107.05944  23857246.8834                   23857246.5744
 -12247627.43848  -8515077.67645  21726041.8444                   21726039.4574
   9081889.05147   7100561.09044  23256665.8674                   23256663.6454
 -20213817.52048 -15698514.38746  20501006.4694                   20501001.0434
 -11943258.84447  -9300885.96144  23798737.4384                   23798737.4414
 -21288640.27348 -16560853.52346  20803574.6724                   20803571.6024
  -2110585.71146  -2243509.40243  24032387.8204                   24032389.6374
 11  7 29  1 57  0.0000000  0  9G05G12G09G04G17G02G25G10G27
 -18658166.27047 -14523980.91446  21785530.1334                   21785527.2344
 -19385830.54348 -15102146.03146  21173473.7194                   21173470.0124
    723917.68747    832582.43744  23880807.4224                   23880806.6954
 -12128389.08648  -8422164.68745  21748732.6724                   21748729.9844
   9180789.85947   7177626.64844  23275485.7424                   23275484.0434
 -20169885.82448 -15664281.89546  20509366.1094                   20509361.1724
 -11998504.97347  -9343934.86344  23788224.3524                   23788224.2504
 -21244267.48448 -16526277.31246  20812018.2664                   20812015.1094
  -2003857.26246  -2160344.50043  24052698.7274                   24052698.8874
 11  7 29  1 57 30.0000000  0  9G05G12G09G04G17G02G25G10G27
 -18704085.78147 -14559762.30146  21776791.8054                   21776789.2344
 -19395504.71148 -15109684.32046  21171632.7734                   21171629.3014
    847867.86747    929166.90244  23904393.8914                   23904394.1334
 -12008996.84848  -8329131.78945  21771451.8754                   21771449.2304
   9279878.48847   7254838.53144  23294342.1334                   23294339.6764
 -20125644.73848 -15629808.32046  20517784.9614                   20517779.5434
 -12053511.99647  -9386797.44544  23777756.7194                   23777757.0204
 -21199235.12948 -16491187.16046  20820587.4694                   20820584.9614
  -1897075.05946  -2077137.65643  24073018.5704                   24073019.0274
 11  7 29  1 58  0.0000000  0  9G05G12G09G04G17G02G25G10G27
 -18749651.78147 -14595268.21946  21768120.6884                   21768118.2274
 -19404687.13348 -15116839.43046  21169885.4064                   21169882.3284
    971950.57446   1025854.66044  23928006.5004                   23928006.3674
 -11889456.55148  -8235983.51245  21794199.7584                   21794197.1214
   9379151.49647   7332194.09844  23313232.7274                   23313230.7464
 -20081099.36748 -15595097.64146  20526262.0554                   20526256.3754
 -12108281.39847  -9429474.88744  23767334.8674                   23767334.0944
 -21153547.44948 -16455586.36346  20829281.8754                   20829279.0274
  -1790245.88746  -1993894.25044  24093347.9064                   24093347.7814
 11  7 29  1 58 30.0000000  0  9G05G12G09G04G17G02G25G10G27
 -18794859.63347 -14630495.07046  21759518.1414                   21759515.4184
 -19413373.44948 -15123607.96146  21168232.4924                   21168228.9614
   1096164.25446   1122644.45744  23951642.9144                   23951643.4224
 -11769768.64548  -8142720.21145  21816975.9774                   21816973.3164
   9478610.89147   7409694.90644  23332159.8914                   23332157.4024
 -20036249.46948 -15560149.66046  20534796.3364                   20534791.1374
 -12162808.81647  -9471963.75444  23756958.4614                   23756958.3794
 -21107202.64148 -16419473.52046  20838101.3204                   20838098.0704
  -1683370.76246  -1910615.00444  24113685.5004                   24113685.5394
 11  7 29  1 59  0.0000000  0  9G05G12G09G04G17G02G25G10G27
 -18839714.04748 -14665446.51246  21750982.5164                   21750979.5824
 -19421569.01248 -15129994.09046  21166672.8054                   21166669.5514
   1220497.95746   1219527.76643  23975303.0554                   23975303.2154
 -11649942.18848  -8049348.94945  21839777.5474                   21839774.9884
   9578249.20747   7487335.11744  23351119.8674                   23351117.7154
 -19991103.44148 -15524970.93446  20543387.4304                   20543381.9494
 -12217099.05947  -9514267.84044  23746627.3204                   23746627.1334
 -21060208.21147 -16382854.47746  20847043.6644                   20847040.4184
  -1576459.93146  -1827307.94143  24134029.7114                   24134029.8554
 11  7 29  1 59 30.0000000  0  9G05G12G09G04G17G02G25G10G27
 -18884208.56247 -14700117.51646  21742515.5634                   21742512.8874
 -19429268.29748 -15135993.51246  21165207.7034                   21165204.3244
   1344952.17646   1316505.00044  23998986.6094                   23998986.3954
 -11529975.51648  -7955868.43445  21862606.6644                   21862604.3834
   9678071.25847   7565118.51644  23370115.7344                   23370113.6294
 -19945658.56248 -15489559.34446  20552035.5704                   20552030.1804
 -12271145.70747  -9556382.10544  23736342.7344                   23736342.2074
 -21012560.49648 -16345726.37146  20856110.7034                   20856107.8244
  -1469512.28946  -1743972.19543  24154381.2664                   24154381.6054
 11  7 29  2  0  0.0000000  0  9G05G12G09G04G17G02G25G10G27
 -18928337.82847 -14734503.90646  21734118.0164                   21734115.1454
 -19436465.80148 -15141601.93746  21163837.9774                   21163834.3134
   1469525.98446   1413575.39543  24022692.6484                   24022691.4694
 -11409867.85548  -7862278.05545  21885462.2814                   21885459.7934
   9778080.09446   7643047.44944  23389146.4304                   23389144.0744
 -19899913.38748 -15453913.75846  20560740.5004                   20560735.3204
 -12324943.49647  -9598302.46944  23726105.5164                   23726104.8134
 -20964256.86347 -16308087.17246  20865302.1564                   20865299.3444
  -1362528.08246  -1660607.93443  24174740.0314                   24174740.3484
 11  7 29  2  0 30.0000000  0  9G05G12G09G04G17G02G25G10G27
 -18972106.07047 -14768608.98046  21725789.1094                   21725786.6954
 -19443167.37548 -15146823.91846  21162562.8134                   21162559.2154
   1594209.18746   1510731.04743  24046418.1564                   24046418.3634
 -11289628.13748  -7768584.76245  21908343.3754                   21908340.7894
   9878268.70747   7721116.46144  23408211.4614                   23408209.5084
 -19853876.18748 -15418040.61746  20569500.9924                   20569495.3324
 -12378496.82447  -9640032.32844  23715914.2584                   23715914.2774
 -20915304.31248 -16269942.32846  20874617.6804                   20874614.7114
  -1255517.02046  -1577222.78143  24195103.5004                   24195103.3244
 11  7 29  2  1  0.0000000  0  9G05G12G09G04G17G02G25G10G27
 -19015503.87148 -14802425.40646  21717530.7504                   21717527.8754
 -19449364.18448 -15151652.58246  21161383.3754                   21161379.9064
   1719005.25446   1607974.66443  24070166.8674                   24070166.1684
 -11169251.37548  -7674784.68445  21931250.2584                   21931248.0474
   9978644.42647   7799331.28544  23427313.0004                   23427310.4224
 -19807541.39848 -15381935.58646  20578318.2814                   20578312.7774
 -12431796.25847  -9681564.33244  23705771.8444                   23705771.6604
 -20865696.18748 -16231286.63346  20884057.7504                   20884054.9494
  -1148475.11746  -1493813.56343  24215472.8054                   24215473.0164
 11  7 29  2  1 30.0000000  0  9G05G12G09G04G17G02G25G10G27
 -19058531.84448 -14835953.64546  21709342.6094                   21709339.7974
 -19455057.49248 -15156088.90646  21160300.2734                   21160296.8284
   1843907.08247   1705300.66843  24093934.3914                   24093934.2194
 -11048742.63748  -7580881.77745  21954182.7664                   21954179.9884
  10079204.16047   7877689.51244  23446449.1804                   23446446.3714
 -19760913.22748 -15345601.94546  20587190.9844                   20587186.0514
 -12484842.51247  -9722899.07444  23695677.3284                   23695677.4964
 -20815436.30148 -16192123.07846  20893622.0314                   20893619.1604
  -1041408.43046  -1410385.04743  24235846.4064                   24235846.4844
 11  7 29  2  2  0.0000000  0  9G05G12G09G04G17G02G25G10G27
 -19101191.96148 -14869195.25046  21701224.6484                   21701221.8204
 -19460250.39148 -15160135.30946  21159312.0314                   21159308.6954
   1968906.78947   1802702.96943  24117721.3284                   24117721.0944
 -10928108.97748  -7486881.51245  21977137.9924                   21977135.7274
  10179943.56247   7956187.71944  23465618.8984                   23465616.4774
 -19713997.77348 -15309044.44946  20596118.8834                   20596113.5474
 -12537637.79747  -9764038.24644  23685630.6414                   23685630.7974
 -20764529.62947 -16152455.55146  20903309.0784                   20903306.2234
   -934324.35946  -1326942.96542  24256223.1414                   24256224.4224
 11  7 29  2  2 30.0000000  0  9G05G12G09G04G17G02G25G10G27
 -19143470.91848 -14902139.83646  21693179.2034                   21693176.2894
 -19464929.92648 -15163781.68746  21158421.5004                   21158417.8954
   2094012.02347   1900187.49243  24141528.0784                   24141527.4884
 -10807341.30948  -7392776.82445  22000119.3834                   22000116.8794
  10280873.48047   8034834.40644  23484824.8754                   23484822.2774
 -19666785.74648 -15272255.86346  20605103.1254                   20605097.4344
 -12590168.60947  -9804971.34044  23675634.5474                   23675634.6644
 -20712965.80148 -16112275.93046  20913121.4454                   20913118.6214
   -827214.93046  -1243481.14842  24276607.0474                   24276607.2034
 11  7 29  2  3  0.0000000  0  9G05G12G09G04G17G02G25G10G27
 -19185373.18448 -14934790.90246  21685205.4694                   21685202.6484
 -19469101.05148 -15167031.90646  21157627.6884                   21157624.5204
   2219212.00447   1997745.84043  24165352.7584                   24165352.5394
 -10686448.34048  -7298574.50045  22023124.7664                   22023121.7894
  10381987.54747   8113624.56644  23504066.6564                   23504064.1994
 -19619285.52348 -15235242.70346  20614142.3054                   20614136.9804
 -12642439.48047  -9845701.86344  23665687.5784                   23665687.6254
 -20660752.07848 -16071589.89546  20923057.4774                   20923054.4774
   -720090.02045  -1160007.30942  24296991.3984                   24296992.8364
 11  7 29  2  3 30.0000000  0  9G05G12G09G04G17G02G25G10G27
 -19226893.59048 -14967144.41846  21677304.1174                   21677301.6054
 -19472759.83248 -15169882.89846  21156931.4844                   21156927.7584
   2344505.63747   2095377.18743  24189195.3834                   24189194.7624
 -10565430.07448  -7204274.53945  22046153.7274                   22046150.9574
  10483288.15247   8192560.11344  23523343.5784                   23523340.7894
 -19571495.72748 -15198003.89546  20623236.1094                   20623230.8324
 -12694445.52047  -9886226.02344  23655791.3364                   23655791.3204
 -20607886.55947 -16030395.96946  20933117.1024                   20933114.3484
   -612950.05945  -1076521.72743  24317380.0474                   24317380.9494
 11  7 29  2  4  0.0000000  0  9G05G12G09G04G17G02G25G10G27
 -19268031.00448 -14999199.49646  21669475.9064                   21669473.3484
 -19475906.00448 -15172334.44946  21156332.8914                   21156329.3134
   2469888.30147   2193077.91843  24213055.1254                   24213054.3324
 -10444289.52048  -7109879.28545  22069205.7894                   22069203.5474
  10584774.36347   8271640.25844  23542655.7034                   23542652.7624
 -19523418.52748 -15160541.13746  20632384.9304                   20632379.9224
 -12746185.50847  -9926542.87944  23645945.5004                   23645945.3834
 -20554371.13348 -15988695.61746  20943300.9774                   20943297.7504
   -505799.20346   -993027.62942  24337770.3754                   24337770.7304
 11  7 29  2  4 30.0000000  0  9G05G12G09G04G17G02G25G10G27
 -19308784.33248 -15030955.28946  21661720.8594                   21661718.2034
 -19478539.00048 -15174386.12946  21155831.9144                   21155828.1294
   2595355.09847   2290844.20343  24236930.5554                   24236930.4454
 -10323030.01248  -7015391.34045  22092281.0394                   22092278.2584
  10686444.70747   8350863.91044  23562002.7344                   23562000.1454
 -19475057.08648 -15122856.88346  20641587.7974                   20641582.5234
 -12797658.39147  -9966651.59044  23636150.9224                   23636149.9264
 -20500207.44948 -15946490.14546  20953608.1414                   20953604.9734
   -398641.62946   -909528.31643  24358162.5394                   24358161.8714
 11  7 29  2  5  0.0000000  0  9G05G12G09G04G17G02G25G10G27
 -19349150.02748 -15062409.02046  21654039.6804                   21654037.1644
 -19480656.40248 -15176036.04746  21155428.8984                   21155425.4964
   2720903.78947   2388674.32843  24260821.6174                   24260821.1414
 -10201652.71548  -6920811.62145  22115378.3754                   22115376.1094
  10788300.29747   8430231.90644  23581385.5234                   23581382.4494
 -19426411.41048 -15084951.15246  20650844.9924                   20650839.5704
 -12848860.62547 -10006549.38744  23626407.1024                   23626407.3134
 -20445395.09448 -15903779.19946  20964038.6564                   20964035.3094
   -291479.22346   -826025.19943  24378554.0314                   24378554.6724
 11  7 29  2  5 30.0000000  0  9G05G12G09G04G17G02G25G10G27
 -19389123.12148 -15093556.84846  21646432.6724                   21646430.2234
 -19482253.57048 -15177280.58246  21155124.8984                   21155121.1134
   2846533.23847   2486567.38343  24284729.2114                   24284727.9144
 -10080156.75847  -6826139.44145  22138497.9924                   22138495.5664
  10890344.19547   8509746.63344  23600803.5944                   23600800.6994
 -19377480.94548 -15046823.50446  20660156.1334                   20660150.9384
 -12899787.21947 -10046232.41444  23616715.7584                   23616716.0084
 -20389932.35248 -15860561.45346  20974592.8054                   20974589.6804
   -184312.48046   -742518.71943  24398947.0944                   24398947.5784
 11  7 29  2  6  0.0000000  0  9G05G12G09G04G17G02G25G10G27
 -19428703.78548 -15124398.87146  21638901.1484                   21638898.2464
 -19483331.71948 -15178120.69546  21154919.7114                   21154916.2934
   2972237.27047   2584518.53543  24308649.5314                   24308648.7584
  -9958546.96147  -6731378.55145  22161639.2424                   22161636.9654
  10992573.87547   8589406.12544  23620257.4614                   23620254.9574
 -19328269.33248 -15008476.77346  20669520.5234                   20669515.3594
 -12950438.25447 -10085700.69944  23607077.2664                   23607076.8794
 -20333822.33648 -15816839.35246  20985269.9064                   20985266.9654
    -77146.68046   -659013.00443  24419340.3834                   24419340.7034
 11  7 29  2  6 30.0000000  0  9G05G12G09G04G17G02G25G10G27
 -19467891.54748 -15154934.75046  21631443.6804                   21631440.7384
 -19483890.94148 -15178556.44546  21154813.3524                   21154810.1334
   3098010.33246   2682523.49243  24332582.1334                   24332583.0394
  -9836827.12147  -6636531.90645  22184802.6414                   22184799.6724
  11094987.53547   8669208.96144  23639745.8914                   23639743.8794
 -19278779.84448 -14969913.52346  20678938.0864                   20678932.8524
 -13000813.32447 -10124953.95744  23597491.4384                   23597491.3014
 -20277067.72348 -15772614.96546  20996069.9774                   20996066.9964
     30013.17246   -575511.92643  24439732.1884                   24439733.0824
 11  7 29  2  7  0.0000000  0  9G05G12G09G04G17G02G25G10G27
 -19506685.71948 -15185163.92646  21624061.6484                   21624058.5354
 -19483931.91848 -15178588.37946  21154805.5944                   21154801.8954
   3223847.22346   2780578.12543  24356529.1564                   24356528.7934
  -9715001.13347  -6541602.55545  22207984.7114                   22207982.4774
  11197583.10547   8749153.55144  23659269.2584                   23659267.1914
 -19229015.96548 -14931136.46146  20688407.9384                   20688402.8594
 -13050911.83647 -10163991.70344  23587957.6334                   23587957.6994
 -20219671.07448 -15727890.29746  21006991.9064                   21006989.2704
    137162.37946   -492019.16843  24460121.6414                   24460123.1684
 11  7 29  2  7 30.0000000  0  9G05G12G09G04G17G02G25G10G27
 -19545079.57848 -15215081.17646  21616755.1724                   21616752.3054
 -19483448.28548 -15178211.51246  21154897.2584                   21154893.7854
   3349749.06646   2878683.41443  24380486.6414                   24380487.3524
  -9593066.13747  -6446588.24245  22231188.0164                   22231185.6134
  11300365.63747   8829243.82044  23678828.5234                   23678825.8284
 -19178974.16448 -14892142.83646  20697930.5084                   20697925.5274
 -13100726.75447 -10202808.46144  23578478.4534                   23578477.5354
 -20161628.65648 -15682662.43046  21018037.4774                   21018034.1414
    244302.60946   -408533.37543  24480510.5234                   24480511.7384
 11  7 29  2  8  0.0000000  0  9G05G12G09G04G17G02G25G10G27
 -19583071.57448 -15244685.28546  21609525.6024                   21609522.5044
 -19482439.19948 -15177425.20746  21155089.5234                   21155085.9024
   3475711.69946   2976836.05543  24404456.7664                   24404457.4024
  -9471025.15647  -6351491.34845  22254411.8524                   22254409.2704
  11403334.38747   8909479.19544  23698422.6724                   23698420.2624
 -19128656.75848 -14852934.44546  20707505.7424                   20707500.4804
 -13150256.44547 -10241402.94544  23569052.7974                   23569052.7504
 -20102941.93448 -15636932.51246  21029204.9774                   21029202.0044
    351430.32446   -325057.33643  24500895.9454                   24500897.1374
 11  7 29  2  8 30.0000000  0  9G05G12G09G04G17G02G25G10G27
 -19620660.00448 -15273974.93046  21602372.9224                   21602369.9344
 -19480904.10548 -15176229.02346  21155381.7974                   21155377.9494
   3601730.23446   3075032.27743  24428437.5634                   24428437.8054
  -9348881.08247  -6256314.12545  22277655.0164                   22277652.5594
  11506488.32047   8989858.86744  23718051.6954                   23718049.9614
 -19078066.28148 -14813513.28146  20717132.6564                   20717127.3554
 -13199499.44147 -10279774.04744  23559682.3204                   23559682.1174
 -20043612.50448 -15590701.77746  21040495.0164                   21040491.6914
    458541.75046   -241593.97343  24521279.0784                   24521279.8014
 11  7 29  2  9  0.0000000  0  9G05G12G09G04G17G02G25G10G27
 -19657842.37548 -15302948.16846  21595297.2814                   21595294.2274
 -19478841.41848 -15174621.73046  21155774.6804                   21155770.5904
   3727801.27746   3173269.37543  24452428.0314                   24452428.2544
  -9226635.81647  -6161058.04345  22300917.3284                   22300915.2114
  11609827.55947   9070382.92244  23737716.9844                   23737714.8284
 -19027203.77348 -14773880.14546  20726811.3204                   20726806.2154
 -13248453.25447 -10317919.80944  23550366.7584                   23550366.5664
 -19983641.48048 -15543971.09846  21051906.9534                   21051904.1954
    565633.92246   -158145.63343  24541658.0084                   24541658.5744
 11  7 29  2  9 30.0000000  0  9G05G12G09G04G17G02G25G10G27
 -19694616.78148 -15331603.50446  21588299.2734                   21588296.3014
 -19476249.58648 -15172602.10946  21156267.5944                   21156263.6524
   3853921.31646   3271544.66444  24476428.0234                   24476428.0594
  -9104291.41847  -6065724.72345  22324198.9304                   22324196.5124
  11713352.14547   9151051.40644  23757416.7734                   23757414.7274
 -18976071.01648 -14734036.43046  20736541.6254                   20736536.6174
 -13297115.60547 -10355838.43744  23541106.3914                   23541106.2934
 -19923029.83648 -15496741.24246  21063441.2894                   21063438.3204
    672703.74246    -74714.69543  24562032.7814                   24562033.6684
 11  7 29  2 10  0.0000000  0  9G05G12G09G04G17G02G25G10G27
 -19730987.73448 -15359944.47346  21581378.0864                   21581375.3554
 -19473134.66848 -15170174.89546  21156860.1484                   21156856.6134
   3980080.04346   3369850.10944  24500435.5314                   24500435.5164
  -8981856.73847  -5970321.05145  22347497.3674                   22347495.0474
  11817055.46146   9231859.14544  23777150.9774                   23777149.1294
 -18924676.43448 -14693988.70346  20746321.9064                   20746316.4924
 -13345491.05147 -10393533.52344  23531900.3914                   23531900.7344
 -19861785.42248 -15449018.31246  21075095.6724                   21075092.8794
    779741.52346      8691.25843  24582401.1564                   24582402.1644
 11  7 29  2 10 30.0000000  0  9G05G12G09G04G17G02G25G10G27
 -21342367.86748 -16615565.31646  21274742.4384                   21274739.6094
 -21044908.39548 -16394933.64146  20857761.7114                   20857757.9964
   2530864.58246   2240591.25044  24224658.6954                   24224659.5354
 -10434743.04347  -7102440.22345  22071022.4384                   22071019.9844
  10345527.08246   8085213.61344  23497128.2894                   23497126.4884
 -20448433.40648 -15881331.78146  20456360.5314                   20456354.7544
 -14968992.34847 -11658599.40644  23222958.5634                   23222958.5704
 -21375320.91048 -16628396.61346  20787079.3134                   20787076.1844
   -688665.87146  -1135522.42243  24302972.5474                   24302973.4384
 11  7 29  2 11  0.0000000  0  9G05G12G09G04G17G02G25G10G27
 -21377913.87148 -16643263.46146  21267978.2504                   21267975.2774
 -21040731.11748 -16391678.61746  20858556.2034                   20858552.4844
   2657101.25046   2338957.42244  24248680.8134                   24248681.3444
 -10312122.21147  -7006891.50045  22094356.1254                   22094354.0394
  10449598.59446   8166308.26644  23516932.9144                   23516930.4774
 -20396508.25848 -15840870.62546  20466241.6024                   20466236.5004
 -15016775.53147 -11695832.99244  23213866.0314                   23213865.7774
 -21312802.74648 -16579681.15246  20798976.2974                   20798973.2154
   -581689.90646  -1052164.66842  24323329.5004                   24323330.7664
 11  7 29  2 11 30.0000000  0  9G05G12G09G04G17G02G25G10G27
 -21413038.27748 -16670633.07446  21261294.2424                   21261291.2734
 -21036014.63748 -16388003.43046  20859454.0634                   20859450.1214
   2783377.59446   2437354.51643  24272710.7274                   24272710.5784
 -10189405.38747  -6911267.97745  22117708.8054                   22117706.0434
  10553859.89246   8247550.80544  23536773.3284                   23536771.0474
 -20344313.88748 -15800199.67246  20476173.6174                   20476168.4534
 -15064253.13747 -11732828.45745  23204831.5084                   23204831.0744
 -21249643.26247 -16530465.96146  20810995.1024                   20810991.8754
   -474743.26245   -968829.69142  24343681.3524                   24343682.4774
 11  7 29  2 12  0.0000000  0  9G05G12G09G04G17G02G25G10G27
 -21447743.98848 -16697676.45346  21254689.7584                   21254687.1954
 -21030763.03948 -16383911.27346  20860453.0394                   20860449.6334
   2909684.91446   2535775.76244  24296746.5164                   24296746.1724
 -10066599.98447  -6815575.42245  22141077.4224                   22141075.2974
  10658305.83246   8328937.22344  23556648.7344                   23556646.0514
 -20291857.15648 -15759324.27746  20486155.7894                   20486150.3444
 -15111428.12947 -11769588.12945  23195853.9224                   23195853.9804
 -21185848.94948 -16480756.10546  20823134.5084                   20823131.8364
   -367834.14545   -885524.05942  24364024.7894                   24364027.6804
 11  7 29  2 12 30.0000000  0  8G05G12G09G04G17G02G25G10
 -21482025.20348 -16724389.05146  21248166.2814                   21248163.7384
 -21024971.41048 -16379398.30946  20861555.4774                   20861551.7624
   3036023.20746   2634221.14844  24320787.3674                   24320787.5204
  -9943704.25847  -6719812.50445  22164464.0004                   22164461.2584
  10762940.02746   8410470.31244  23576559.8204                   23576557.1884
 -20239136.01648 -15718242.85946  20496188.4144                   20496183.0904
 -15158294.62947 -11806107.42244  23186935.4064                   23186935.4734
 -21121417.40647 -16430549.69946  20835395.7114                   20835392.7194
 11  7 29  2 13  0.0000000  0  8G05G12G09G04G17G02G25G10
 -21515881.04348 -16750770.18446  21241724.1094                   21241721.1994
 -21018639.64848 -16374464.46946  20862760.4384                   20862756.7234
   3162387.84846   2732687.04743  24344834.4694                   24344834.2074
  -9820721.48447  -6623981.75445  22187866.3134                   22187864.5164
  10867761.19146   8492149.10544  23596506.5944                   23596504.6484
 -20186153.27048 -15676957.58646  20506270.8134                   20506265.7304
 -15204851.43447 -11842385.39845  23178076.1954                   23178075.6024
 -21056351.07448 -16379848.65246  20847777.0554                   20847774.3364
 11  7 29  2 13 30.0000000  0  8G05G12G09G04G17G02G25G10
 -21549312.89848 -16776820.94146  21235362.2344                   21235359.4574
 -21011770.02048 -16369111.50446  20864067.3674                   20864063.6884
   3288771.57447   2831167.83643  24368884.3364                   24368884.4304
  -9697656.98047  -6528087.34045  22211284.7974                   22211282.5314
  10972765.70347   8573970.76244  23616487.8674                   23616486.2464
 -20132913.65248 -15635472.15646  20516401.6724                   20516396.5744
 -15251099.68447 -11878422.95345  23169275.5004                   23169275.3874
 -20990654.32848 -16328656.37946  20860278.7894                   20860275.5904
 11  7 29  2 14  0.0000000  0  8G05G12G09G04G17G02G25G10
 -21582309.41848 -16802532.46946  21229083.2424                   21229080.1024
 -21004352.16448 -16363331.35246  20865479.1724                   20865475.2274
   3415180.04346   2929667.91443  24392938.7664                   24392939.4184
  -9574503.47747  -6432123.59045  22234720.4924                   22234718.2544
  11077962.77347   8655942.47744  23636506.6094                   23636504.1884
 -20079409.85948 -15593780.87146  20526583.3134                   20526577.7074
 -15297027.96947 -11914211.17645  23160535.3754                   23160535.3054
 -20924319.62548 -16276966.98846  20872901.7664                   20872899.0084
 11  7 29  2 14 30.0000000  0  8G05G12G09G04G17G02G25G10
 -21614865.40648 -16827900.73446  21222887.9534                   21222885.1764
 -20996381.60548 -16357120.51246  20866995.7974                   20866992.0984
   3541612.68046   3028186.80143  24416998.7114                   24416998.2274
  -9451259.89147  -6336089.62945  22258172.9064                   22258170.6604
  11183355.31647   8738066.50444  23656562.5474                   23656559.9024
 -20025640.32048 -15551882.52046  20536815.0314                   20536809.5944
 -15342630.89547 -11949745.89544  23151857.1254                   23151856.9384
 -20857344.95348 -16224778.92246  20885646.6334                   20885643.9964
 11  7 29  2 15  0.0000000  0  8G05G12G09G04G17G02G25G10
 -21646982.60548 -16852927.09046  21216776.1334                   21216773.1024
 -20987860.94948 -16350481.02046  20868617.1024                   20868613.8164
   3668062.12546   3126718.81642  24441060.3834                   24441060.6994
  -9327932.09447  -6239990.05945  22281641.3444                   22281639.2624
  11288939.45347   8820339.83644  23676654.3834                   23676651.9924
 -19971610.25848 -15509781.16446  20547096.7114                   20547091.2814
 -15387910.10247 -11985028.36345  23143240.9454                   23143240.8794
 -20789735.48048 -16172096.20746  20898512.4224                   20898509.3244
 11  7 29  2 15 30.0000000  0  8G05G12G09G04G17G02G25G10
 -21678663.49248 -16877613.44546  21210747.3524                   21210744.2814
 -20978794.06648 -16343415.89546  20870342.5704                   20870339.1844
   3794520.48846   3225257.75842  24465125.0634                   24465124.8364
  -9204526.47747  -6143829.87145  22305124.7894                   22305122.0314
  11394710.31647   8902758.67644  23696781.8204                   23696778.9414
 -19917325.69148 -15467481.48046  20557427.1564                   20557421.4734
 -15432867.78147 -12020060.28945  23134685.6954                   23134685.6524
 -20721496.70348 -16118923.12546  20911497.7034                   20911494.5904
 11  7 29  2 16  0.0000000  0  8G05G12G09G04G17G02G25G10
 -21709902.39548 -16901955.41446  21204802.5864                   21204799.9454
 -20969176.00848 -16335921.28146  20872172.8134                   20872169.2934
   3920988.09045   3323803.90242  24489189.8754                   24489191.5944
  -9081041.31647  -6047607.70345  22328623.2504                   22328621.0394
  11500671.69547   8985325.97344  23716945.3914                   23716942.8054
 -19862784.85248 -15424982.11346  20567805.7504                   20567800.3364
 -15477497.97747 -12054837.03944  23126192.6804                   23126192.6174
 -20652626.66047 -16065258.14146  20924603.3834                   20924600.3284
 11  7 29  2 16 30.0000000  0  8G05G12G09G04G17G02G25G10
 -21740702.61748 -16925955.55146  21198941.6484                   21198938.5634
 -20959010.96948 -16328000.45346  20874107.0314                   20874103.1484
   4047456.01645   3422350.28143  24513256.8674                   24513257.5784
  -8957483.93447  -5951329.26245  22352135.7194                   22352133.2034
  11606818.23447   9068037.51644  23737145.2344                   23737142.4224
 -19807994.08648 -15382287.99646  20578231.8054                   20578226.2704
 -15521803.76647 -12089361.01644  23117761.8134                   23117761.8634
 -20583132.24648 -16011106.63346  20937827.5004                   20937824.3874
 11  7 29  2 17  0.0000000  0  8G05G12G09G04G17G02G25G10
 -21771050.91448 -16949603.54346  21193166.5864                   21193163.9224
 -20948286.48448 -16319643.70346  20876147.8054                   20876144.3984
   4173932.05146   3520902.97342  24537324.5554                   24537325.6954
  -8833844.94147  -5854987.25445  22375663.6024                   22375661.0044
  11713160.85247   9150901.88344  23757381.1484                   23757378.7344
 -19752943.74248 -15339391.59846  20588707.6174                   20588702.4414
 -15565771.61347 -12123621.66445  23109395.0944                   23109394.8914
 -20513003.48048 -15956460.83246  20951172.9224                   20951170.1374
 11  7 29  2 17 30.0000000  0  8G05G12G09G04G17G02G25G10
 -21800957.21548 -16972907.11346  21187475.2664                   21187472.3554
 -20937013.47748 -16310859.53946  20878293.1414                   20878289.5274
   4300400.75045   3619449.94543  24561391.3594                   24561391.3054
  -8710137.95747  -5758592.24645  22399204.2814                   22399201.5554
  11819687.42247   9233909.57044  23777652.3594                   23777649.8754
 -19697647.55948 -15296303.65646  20599229.9694                   20599224.7934
 -15609411.13747 -12157626.47345  23101090.8054                   23101090.5704
 -20442253.95748 -15901331.31346  20964636.1254                   20964633.0274
 11  7 29  2 18  0.0000000  0  8G05G12G09G04G17G02G25G10
 -21830416.33648 -16995862.23046  21181869.5164                   21181866.9104
 -20925187.80148 -16301644.71546  20880543.4924                   20880539.4064
   4426861.66846   3717990.88743  24585455.1174                   24585456.0784
  -8586362.05147  -5662143.53945  22422758.3914                   22422755.6174
  11926400.89147   9317062.90244  23797959.7424                   23797957.0124
 -19642103.78548 -15253022.78546  20609799.6484                   20609794.4344
 -15652716.94547 -12191371.26245  23092849.9064                   23092849.5314
 -20370881.94948 -15845716.74646  20978217.6724                   20978214.5314
 11  7 29  2 18 30.0000000  0  8G05G12G09G04G17G02G25G10
 -21859428.72348 -17018469.25046  21176348.8674                   21176345.5354
 -20912810.83648 -16292000.32046  20882898.8134                   20882895.0744
   4553308.67246   3816520.93443  24609517.9384                   24609518.2424
  -8462521.56647  -5565644.50844  22446323.8204                   22446321.1024
  12033298.68747   9400359.86743  23818301.4534                   23818299.0554
 -19586316.64548 -15209552.27346  20620415.5234                   20620410.4144
 -15695689.42647 -12224856.32045  23084672.5084                   23084672.0864
 -20298891.26648 -15789620.08646  20991917.1334                   20991914.0204
 11  7 29  2 19  0.0000000  0  8G05G12G09G04G17G02G25G10
 -21887986.93448 -17040722.36346  21170914.3054                   21170911.0084
 -20899876.21148 -16281921.38346  20885360.0234                   20885356.5784
   4679743.85546   3915041.77743  24633577.8674                   24633578.1764
  -8338612.60247  -5469092.11744  22469903.1484                   22469900.7774
  12140386.16047   9483804.65644  23838679.4384                   23838677.0084
 -19530281.89548 -15165888.83246  20631078.9304                   20631073.5434
 -15738320.55547 -12258075.39145  23076560.0084                   23076559.7384
 -20226278.05548 -15733038.34846  21005734.9064                   21005732.0434
 11  7 29  2 19 30.0000000  0  8G05G12G09G04G17G02G25G10
 -21916091.06648 -17062621.65246  21165566.2034                   21165563.1454
 -20886385.05548 -16271408.78146  20887927.5004                   20887923.7114
   4806161.74246   4013549.16443  24657634.0004                   24657634.6254
  -8214639.27047  -5372489.56644  22493494.0944                   22493491.7344
  12247660.94546   9567395.41444  23859093.0634                   23859090.3484
 -19474003.59048 -15122035.60546  20641788.2424                   20641782.8714
 -15780610.31647 -12291028.45745  23068512.8364                   23068512.2274
 -20153045.96548 -15675974.36746  21019670.3054                   21019667.5664
 11  7 29  2 20  0.0000000  0  8G05G12G09G04G17G02G25G10
 -21943738.32848 -17084164.93446  21160305.0474                   21160302.1214
 -20872334.89848 -16260460.59446  20890600.9534                   20890597.2854
   4932559.90646   4112041.15643  24681687.2814                   24681686.9304
  -8090602.63747  -5275837.68444  22517098.0394                   22517095.1844
  12355123.96546   9651132.84444  23879543.0084                   23879540.3984
 -19417482.32448 -15077993.05546  20652543.8674                   20652538.5594
 -15822555.52047 -12323713.02745  23060530.6724                   23060530.3984
 -20079195.92648 -15618428.86346  21033723.4144                   21033720.6804
 11  7 29  2 20 30.0000000  0  8G05G12G09G04G17G02G25G10
 -21970931.67648 -17105354.52346  21155130.2034                   21155127.3204
 -20857730.55548 -16249080.57446  20893379.8524                   20893376.2584
   5058929.91846   4210511.20744  24705734.6484                   24705735.0634
  -7966509.23447  -5179141.55544  22540712.0704                   22540709.2774
  12462770.18046   9735013.01644  23900027.2344                   23900024.5004
 -19360723.88348 -15033765.70346  20663344.8134                   20663339.1604
 -15864158.81347 -12356131.19145  23052614.1414                   23052613.4104
 -20004733.90248 -15560406.49646  21047893.0234                   21047890.2624
 11  7 29  2 21  0.0000000  0  8G05G12G09G04G17G02G25G10
 -21997661.05948 -17126182.57446  21150043.6724                   21150040.7464
 -20842562.66848 -16237261.43046  20896266.0864                   20896262.8054
   5185276.41446   4308962.93744  24729777.8204                   24729778.3204
  -7842352.89547  -5082396.39144  22564338.1254                   22564335.6524
  12570607.55946   9819042.12944  23920547.8134                   23920545.3914
 -19303721.81648 -14989348.50846  20674191.7974                   20674186.1954
 -15905409.83647 -12388274.84445  23044764.5164                   23044763.8244
 -19929653.71148 -15501902.44146  21062180.7274                   21062177.5314
 11  7 29  2 21 30.0000000  0  8G05G12G09G04G17G02G25G10
 -22023927.82448 -17146650.14846  21145045.4454                   21145042.5594
 -20826833.68048 -16225005.07046  20899259.6484                   20899256.5394
   5311593.09846   4407391.43044  24753814.7274                   24753815.7814
  -7718138.72747  -4985606.16044  22587975.2424                   22587973.0124
  12678632.43046   9903217.34444  23941104.0164                   23941102.0234
 -19246481.19948 -14944745.41846  20685084.2114                   20685078.7544
 -15946309.49647 -12420144.70345  23036981.4454                   23036980.9104
 -19853960.15648 -15442920.43446  21076584.3914                   21076581.4414
 11  7 29  2 22  0.0000000  0  8G05G12G09G04G17G02G25G10
 -22049730.86348 -17166756.37946  21140135.0474                   21140131.6134
 -20810543.04748 -16212311.05146  20902359.6564                   20902355.9534
   5437875.47346   4505793.19544  24777846.3444                   24777846.5984
  -7593868.87147  -4888772.53545  22611622.9144                   22611620.2624
  12786843.98846   9987538.02044  23961696.1094                   23961694.4304
 -19189004.12148 -14899958.07846  20696021.9534                   20696016.7074
 -15986856.32847 -12451739.60545  23029265.3204                   23029265.2624
 -19777655.51648 -15383462.26646  21091104.6334                   21091101.7154
 11  7 29  2 22 30.0000000  0  8G05G12G09G04G17G02G25G10
 -22075065.01648 -17186497.23846  21135314.2734                   21135311.5274
 -20793687.07448 -16199176.51646  20905567.2584                   20905563.4804
   5564123.46946   4604168.17643  24801870.3914                   24801871.1454
  -7469542.33647  -4791894.75044  22635282.0634                   22635279.6804
  12895245.20346  10072006.50844  23982324.3674                   23982322.2154
 -19131289.03548 -14854985.28146  20707004.7114                   20706999.1054
 -16027044.86747 -12483055.32445  23021617.5784                   23021617.6604
 -19700738.50448 -15323526.91846  21105741.3364                   21105738.7114
 11  7 29  2 23  0.0000000  0  8G05G12G09G04G17G02G25G10
 -22099928.76248 -17205871.55546  21130582.9844                   21130579.7814
 -20776264.73448 -16185600.66046  20908882.3524                   20908879.0044
   5690333.60547   4702513.65243  24825887.2274                   24825887.7234
  -7345160.79347  -4694974.09445  22658950.7814                   22658948.1094
  13003836.05946  10156622.79344  24002988.7114                   24002986.2424
 -19073337.64848 -14809828.34846  20718032.1804                   20718026.9224
 -16066873.06347 -12514090.24245  23014038.4064                   23014038.3834
 -19623211.02348 -15263115.87546  21120494.5944                   21120491.4734
 11  7 29  2 23 30.0000000  0  8G05G12G09G04G17G02G25G10
 -22124322.25048 -17224879.42646  21125940.6644                   21125937.6994
 -20758277.73848 -16171584.80146  20912305.0944                   20912301.7854
   5816500.24646   4800825.25443  24849895.6564                   24849896.8094
  -7220728.44147  -4598013.84844  22682629.3524                   22682626.7154
  13112613.70346  10241384.60244  24023688.1254                   24023685.9774
 -19015153.65248 -14764490.18046  20729104.2504                   20729098.8794
 -16106340.89547 -12544844.35545  23006527.9384                   23006528.0044
 -19545076.89848 -15202232.12946  21135363.1644                   21135359.9774
 11  7 29  2 24  0.0000000  0  8G05G12G09G04G17G02G25G10
 -22148243.73848 -17243519.51646  21121388.9144                   21121385.4844
 -20739724.58648 -16157127.78946  20915835.6804                   20915832.0944
   5942620.55146   4899100.75043  24873895.6564                   24873896.4924
  -7096246.53547  -4501014.98044  22706317.4844                   22706314.9694
  13221578.31247  10326292.09044  24044423.9534                   24044421.2624
 -18956737.93748 -14718971.43446  20740220.7034                   20740215.2274
 -16145445.73847 -12575315.60945  22999086.4694                   22999086.4304
 -19466337.47348 -15140876.71946  21150346.7664                   21150343.9654
 11  7 29  2 24 30.0000000  0  8G05G12G09G04G17G02G25G10
 -22171692.45348 -17261791.20746  21116926.7734                   21116923.4144
 -20720606.56248 -16142230.61746  20919473.7034                   20919470.4104
   6068689.29746   4997336.05543  24897886.4144                   24897886.9144
  -6971718.68847  -4403980.32844  22730014.4454                   22730012.7194
  13330727.94947  10411343.78144  24065194.1334                   24065191.8754
 -18898094.12948 -14673274.95746  20751379.8914                   20751374.7504
 -16184187.19147 -12605503.69945  22991714.3284                   22991714.1334
 -19386996.56248 -15079052.62146  21165444.5944                   21165441.6954
 11  7 29  2 25  0.0000000  0  8G05G12G09G04G17G02G25G10
 -22194653.91048 -17279683.21546  21112557.0864                   21112553.8594
 -20700909.77748 -16126882.46946  20923221.7734                   20923218.4654
   6194716.05146   5095538.62543  24921867.8674                   24921868.6604
  -6847133.41847  -4306900.91844  22753721.9694                   22753720.3954
  13440075.55147  10496549.70344  24086001.8134                   24086000.0434
 -18839210.64548 -14627391.70746  20762585.2274                   20762579.8324
 -16222549.92647 -12635396.67245  22984414.0634                   22984414.0234
 -19307042.76648 -15016750.94146  21180659.0314                   21180656.1484
 11  7 29  2 25 30.0000000  0  8G05G12G09G04G17G02G25G10
 -22217135.71148 -17297201.47346  21108279.0554                   21108275.9184
 -20680642.79348 -16111090.01646  20927078.6804                   20927075.4494
   6320688.34045   5193698.76243  24945839.9064                   24945840.7814
  -6722501.87947  -4209785.46944  22777438.7194                   22777436.6684
  13549611.52747  10581902.42644  24106846.0704                   24106843.4264
 -18780098.05548 -14581329.93846  20773833.9774                   20773828.6484
 -16260540.97347 -12665000.02045  22977184.8674                   22977184.6134
 -19226487.24248 -14953980.39146  21195988.6644                   21195985.3834
 11  7 29  2 26  0.0000000  0  7G05G12G04G17G02G25G10
 -22239132.52348 -17314341.82046  21104093.0394                   21104089.7704
 -20659801.34448 -16094849.93046  20931044.6094                   20931041.3244
  -6597822.14547  -4112632.45345  22801164.3984                   22801162.6684
  13659339.07447  10667404.43444  24127726.4534                   24127724.0474
 -18720754.34848 -14535088.07846  20785126.6724                   20785121.6374
 -16298154.71547 -12694309.36345  22970027.0314                   22970026.3714
 -19145328.51248 -14890739.80946  21211432.4774                   21211429.6414
 11  7 29  2 26 30.0000000  0  7G05G12G04G17G02G25G10
 -22260642.12148 -17331102.52046  21099999.8594                   21099996.7464
 -20638383.96548 -16078161.05146  20935120.3524                   20935116.7544
  -6473095.63347  -4015442.98444  22824899.8364                   22824897.0904
  13769258.69146  10753056.10244  24148643.2664                   24148641.3484
 -18661180.63348 -14488666.98846  20796463.2504                   20796457.6524
 -16335388.46147 -12723322.60545  22962941.7194                   22962941.0664
 -19063567.82448 -14827030.15246  21226991.2114                   21226988.1334
 11  7 29  2 27  0.0000000  0  7G05G12G04G17G02G25G10
 -22281664.26248 -17347483.38346  21095999.3134                   21095996.0474
 -20616392.16448 -16061024.57446  20939305.0944                   20939301.3524
  -6348325.53547  -3918219.54344  22848642.6724                   22848640.4924
  13879368.28146  10838855.78944  24169596.7114                   24169593.7624
 -18601379.97748 -14442069.06646  20807842.8914                   20807837.6454
 -16372241.66047 -12752039.32845  22955928.4454                   22955927.7544
 -18981208.84848 -14762854.30546  21242663.4774                   21242660.5354
 11  7 29  2 27 30.0000000  0  7G05G12G04G17G02G25G10
 -22302196.45748 -17363482.46546  21092091.7894                   21092088.8714
 -20593824.24248 -16043439.16046  20943599.7344                   20943596.1374
  -6223512.41847  -3820962.58244  22872393.9694                   22872390.8444
  13989668.87546  10924804.31643  24190585.7894                   24190583.1604
 -18541353.08248 -14395294.85946  20819265.5394                   20819260.1764
 -16408711.07847 -12780456.98845  22948988.9694                   22948988.2304
 -18898252.36748 -14698212.86746  21258449.4144                   21258446.4694
 11  7 29  2 28  0.0000000  0  7G05G12G04G17G02G25G10
 -22322229.40648 -17379092.51646  21088280.3134                   21088276.9734
 -20570671.74248 -16025398.23846  20948005.4384                   20948001.8134
  -6098650.54347  -3723667.62944  22896154.3754                   22896151.5314
  14100167.26646  11010906.95343  24211613.3594                   24211610.7664
 -18481093.78148 -14348339.55146  20830732.4304                   20830727.0664
 -16444786.97347 -12808568.02745  22942123.0394                   22942123.4844
 -18814692.85248 -14633101.52746  21274350.3444                   21274347.8634
 11  7 29  2 28 30.0000000  0  7G05G12G04G17G02G25G10
 -22341771.42648 -17394320.02046  21084561.3524                   21084558.2114
 -20546944.33648 -16006909.34046  20952520.6564                   20952516.9654
  -5973751.69947  -3626343.85944  22919921.4144                   22919919.3014
  14210853.18046  11097155.74643  24232675.8204                   24232673.2154
 -18420613.75848 -14301212.25046  20842241.6024                   20842235.9264
 -16480477.48847 -12836378.76245  22935332.0864                   22935331.2734
 -18730542.64148 -14567529.90646  21290363.4924                   21290360.0864
 11  7 29  2 29  0.0000000  0  7G05G12G04G17G02G25G10
 -22360811.25048 -17409156.20746  21080937.8914                   21080934.8794
 -20522631.72748 -15987964.43446  20957146.9844                   20957143.5004
  -5848807.73447  -3528984.93444  22943697.5004                   22943695.2234
  14321736.58646  11183558.39143  24253776.5864                   24253773.7154
 -18359904.75048 -14253906.52746  20853794.2424                   20853788.5204
 -16515770.45747 -12863879.71945  22928615.4304                   22928615.0864
 -18645793.53148 -14501491.60546  21306490.5784                   21306487.7234
 11  7 29  2 29 30.0000000  0  7G05G12G04G17G02G25G10
 -23954778.88348 -18651208.87546  20777616.2034                   20777613.0204
 -22073163.39148 -17196170.90646  20662090.7034                   20662087.1684
  -7299247.31647  -4659197.59044  22667688.0394                   22667685.8134
  12857389.32446  10042508.59043  23975120.0164                   23975117.7274
 -19874397.24648 -15434030.53546  20565595.7114                   20565590.1764
 -18126096.03547 -14118678.83645  22622180.9144                   22622180.5784
 -20135875.92248 -15662594.74245  21022937.2194                   21022934.3164
 11  7 29  2 30  0.0000000  0  7G05G12G04G17G02G25G10
 -23972819.91048 -18665266.78146  20774183.0314                   20774180.0044
 -22047688.98848 -17176320.70346  20666938.4924                   20666934.9774
  -7174228.63347  -4561780.43744  22691478.1024                   22691476.0744
  12968655.35246  10129209.39143  23996293.2814                   23996290.3794
 -19813244.96548 -15386379.40646  20577232.6334                   20577226.9384
 -18160598.12148 -14145563.54345  22615615.1334                   22615614.8554
 -20049946.22348 -15595636.49646  21039289.4694                   21039286.2194
 11  7 29  2 30 30.0000000  0  7G05G12G04G17G02G25G10
 -23990361.85948 -18678935.80946  20770845.1254                   20770841.5164
 -22021635.55548 -17156019.30946  20671896.1564                   20671892.4064
  -7049177.64547  -4464338.09844  22715274.3524                   22715272.4224
  13080109.53546  10216056.82043  24017502.7974                   24017500.1214
 -19751875.73048 -15338559.21946  20588910.9304                   20588905.6524
 -18194704.17247 -14172139.65645  22609125.2274                   22609124.6954
 -19963432.12548 -15528222.87946  21055752.3914                   21055749.4964
 11  7 29  2 31  0.0000000  0  7G05G12G04G17G02G25G10
 -24007401.72748 -18692213.60246  20767602.5164                   20767599.3834
 -21995001.43048 -17135265.43446  20676964.4454                   20676960.8204
  -6924094.75447  -4366870.89844  22739077.3054                   22739075.2664
  13191753.22346  10303051.90643  24038746.8914                   24038744.9304
 -19690290.14148 -15290570.45346  20600630.0634                   20600624.7464
 -18228410.89147 -14198404.60945  22602710.9774                   22602710.6684
 -19876334.22348 -15460354.35245  21072326.3444                   21072323.6174
 11  7 29  2 31 30.0000000  0  7G05G12G04G17G02G25G10
 -24023939.68747 -18705100.29346  20764454.9774                   20764452.1994
 -21967788.30948 -17114060.39546  20682142.7814                   20682139.4384
  -6798983.46147  -4269381.57044  22762885.2424                   22762882.6414
  13303584.11346  10390192.85943  24060028.2734                   24060026.2114
 -19628491.37148 -15242415.55946  20612390.1174                   20612384.6684
 -18261717.93747 -14224358.12945  22596372.6254                   22596372.6914
 -19788656.60248 -15392034.09045  21089010.9224                   21089007.9884
 11  7 29  2 32  0.0000000  0  7G05G12G04G17G02G25G10
 -24039973.96148 -18717594.49646  20761403.8914                   20761400.7464
 -21939994.89848 -17092403.18046  20687431.8984                   20687428.5004
  -6673844.78147  -4171870.91044  22786698.1644                   22786695.6844
  13415602.20746  10477479.65643  24081345.0634                   24081342.3444
 -19566480.50448 -15194095.39146  20624190.2274                   20624185.0314
 -18294622.75447 -14249998.24245  22590111.2194                   22590110.7664
 -19700401.01248 -15323263.46146  21105805.3364                   21105802.2774
 11  7 29  2 32 30.0000000  0  7G05G12G04G17G02G25G10
 -24055501.57447 -18729693.91446  20758449.3134                   20758445.8634
 -21911619.48048 -17070292.45746  20692831.4694                   20692827.4614
  -6548678.80547  -4074338.97344  22810516.5634                   22810514.1804
  13527808.71147  10564913.32444  24102696.6024                   24102695.4184
 -19504257.41048 -15145609.87946  20636030.7424                   20636025.3324
 -18327121.59847 -14275322.01245  22583926.9614                   22583926.5554
 -19611568.08248 -15254042.97346  21122709.9774                   21122706.9344
 11  7 29  2 33  0.0000000  0  7G05G12G04G17G02G25G10
 -24070518.77048 -18741395.58646  20755591.4224                   20755587.9344
 -21882659.48848 -17047726.22346  20698342.2734                   20698338.7114
  -6423485.09447  -3976785.43744  22834340.0394                   22834337.4774
  13640205.29347  10652495.10244  24124085.3754                   24124082.9264
 -19441821.52348 -15096958.55146  20647912.0944                   20647906.6254
 -18359210.41847 -14300326.28145  22577820.4924                   22577820.3834
 -19522157.80948 -15184372.59846  21139723.7584                   21139721.1214
 11  7 29  2 33 30.0000000  0  7G05G12G04G17G02G25G10
 -24085025.45748 -18752699.47346  20752830.9844                   20752827.7624
 -21853115.94948 -17024705.27746  20703964.6644                   20703960.7934
  -6298266.50047  -3879212.51644  22858168.2584                   22858166.0234
  13752790.33247  10740223.70744  24145509.2274                   24145507.7584
 -19379175.82048 -15048143.72346  20659833.2734                   20659827.9454
 -18390888.41847 -14325010.43445  22571792.4454                   22571792.0904
 -19432173.92247 -15114255.25446  21156847.1954                   21156844.1374
 11  7 29  2 34  0.0000000  0  7G05G12G04G17G02G25G10
 -24099024.22348 -18763607.57446  20750167.0864                   20750163.8594
 -21822992.77748 -17001232.68046  20709696.4694                   20709693.5004
  -6173028.66447  -3781624.58644  22882000.0944                   22881998.0124
  13865559.50447  10828095.80544  24166968.6414                   24166966.7274
 -19316325.70348 -14999169.60946  20671793.1484                   20671787.8094
 -18422157.61347 -14349376.04345  22565842.0394                   22565841.5824
 -19341622.71148 -15043695.84445  21174078.6334                   21174075.7974
 11  7 29  2 34 30.0000000  0  7G05G12G04G17G02G25G10
 -24112512.74648 -18774118.08246  20747600.1094                   20747596.9104
 -21792288.00448 -16977306.87946  20715539.6334                   20715535.6644
  -6047771.53147  -3684021.56644  22905835.7344                   22905833.5314
  13978513.74247  10916112.11344  24188463.2974                   24188460.9844
 -19253271.08648 -14950036.15246  20683791.8204                   20683786.7424
 -18453014.45347 -14373420.33645  22559970.5394                   22559970.0664
 -19250504.79748 -14972694.84445  21191417.4774                   21191414.6334
 11  7 29  2 35  0.0000000  0  8G05G12G04G17G02G25G29G10
 -24125482.61748 -18784224.44546  20745131.9144                   20745128.8014
 -21760994.95348 -16952922.68046  20721494.6884                   20721490.7814
  -5922490.81647  -3586400.21544  22929676.3834                   22929674.1524
  14091658.42247  11004276.81644  24209993.5554                   24209991.7934
 -19190007.39548 -14900739.76646  20695831.0004                   20695825.4494
 -18483450.81247 -14397136.97345  22554178.6254                   22554178.1454
 -12643128.79757  -9844521.31254  24596394.7734                   24596394.0274
 -19158816.56247 -14901249.42646  21208865.5944                   21208862.2704
 11  7 29  2 35 30.0000000  0  8G05G12G04G17G02G25G29G10
 -24137936.06648 -18793928.40646  20742762.0314                   20742759.1724
 -21729117.26648 -16928082.92246  20727560.6954                   20727556.7114
  -5797191.15247  -3488764.09844  22953519.5704                   22953517.7544
  14204990.39847  11092587.45744  24231560.6884                   24231558.6804
 -19126539.34448 -14851284.14846  20707908.3364                   20707903.0554
 -18513467.86747 -14420526.88345  22548466.4224                   22548466.1954
 -12680701.27047  -9873798.52044  24589245.2894                   24589244.5664
 -19066563.62947 -14829363.99245  21226420.5234                   21226417.8874
 11  7 29  2 36  0.0000000  0  8G05G12G04G17G02G25G29G10
 -24149869.21148 -18803226.92646  20740491.3284                   20740488.2584
 -21696651.99248 -16902785.30546  20733738.5554                   20733734.4844
  -5671871.70747  -3391112.56644  22977366.9694                   22977364.6764
  14318511.75847  11181045.68444  24253163.1484                   24253160.6414
 -19062865.98848 -14801668.54746  20720024.9844                   20720019.4774
 -18543061.10947 -14443586.54345  22542834.9774                   22542834.5354
 -12718334.70747  -9903123.25844  24582083.6644                   24582083.0984
 -18973745.66047 -14757038.28145  21244083.0944                   21244080.2304
 11  7 29  2 36 30.0000000  0  8G05G12G04G17G02G25G29G10
 -24161290.82048 -18812126.84846  20738318.0474                   20738314.7074
 -21663608.97748 -16877037.50046  20740026.4614                   20740022.8674
  -5546544.02347  -3293454.63344  23001216.1094                   23001213.6644
  14432212.11347  11269643.37944  24274798.8754                   24274796.7194
 -18998998.81648 -14751901.92646  20732178.4384                   20732173.0124
 -18572238.58647 -14466322.21945  22537282.7664                   22537282.3754
 -12756039.04747  -9932503.27044  24574909.0634                   24574907.8874
 -18880375.29747 -14684282.12945  21261850.7584                   21261847.6214
 11  7 29  2 37  0.0000000  0  8G05G12G04G17G02G25G29G10
 -24172197.26248 -18820625.33246  20736242.5634                   20736239.4534
 -21629985.57848 -16850837.44946  20746424.9064                   20746420.9844
  -5421207.17247  -3195789.53944  23025067.0084                   23025064.5124
  14546092.98446  11358381.74644  24296469.4224                   24296467.4454
 -18934936.95748 -14701983.59046  20744368.8204                   20744364.1024
 -18600995.93047 -14488730.51645  22531810.2894                   22531809.3554
 -12793812.05547  -9961936.79344  24567721.0164                   24567719.8094
 -18786452.66847 -14611095.64845  21279723.8754                   21279720.3914
 11  7 29  2 37 30.0000000  0  8G05G12G04G17G02G25G29G10
 -24182582.62148 -18828717.79746  20734266.1484                   20734263.4384
 -21595777.39148 -16824181.71946  20752934.5784                   20752930.8794
  -5295858.19147  -3098115.01644  23048920.5474                   23048917.8404
  14660158.59046  11447264.02743  24318175.7894                   24318173.5394
 -18870677.43048 -14651911.23446  20756597.0554                   20756591.8524
 -18629326.63347 -14510806.35545  22526418.8914                   22526418.4654
 -12831649.14846  -9991420.25843  24560521.0554                   24560520.2114
 -18691975.32448 -14537476.92645  21297702.1174                   21297699.1094
 11  7 29  2 38  0.0000000  0  8G05G12G04G17G02G25G29G10
 -24192445.28948 -18836402.95746  20732389.1804                   20732386.5784
 -21560983.68448 -16797069.74246  20759555.3834                   20759551.5434
  -5170497.83247  -3000431.57444  23072775.3834                   23072773.4144
  14774409.27346  11536290.52343  24339916.7034                   24339914.6684
 -18806221.23848 -14601685.61746  20768862.7114                   20768857.5904
 -18657228.14547 -14532547.75845  22521109.6094                   22521109.2704
 -12869549.38346 -10020952.91843  24553308.7034                   24553307.9414
 -18596945.13747 -14463427.41445  21315785.7114                   21315782.8874
 11  7 29  2 38 30.0000000  0  8G05G12G04G17G02G25G29G10
 -24201782.74648 -18843678.85946  20730612.4144                   20730609.1094
 -21525603.25448 -16769500.57846  20766287.9694                   20766284.1414
  -5045126.98447  -2902739.98044  23096632.7344                   23096630.4494
  14888845.34446  11625461.49243  24361693.1954                   24361691.3554
 -18741568.72348 -14551307.02746  20781165.3984                   20781160.6684
 -18684697.60947 -14553952.49645  22515882.2344                   22515881.7424
 -12907511.68746 -10050533.95743  24546084.3834                   24546083.8484
 -18501363.56247 -14388948.25846  21333974.4144                   21333971.2734
 11  7 29  2 39  0.0000000  0  8G05G12G04G17G02G25G29G10
 -24210591.79748 -18850543.02746  20728935.9064                   20728933.0594
 -21489634.44948 -16741472.93746  20773132.5554                   20773128.9614
  -4919745.11347  -2805039.82044  23120492.2114                   23120489.7504
  15003467.83646  11714777.68043  24383505.0004                   24383503.1174
 -18676719.25448 -14500774.97346  20793506.1724                   20793501.2664
 -18711731.06647 -14575017.48845  22510738.2034                   22510737.7384
 -12945533.94146 -10080161.68743  24538848.8984                   24538848.2504
 -18405231.19147 -14314039.92245  21352268.0394                   21352265.0234
 11  7 29  2 39 30.0000000  0  8G05G12G04G17G02G25G29G10
 -24218871.00448 -18856994.33246  20727360.5394                   20727357.5904
 -21453076.83648 -16712986.48446  20780089.5314                   20780085.6454
  -4794353.20747  -2707331.85244  23144353.5234                   23144351.0004
  15118277.47746  11804239.74242  24405352.5084                   24405350.4344
 -18611674.01248 -14450090.36746  20805883.9844                   20805878.7624
 -18738326.18447 -14595740.91445  22505676.8444                   22505675.9884
 -12983615.80146 -10109835.88342  24531602.1334                   24531601.2194
 -18308550.23847 -14238704.10246  21370665.5474                   21370662.2464
 11  7 29  2 40  0.0000000  0  8G05G12G04G17G02G25G29G10
 -24226620.84048 -18863033.13346  20725885.6254                   20725882.6844
 -21415931.60248 -16684042.15246  20787157.8524                   20787154.1054
  -4668954.21146  -2609618.36744  23168215.4144                   23168213.4614
  15233271.95346  11893845.72343  24427235.0634                   24427234.1094
 -18546435.96548 -14399255.53546  20818298.1884                   20818293.1954
 -18764482.58247 -14616122.47345  22500700.0164                   22500699.1374
 -13021758.53546 -10139557.49242  24524343.4774                   24524343.1884
 -18211324.78947 -14162944.01645  21389167.0314                   21389163.7704
 11  7 29  2 40 30.0000000  0  8G05G12G04G17G02G25G29G10
 -24233846.07448 -18868663.16046  20724511.0004                   20724507.7894
 -21378204.86348 -16654644.69146  20794336.9694                   20794333.1334
  -4543555.61747  -2511905.16844  23192078.3984                   23192076.2034
  15348444.53546  11983590.61342  24449151.9924                   24449149.8324
 -18481012.87548 -14348276.52046  20830747.8674                   20830742.6214
 -18790204.40647 -14636165.40245  22495804.6254                   22495804.4344
 -13059967.85046 -10169330.96342  24517073.1724                   24517072.7304
 -18113563.28547 -14086766.22745  21407770.6414                   21407767.1604
 11  7 29  2 41  0.0000000  0  8G05G12G04G17G02G25G29G10
 -24240530.18048 -18873871.53546  20723238.9534                   20723235.8244
 -21339881.59048 -16624782.40646  20801629.4534                   20801625.7504
  -4418143.75847  -2414181.64544  23215943.7114                   23215941.2934
  15463809.89146  12073485.73042  24471105.3444                   24471103.1294
 -18415390.60548 -14297142.30146  20843235.2894                   20843230.3954
 -18815474.46947 -14655856.30545  22490995.6954                   22490995.3914
 -13098228.22346 -10199144.27043  24509792.1414                   24509791.7934
 -18015252.96947 -14010160.79345  21426478.5554                   21426475.2194
 11  7 29  2 41 30.0000000  0  8G05G12G04G17G02G25G29G10
 -24246674.09048 -18878658.96546  20722069.6254                   20722066.8054
 -21300963.51648 -16594456.62546  20809035.6094                   20809031.9184
  -4292721.60547  -2316450.10944  23239809.8364                   23239808.1844
  15579366.23446  12163529.64543  24493095.4924                   24493092.8484
 -18349572.54348 -14245855.52346  20855760.1414                   20855754.8484
 -18840292.59447 -14675195.06645  22486273.2194                   22486272.6484
 -13136541.46946 -10228998.71543  24502501.3364                   24502500.4924
 -17916398.16047 -13933131.08645  21445289.6884                   21445286.7854
 11  7 29  2 42  0.0000000  0  8G05G12G04G17G02G25G29G10
 -24252284.36748 -18883030.59046  20721002.4304                   20720998.8404
 -21261458.87548 -16563673.80146  20816552.8524                   20816549.2664
  -4167298.72347  -2218717.99244  23263677.6954                   23263675.4654
  15695105.07046  12253715.77043  24515120.2734                   24515117.0944
 -18283568.06648 -14194423.47746  20868320.3674                   20868315.2304
 -18864664.92247 -14694186.44145  22481635.2194                   22481634.8984
 -13174915.01646 -10258900.14543  24495199.1024                   24495198.0784
 -17817009.57847 -13855685.44545  21464202.6564                   21464199.3984
 11  7 29  2 42 30.0000000  0  8G05G12G04G17G02G25G29G10
 -24257351.93448 -18886979.31646  20720037.8134                   20720034.6094
 -21221359.55548 -16532427.57046  20824183.4304                   20824180.1884
  -4041868.50447  -2120980.15644  23287546.0084                   23287544.4104
  15811033.81347  12344049.86743  24537180.2504                   24537178.2664
 -18217370.30948 -14142840.82046  20880917.1564                   20880912.4414
 -18888581.48448 -14712822.67245  22477084.6954                   22477083.9224
 -13213340.89547 -10288842.33643  24487887.2814                   24487886.0274
 -17717081.64148 -13777819.53145  21483218.2344                   21483215.4184
 11  7 29  2 43  0.0000000  0  8G05G12G04G17G02G25G29G10
 -24261878.98448 -18890506.87146  20719176.4064                   20719172.9534
 -21180669.01248 -16500720.65246  20831926.5864                   20831923.2074
  -3916435.43447  -2023240.11344  23311415.6414                   23311413.3164
  15927148.53147  12434528.85543  24559276.3674                   24559273.8914
 -18150984.28948 -14091111.46546  20893550.0314                   20893545.2114
 -18912043.64147 -14731104.83245  22472619.2894                   22472618.8594
 -13251821.96947 -10318827.53544  24480564.5634                   24480563.5704
 -17616620.14848 -13699537.85945  21502335.5864                   21502332.4804
 11  7 29  2 43 30.0000000  0  8G05G12G04G17G02G25G29G10
 -24265865.90648 -18893613.53946  20718417.7194                   20718414.2854
 -21139388.92648 -16468554.35246  20839782.2344                   20839778.6094
  -3791002.29747  -1925500.03144  23335284.5784                   23335282.4964
  16043447.37947  12525151.34043  24581407.0164                   24581405.0124
 -18084412.74648 -14039237.53946  20906218.4774                   20906213.3164
 -18935050.96148 -14749032.57045  22468241.1884                   22468240.6884
 -13290359.44947 -10348856.63344  24473230.8054                   24473229.9414
 -17515629.18747 -13620843.61345  21521553.4614                   21521550.2704
 11  7 29  2 44  0.0000000  0  8G05G12G04G17G02G25G29G10
 -24269316.44548 -18896302.24646  20717760.8914                   20717757.5944
 -21097523.95348 -16435932.28946  20847748.7274                   20847744.9144
  -3665575.23446  -1827764.66044  23359152.9304                   23359150.5824
  16159925.03947  12615913.16044  24603572.1484                   24603569.9064
 -18017661.57448 -13987223.64146  20918920.9304                   20918915.7624
 -18957606.32447 -14766608.13745  22463949.2734                   22463948.3634
 -13328957.82047 -10378933.18744  24465885.2034                   24465884.8594
 -17414116.10548 -13541742.52045  21540871.0554                   21540868.1214
 11  7 29  2 44 30.0000000  0  7G05G12G04G02G25G29G10
 -24272230.34048 -18898572.78946  20717206.5784                   20717203.1374
 -21055075.53948 -16402855.60246  20855826.4454                   20855822.9384
  -3540156.46947  -1730035.76644  23383019.4924                   23383017.0084
 -17950733.09048 -13935071.56646  20931656.5784                   20931651.7304
 -18979708.73048 -14783830.74245  22459743.1884                   22459742.6454
 -13367617.62946 -10409057.59444  24458528.6954                   24458528.3594
 -17312084.68748 -13462237.52745  21560286.7344                   21560283.7384
 11  7 29  2 45  0.0000000  0  7G05G12G04G02G25G29G10
 -24274598.78548 -18900418.30946  20716755.7974                   20716752.7464
 -21012035.93448 -16369318.24646  20864016.4454                   20864013.6174
  -3414739.80547  -1632308.54344  23406885.0784                   23406883.2464
 -17883621.17648 -13882776.55946  20944427.7664                   20944422.7194
 -19001348.67247 -14800692.99245  22455625.4224                   22455624.6294
 -13406330.85546 -10439223.64144  24451162.6024                   24451160.8554
 -17209529.62548 -13382324.50445  21579802.4454                   21579799.1374
 11  7 29  2 45 30.0000000  0  7G05G12G04G02G25G29G10
 -24276410.59448 -18901830.08246  20716411.0944                   20716407.6454
 -20968394.96148 -16335312.28546  20872321.0634                   20872317.8324
  -3289315.74247  -1534575.54344  23430752.3754                   23430750.3554
 -17816317.01648 -13830331.75446  20957235.4384                   20957230.0634
 -19022513.79347 -14817185.26246  22451597.6414                   22451597.0314
 -13445086.65646 -10469422.84444  24443786.4844                   24443785.9344
 -17106442.99648 -13301997.28545  21599419.3444                   21599416.0704
 11  7 29  2 46  0.0000000  0  7G05G12G04G02G25G29G10
 -24277667.69548 -18902809.62946  20716171.7114                   20716168.7814
 -20924155.40248 -16300839.89846  20880739.6644                   20880736.3404
  -3163888.62947  -1436840.12944  23454620.5474                   23454618.7504
 -17748824.28548 -13777739.99646  20970078.6724                   20970073.4414
 -19043205.09047 -14833308.32045  22447660.0864                   22447659.5744
 -13483887.58246 -10499657.20744  24436403.4844                   24436402.2344
 -17002830.30148 -13221260.12545  21619135.7504                   21619132.7814
 11  7 29  2 46 30.0000000  0  7G05G12G04G02G25G29G10
 -24278365.96148 -18903353.70746  20716038.5084                   20716035.6684
 -20879315.21548 -16265899.48446  20889272.4614                   20889268.8204
  -3038456.81647  -1339101.08644  23478489.7504                   23478487.0594
 -17681141.56648 -13725000.18746  20982958.3054                   20982952.9384
 -19063417.99648 -14849058.59845  22443813.9454                   22443813.2934
 -13522730.43046 -10529924.23843  24429010.8284                   24429010.8244
 -16898691.61347 -13140113.10245  21638952.8204                   21638949.6604
 11  7 29  2 47  0.0000000  0  7G05G12G04G02G25G29G10
 -24278511.30948 -18903466.94146  20716011.3204                   20716008.0824
 -20833881.27748 -16230496.40246  20897918.0784                   20897914.5904
  -2913028.30947  -1241364.60244  23502357.6334                   23502355.2934
 -17613276.83648 -13672118.53946  20995872.5474                   20995867.4414
 -19083157.32847 -14864439.85945  22440057.5234                   22440057.0234
 -13561621.73446 -10560228.99643  24421609.9614                   24421609.7074
 -16794035.90647 -13058563.20745  21658868.2734                   21658865.1644
 11  7 29  2 47 30.0000000  0  7G05G12G04G02G25G29G10
 -24278105.67248 -18903150.84046  20716088.1334                   20716085.2504
 -20787857.14848 -16194633.43746  20906676.0634                   20906672.7194
  -2787607.32047  -1143633.99244  23526224.1884                   23526222.5664
 -17545234.22348 -13619098.28546  21008820.4694                   21008815.6024
 -19102424.25447 -14879453.01645  22436391.3674                   22436390.5474
 -13600563.97346 -10590573.47343  24414199.3524                   24414198.9574
 -16688869.15247 -12976615.10545  21678880.2814                   21678877.4804
 11  7 29  2 48  0.0000000  0  7G05G12G04G02G25G29G10
 -25852564.34048 -20130001.72746  20416478.8674                   20416475.6724
 -22316657.00048 -17385906.04746  20615755.3204                   20615751.8754
  -4237606.82447  -2273503.77044  23250298.8834                   23250296.4654
 -19052429.21948 -14793535.90646  20722010.7664                   20722005.8554
 -20696633.50047 -16121693.95346  22133023.1254                   22133022.8094
 -15214973.68846 -11848554.93043  24106988.0164                   24106987.1054
 -18158606.34047 -14121864.86345  21399199.3444                   21399195.8794
 11  7 29  2 48 30.0000000  0  7G05G12G04G02G25G29G10
 -25851047.33248 -20128819.62546  20416767.5314                   20416764.5554
 -22269445.29748 -17349117.70746  20624739.3134                   20624735.7854
  -4112197.34446  -2175782.13344  23274163.5394                   23274161.7034
 -18984028.40648 -14740236.51246  20735027.2504                   20735022.0944
 -20714942.95748 -16135961.03545  22129538.8204                   22129537.8554
 -15254009.15646 -11878972.05943  24099559.5864                   24099558.7974
 -18052418.18447 -14039120.85545  21419405.9844                   21419403.1174
 11  7 29  2 49  0.0000000  0  7G05G12G04G02G25G29G10
 -25848972.41448 -20127202.77747  20417162.1334                   20417158.8164
 -22221639.59048 -17311866.49246  20633836.5234                   20633833.1254
  -3986794.74646  -2078065.94144  23298026.8204                   23298024.7274
 -18915449.64548 -14686798.45746  20748076.9534                   20748072.0274
 -20732770.25448 -16149852.40246  22126146.3134                   22126145.7544
 -15293090.07446 -11909424.58643  24092123.2034                   24092121.5514
 -17945722.87147 -13955981.66845  21439709.6484                   21439706.6844
 11  7 29  2 49 30.0000000  0  7G05G12G04G02G25G29G10
 -25846342.44148 -20125153.42246  20417662.7114                   20417659.7034
 -22173244.60948 -17274156.11346  20643045.8754                   20643042.5554
  -3861403.68846  -1980358.59843  23321887.8364                   23321885.9774
 -18846697.85248 -14633225.56646  20761160.2504                   20761154.9064
 -20750117.41448 -16163369.64846  22122845.4304                   22122844.9384
 -15332219.60946 -11939915.03143  24084676.5784                   24084675.4224
 -17838526.81647 -13872452.28545  21460108.1644                   21460105.2584
 11  7 29  2 50  0.0000000  0  7G05G12G04G02G25G29G10
 -25843157.98048 -20122672.00447  20418268.6174                   20418265.5704
 -22124261.92248 -17235987.77746  20652366.8674                   20652363.4414
  -3736026.89146  -1882662.37943  23345746.4454                   23345744.3204
 -18777775.82048 -14579520.02346  20774275.5944                   20774270.3754
 -20766983.94948 -16176512.36345  22119635.7194                   22119635.2234
 -15371398.95747 -11970444.26643  24077221.1884                   24077219.8094
 -17730834.03547 -13788535.85245  21480601.3984                   21480598.2774
 11  7 29  2 50 30.0000000  0  7G05G12G04G02G25G29G10
 -25839417.23848 -20119757.11347  20418980.3204                   20418977.4734
 -22074690.71548 -17197360.85946  20661799.8284                   20661796.6604
  -3610664.58646  -1784977.51643  23369602.1484                   23369599.4384
 -18708683.47348 -14525681.75046  20787423.4924                   20787418.1414
 -20783367.20348 -16189278.50445  22116517.8364                   22116517.5594
 -15410626.13847 -12001010.79943  24069756.7034                   24069754.5594
 -17622646.19947 -13704233.65645  21501189.1094                   21501185.7544
 11  7 29  2 51  0.0000000  0  7G05G12G04G02G25G29G10
 -25835120.38348 -20116408.89146  20419798.2974                   20419794.8834
 -22024532.43048 -17158276.48446  20671344.9534                   20671341.3634
  -3485318.65646  -1687305.37144  23393454.8204                   23393452.7384
 -18639423.05148 -14471712.51246  20800603.0234                   20800597.5664
 -20799266.09048 -16201667.23046  22113492.6024                   22113492.1374
 -15449901.61347 -12031614.96943  24062282.5004                   24062280.1764
 -17513966.77047 -13619548.40245  21521869.6334                   21521866.6604
 11  7 29  2 51 30.0000000  0  7G05G12G04G02G25G29G10
 -25830262.20348 -20112623.27047  20420722.8054                   20420719.5664
 -21973783.43448 -17118731.81246  20681001.9614                   20680998.5394
  -3359985.98847  -1589643.53943  23417303.9064                   23417302.1054
 -18569992.02048 -14417610.32046  20813815.3204                   20813809.8794
 -20814675.00048 -16213674.13745  22110560.4844                   22110560.0204
 -15489220.89147 -12062253.25043  24054800.1724                   24054797.6134
 -17404794.87147 -13534479.41045  21542645.2274                   21542641.5124
 11  7 29  2 52  0.0000000  0  7G05G12G04G02G25G29G10
 -25824840.94148 -20108398.88747  20421754.2974                   20421751.0864
 -21922443.24248 -17078726.46146  20690771.6094                   20690767.9774
  -3234666.60547  -1491992.09043  23441152.3984                   23441149.9614
 -18500389.81648 -14363374.77746  20827060.0164                   20827054.7624
 -20829590.84848 -16225296.84446  22107722.0314                   22107721.3834
 -15528582.27347 -12092924.34043  24047309.3134                   24047307.7854
 -17295131.60247 -13449027.50845  21563513.1954                   21563510.0594
 11  7 29  2 52 30.0000000  0  7G05G12G04G02G25G29G10
 -25818860.84448 -20103739.05147  20422892.1564                   20422889.3134
 -21870517.07048 -17038264.52046  20700652.9924                   20700649.7544
  -3109366.66047  -1394355.77343  23464996.2194                   23464993.4734
 -18430622.85248 -14309010.84446  20840336.1254                   20840330.7424
 -20844016.83248 -16236537.83646  22104977.0474                   22104975.9774
 -15567990.01646 -12123631.58644  24039810.2194                   24039808.8444
 -17184984.98847 -13363198.99645  21584473.2194                   21584469.6994
 11  7 29  2 53  0.0000000  0  7G05G12G04G02G25G29G10
 -25812314.41448 -20098637.91846  20424137.9844                   20424134.5864
 -21817998.67648 -16997341.09846  20710646.8284                   20710643.5044
  -2984080.56347  -1296730.27743  23488837.3524                   23488834.8794
 -18360685.50048 -14254514.13346  20853644.6334                   20853639.3984
 -20857944.56348 -16247390.58246  22102326.4534                   22102325.7814
 -15607436.98846 -12154369.37144  24032303.8984                   24032302.4184
 -17074351.09847 -13276990.78545  21605526.4614                   21605523.1024
 11  7 29  2 53 30.0000000  0  7G05G12G04G02G25G29G10
 -25805202.47348 -20093096.12547  20425491.5314                   20425487.8834
 -21764890.27048 -16955957.93046  20720753.2344                   20720749.7034
  -2858810.90647  -1199117.57444  23512675.2114                   23512672.7934
 -18290580.99648 -14199887.17246  20866985.1024                   20866979.7234
 -20871374.03548 -16257855.07446  22099770.8674                   22099770.2154
 -15646924.41446 -12185138.70744  24024790.0704                   24024787.9844
 -16963234.19147 -13190406.19545  21626670.9844                   21626667.6484
 11  7 29  2 54  0.0000000  0  7G05G12G04G02G25G29G10
 -25797528.32848 -20087116.26246  20426951.4844                   20426948.1094
 -21711196.53548 -16914118.65246  20730970.6414                   20730967.0124
  -2733562.30947  -1101521.23444  23536509.5864                   23536506.4064
 -18220314.17248 -14145133.75046  20880356.6094                   20880351.3554
 -20884307.38348 -16267932.97346  22097309.8054                   22097309.1644
 -15686455.26246 -12215941.87944  24017266.7894                   24017265.8794
 -16851640.92647 -13103450.41045  21647906.6484                   21647902.9924
 11  7 29  2 54 30.0000000  0  7G05G12G04G02G25G29G10
 -25789292.74648 -20080698.90646  20428518.7274                   20428515.4304
 -21656919.69148 -16871825.01646  20741299.2584                   20741295.8524
  -2608338.00047  -1003943.85244  23560339.1804                   23560336.6254
 -18149888.07048 -14090256.21946  20893758.0944                   20893752.9844
 -20896744.71148 -16277624.37146  22094942.7424                   22094942.2934
 -15726030.96546 -12246780.02744  24009736.3984                   24009734.4304
 -16739575.92247 -13016127.04745  21669231.7894                   21669228.3164
 11  7 29  2 55  0.0000000  0  7G05G12G04G02G25G29G10
 -25780491.25048 -20073840.59046  20430193.4304                   20430190.2034
 -21602055.85548 -16829073.97746  20751739.5944                   20751735.8014
  -2483134.14547   -906382.43444  23584164.5164                   23584162.2894
 -18079299.08648 -14035251.78946  20907190.8364                   20907184.5864
 -20908679.80948 -16286924.41846  22092671.8754                   22092671.2344
 -15765646.00446 -12277648.81644  24002197.4144                   24002195.9534
 -16627037.53147 -12928434.82045  21690647.3444                   21690644.1524
 11  7 29  2 55 30.0000000  0  7G05G12G04G02G25G29G10
 -25771123.05548 -20066540.68447  20431976.4774                   20431972.7584
 -21546606.14148 -16785866.41046  20762291.1334                   20762287.7974
  -2357952.33647   -808838.14544  23607985.3134                   23607983.5164
 -18008548.87148 -13980121.71946  20920654.1024                   20920648.8094
 -20920111.38348 -16295832.11746  22090496.2034                   22090495.8014
 -15805300.57446 -12308548.42244  23994650.5314                   23994649.9104
 -16514028.84047 -12840376.10945  21712151.9304                   21712148.7624
 11  7 29  2 56  0.0000000  0  7G05G12G04G02G25G29G10
 -25761186.59048 -20058797.98447  20433867.2034                   20433863.6024
 -21490570.09848 -16742201.96546  20772954.3914                   20772950.7464
  -2232792.52747   -711311.03944  23631802.7274                   23631800.7034
 -17937637.71548 -13924866.25046  20934148.1724                   20934142.2774
 -20931036.83248 -16304345.43046  22088417.3834                   22088416.5704
 -15844992.90246 -12339477.48444  23987097.7584                   23987096.7424
 -16400551.47348 -12751952.19945  21733746.0394                   21733743.2344
 11  7 29  2 56 30.0000000  0  7G05G12G04G02G25G29G10
 -25750679.83248 -20050610.89546  20435866.5554                   20435863.2114
 -21433946.97348 -16698080.05546  20783729.6024                   20783726.2114
  -2107654.04347   -613800.55143  23655615.3674                   23655613.4024
 -17866564.83648 -13869484.77046  20947672.8364                   20947667.1454
 -20941453.01648 -16312461.91446  22086435.0164                   22086434.3324
 -15884721.08846 -12370434.53144  23979538.1564                   23979536.8204
 -16286607.16847 -12663164.43845  21755428.9454                   21755425.5664
 11  7 29  2 57  0.0000000  0  7G05G12G04G02G25G29G10
 -25739603.37548 -20041979.89847  20437974.2734                   20437970.9614
 -21376738.04348 -16653501.66446  20794615.8914                   20794612.3914
  -1982538.79347   -516308.19944  23679424.5314                   23679422.5234
 -17795332.29748 -13813978.89546  20961227.8834                   20961222.3284
 -20951359.11748 -16320180.92646  22084549.8284                   22084549.3244
 -15924484.80546 -12401419.20744  23971971.4924                   23971970.2774
 -16172199.48847 -12574015.61345  21777200.1024                   21777196.7624
 11  7 29  2 57 30.0000000  0  7G05G12G04G02G25G29G10
 -25727958.08248 -20032905.62946  20440190.3594                   20440187.1764
 -21318946.56648 -16608469.34846  20805613.5554                   20805609.9414
  -1857449.68847   -418836.20744  23703228.2114                   23703225.9024
 -17723943.55548 -13758351.28946  20974812.2424                   20974806.8954
 -20960755.71548 -16327502.92246  22082761.9844                   22082761.4344
 -15964285.44946 -12432432.64144  23964397.4384                   23964396.6684
 -16057333.32447 -12484509.51245  21799058.1174                   21799055.2114
 11  7 29  2 58  0.0000000  0  7G05G12G04G02G25G29G10
 -25715742.86348 -20023387.27747  20442514.8914                   20442511.3914
 -21260571.93048 -16562982.62146  20816721.8134                   20816718.1884
  -1732386.71547   -321384.59843  23727027.0164                   23727024.7384
 -17652398.53548 -13702601.91446  20988427.1414                   20988421.8874
 -20969640.01648 -16334425.73046  22081071.5554                   22081070.5004
 -16004121.43846 -12463473.58244  23956816.8674                   23956815.4964
 -15942010.11747 -12394647.28945  21821003.5314                   21821000.5634
 11  7 29  2 58 30.0000000  0  7G05G12G04G02G25G29G10
 -25702957.45348 -20013424.61747  20444947.7814                   20444944.2704
 -21201615.78948 -16517042.77346  20827940.6724                   20827937.2234
  -1607351.12146   -223954.28143  23750820.0554                   23750818.3134
 -17580698.60248 -13646731.83246  21002071.2814                   21002065.4774
 -20978010.97748 -16340948.53546  22079478.3984                   22079477.9264
 -16043992.54746 -12494541.91044  23949229.6724                   23949228.3594
 -15826233.70747 -12304431.91845  21843035.1254                   21843031.9024
 11  7 29  2 59  0.0000000  0  7G05G12G04G02G25G29G10
 -25689597.47348 -20003014.24647  20447490.1094                   20447486.9414
 -21142075.13348 -16470647.46546  20839271.0394                   20839267.5164
  -1482340.18846   -126543.21143  23774608.4844                   23774607.1684
 -17508841.46948 -13590739.27346  21015745.2034                   21015739.5354
 -20985863.33248 -16347067.23046  22077984.0784                   22077983.5084
 -16083894.58647 -12525634.34444  23941636.6954                   23941634.9614
 -15710003.02347 -12213862.55545  21865152.9694                   21865150.5394
 11  7 29  2 59 30.0000000  0  7G05G12G04G02G25G29G10
 -25675663.49648 -19992156.59847  20450141.7114                   20450138.3674
 -21081951.12548 -16423797.59046  20850712.1884                   20850708.2704
  -1357355.81646    -29152.82843  23798392.6094                   23798390.6804
 -17436828.68848 -13534625.43046  21029448.6024                   21029443.3984
 -20993196.35548 -16352781.24646  22076588.4774                   22076587.8204
 -16123827.30546 -12556750.71544  23934037.6804                   23934036.0704
 -15593321.59447 -12122941.97745  21887356.9844                   21887353.8914
 11  7 29  3  0  0.0000000  0  7G05G12G04G02G25G29G10
 -25661159.80948 -19980855.02047  20452901.8914                   20452898.2894
 -21021249.62948 -16376497.71146  20862263.1644                   20862259.7034
  -1232403.28546     68212.74643  23822169.8914                   23822168.6644
 -17364666.09848 -13478394.85946  21043180.8524                   21043175.1454
 -21000013.17648 -16358093.03946  22075291.2274                   22075290.6804
 -16163794.50047 -12587893.94544  23926432.0314                   23926430.5634
 -15476197.05547 -12031676.10245  21909645.2194                   21909641.7624
 11  7 29  3  0 30.0000000  0  7G05G12G04G02G25G29G10
 -25646080.76248 -19969105.11347  20455771.3914                   20455768.1564
 -20959966.49248 -16328744.61746  20873924.9534                   20873921.9264
  -1107478.42246    165556.79743  23845942.7664                   23845940.9924
 -17292349.73848 -13422044.44146  21056942.3754                   21056936.4774
 -21006307.23848 -16362997.47746  22074093.5704                   22074093.0394
 -16203790.27747 -12619059.46544  23918821.2114                   23918818.9304
 -15358627.34047 -11940063.33245  21932017.4924                   21932014.5474
 11  7 29  3  1  0.0000000  0  7G05G12G04G02G25G29G10
 -25630423.27048 -19956904.46947  20458750.3524                   20458746.8484
 -20898099.44948 -16280536.53546  20885697.9924                   20885694.6174
   -982579.24646    262880.82444  23869710.4384                   23869708.2704
 -17219877.96548 -13365572.93446  21070732.8134                   21070727.8524
 -21012074.10948 -16367491.12146  22072996.4454                   22072995.6134
 -16243811.24247 -12650244.60244  23911205.4774                   23911203.5864
 -15240612.59047 -11848103.79345  21954475.0784                   21954471.9264
 11  7 29  3  1 30.0000000  0  7G05G12G04G02G25G29G10
 -25614192.68448 -19944257.25847  20461839.1094                   20461835.5824
 -20835654.73048 -16231878.31346  20897581.0084                   20897577.3364
   -857712.07046    360179.89543  23893471.8834                   23893469.8984
 -17147257.03548 -13308985.21146  21084552.5004                   21084546.8594
 -21017317.78948 -16371577.08246  22071998.3914                   22071997.9494
 -16283862.22647 -12681453.11344  23903584.0314                   23903581.9774
 -15122161.02047 -11755803.85945  21977015.3834                   21977012.4774
 11  7 29  3  2  0.0000000  0  7G05G12G04G02G25G29G10
 -25597390.90248 -19931164.95747  20465036.5704                   20465033.2624
 -20772637.19148 -16182773.73846  20909572.6334                   20909569.3134
   -732881.11747    457450.75443  23917226.3754                   23917224.1054
 -17074491.49648 -13252284.80146  21098399.3134                   21098393.7814
 -21022040.14148 -16375256.80546  22071099.4224                   22071099.2074
 -16323945.21146 -12712686.54344  23895956.0314                   23895954.3054
 -15003278.78547 -11663168.35245  21999638.4774                   21999635.3674
 11  7 29  3  2 30.0000000  0  7G05G12G04G02G25G29G10
 -25580015.72748 -19917625.86347  20468342.9694                   20468339.3164
 -20709044.68448 -16133221.13746  20921674.1174                   20921670.5204
   -608084.52747    554694.84043  23940974.4924                   23940971.9614
 -17001579.53148 -13195470.30146  21112274.0554                   21112268.5514
 -21026237.08648 -16378527.13346  22070301.0234                   22070300.2894
 -16364057.20746 -12743942.58644  23888322.9304                   23888321.1374
 -14883966.03147 -11570197.36345  22022342.6094                   22022339.8594
 11  7 29  3  3  0.0000000  0  7G05G12G04G02G25G29G10
 -25562057.83248 -19903632.69147  20471760.2504                   20471756.6604
 -20644869.77348 -16083214.70746  20933885.8914                   20933882.2734
   -483314.24647    651918.44143  23964717.9534                   23964715.2664
 -16928513.03148 -13138535.38346  21126178.1024                   21126172.5434
 -21029898.28948 -16381379.99646  22069604.4384                   22069603.5124
 -16404188.54346 -12775213.71144  23880685.9614                   23880684.3364
 -14764216.79747 -11476886.25445  22045130.4224                   22045127.3794
 11  7 29  3  3 30.0000000  0  7G05G12G04G02G25G29G10
 -25543520.49248 -19889188.00447  20475287.7894                   20475284.0124
 -20580116.87148 -16032757.90646  20946207.9694                   20946204.7854
   -358574.43447    749118.29343  23988454.8754                   23988452.0234
 -16855296.66848 -13081483.68846  21140110.5704                   21140105.2154
 -21033025.76648 -16383816.96946  22069009.2114                   22069008.3794
 -16444341.79347 -12806501.89844  23873044.9534                   23873043.2584
 -14644037.62147 -11383240.13745  22067999.5314                   22067996.6374
 11  7 29  3  4  0.0000000  0  7G05G12G04G02G25G29G10
 -25524406.07448 -19874293.64147  20478924.9534                   20478921.6644
 -20514789.37948 -15981853.37146  20958639.5784                   20958635.9804
   -233868.51647    846291.76643  24012185.7814                   24012182.7344
 -16781934.25048 -13024318.18846  21154071.0634                   21154065.2814
 -21035620.93448 -16385839.15246  22068515.5314                   22068514.3984
 -16484518.92247 -12837808.69944  23865400.2194                   23865397.7664
 -14523434.08647 -11289263.35945  22090949.6564                   22090946.9344
 11  7 29  3  4 30.0000000  0  7G05G12G04G02G25G29G10
 -25504719.96148 -19858953.79747  20482671.2504                   20482667.6334
 -20448893.98048 -15930506.31646  20971178.6884                   20971175.7114
   -109203.08246    943433.67243  24035908.2274                   24035906.0044
 -16708432.25048 -12967043.91046  21168058.2584                   21168052.9024
 -21037687.84848 -16387449.70746  22068122.0704                   22068121.1294
 -16524724.07047 -12869137.34444  23857749.2114                   23857747.0434
 -14402414.71947 -11194962.55545  22113979.0084                   22113975.9304
 11  7 29  3  5  0.0000000  0  7G05G12G04G02G25G29G10
 -25484454.12548 -19843162.21147  20486527.6484                   20486524.0164
 -20382424.28948 -15878711.75446  20983827.3674                   20983824.1134
     15428.80546   1040549.43443  24059625.0784                   24059622.6994
 -16634784.18848 -12909655.82846  21182072.8364                   21182067.4654
 -21039217.64848 -16388641.73446  22067831.2034                   22067830.0984
 -16564948.99647 -12900481.37544  23850094.3674                   23850092.4774
 -14280975.06647 -11100334.25845  22137087.7894                   22137085.1524
 11  7 29  3  5 30.0000000  0  7G05G12G04G02G25G29G10
 -25463609.22748 -19826919.39847  20490494.3674                   20490490.9614
 -20315382.13748 -15826471.12546  20996585.5084                   20996581.9574
    140025.48446   1137637.74643  24083334.7894                   24083333.1884
 -16560991.53948 -12852155.07046  21196115.2894                   21196109.7424
 -21040209.76648 -16389414.78546  22067642.0634                   22067640.9804
 -16605193.76646 -12931840.85944  23842435.7894                   23842434.5204
 -14159118.78147 -11005381.32445  22160276.5234                   22160273.3874
 11  7 29  3  6  0.0000000  0  7G05G12G04G02G25G29G10
 -25442182.57048 -19810223.27347  20494571.6884                   20494568.0904
 -20247766.03148 -15773783.25846  21009452.2504                   21009448.4804
    264589.33646   1234700.48443  24107038.9144                   24107036.7234
 -16487052.60948 -12794540.33246  21210185.4774                   21210180.2504
 -21040660.02748 -16389765.61746  22067556.2344                   22067555.6684
 -16645454.79746 -12963213.01644  23834774.7274                   23834772.9104
 -14036845.68047 -10910103.59445  22183544.6644                   22183541.0314
 11  7 29  3  6 30.0000000  0  7G05G12G04G02G25G29G10
 -26995597.90648 -21020676.73047  20198966.4144                   20198963.2034
 -21754999.20748 -16948250.68046  20722635.7034                   20722631.8954
  -1186301.61746    104136.09043  23830943.5944                   23830942.0164
 -17988391.04748 -13964414.44546  20924490.1804                   20924484.7894
 -22615992.15248 -17617297.11746  21767780.8444                   21767780.1254
 -18261157.26246 -14222201.89144  23527315.8914                   23527315.3444
 -15489579.75047 -12042104.17645  21907098.2584                   21907095.2624
 11  7 29  3  7  0.0000000  0  7G05G12G04G02G25G29G10
 -26973005.59848 -21003072.28147  20203265.3054                   20203261.7854
 -21686237.19548 -16894669.89146  20735720.2034                   20735716.7734
  -1061805.18846    201146.26243  23854634.3914                   23854631.9924
 -17914161.67648 -13906573.37946  20938615.2034                   20938609.9414
 -22615354.04348 -17616799.86746  21767902.2974                   21767901.2384
 -18301447.08247 -14253596.49644  23519650.0784                   23519647.8594
 -15366481.53147 -11946183.50445  21930523.7114                   21930520.5004
 11  7 29  3  7 30.0000000  0  7G05G12G04G02G25G29G10
 -26949837.28148 -20985018.98447  20207674.2424                   20207670.9144
 -21616910.87148 -16840649.39546  20748912.8914                   20748909.2664
   -937350.27346    298124.09043  23878317.1884                   23878315.5234
 -17839795.09848 -13848625.41046  20952767.2734                   20952761.7154
 -22614176.45348 -17615882.24646  21768125.9384                   21768125.0904
 -18341756.30547 -14285006.21944  23511978.9924                   23511976.9804
 -15242981.99647 -11849950.09845  21954024.3594                   21954020.9344
 11  7 29  3  8  0.0000000  0  7G05G12G04G02G25G29G10
 -26926087.46948 -20966512.57447  20212193.5704                   20212190.2974
 -21547015.75448 -16786185.68446  20762213.3054                   20762209.9344
   -812932.01246    395073.30143  23901993.2584                   23901991.5594
 -17765286.83248 -13790567.03146  20966945.5314                   20966939.7814
 -22612452.73848 -17614539.05946  21768454.4454                   21768453.2384
 -18382078.76647 -14316426.24244  23504305.7894                   23504303.7704
 -15119078.27747 -11753401.75445  21977602.6254                   21977599.0084
 11  7 29  3  8 30.0000000  0  7G05G12G04G02G25G29G10
 -26901761.18048 -20947556.96547  20216822.7114                   20216819.1334
 -21476558.76248 -16731284.13746  20775620.9304                   20775617.4414
   -688556.24646    491989.47743  23925661.5944                   23925659.3054
 -17690642.96548 -13732402.98846  20981149.7664                   20981144.6214
 -22610186.88348 -17612773.43446  21768885.2504                   21768884.2774
 -18422418.59847 -14347859.80544  23496629.1804                   23496627.6214
 -14994778.60947 -11656544.86745  22001256.3284                   22001252.8834
 11  7 29  3  9  0.0000000  0  7G05G12G04G02G25G29G10
 -26876855.12148 -20928149.57847  20221561.8754                   20221558.6604
 -21405537.63748 -16675943.00446  20789135.6414                   20789132.1334
   -564220.58646    588874.40243  23949321.5704                   23949319.5744
 -17615861.34448 -13674131.61346  20995380.0784                   20995374.4654
 -22607374.50048 -17610581.94146  21769420.3364                   21769419.4694
 -18462771.78147 -14379303.77044  23488950.1804                   23488948.5474
 -14870083.11747 -11559379.55145  22024984.6644                   22024981.5634
 11  7 29  3  9 30.0000000  0  7G05G12G04G02G25G29G10
 -26851375.71948 -20908295.42247  20226410.6484                   20226407.2154
 -21333960.04747 -16620168.26246  20802756.6414                   20802752.8134
   -439932.04746    685722.58244  23972972.9844                   23972970.7854
 -17540948.80948 -13615758.21146  21009635.5164                   21009630.4964
 -22604020.68048 -17607968.56346  21770058.6804                   21770057.5204
 -18503143.58247 -14410762.24244  23481268.0394                   23481266.0474
 -14745000.87947 -11461912.87945  22048786.9924                   22048783.6684
 11  7 29  3 10  0.0000000  0  7G05G12G04G02G25G29G10
 -26825313.59448 -20887987.20747  20231370.1884                   20231366.8594
 -21261817.94548 -16563953.64546  20816484.9064                   20816481.5234
   -315681.85546    782540.93444  23996617.5784                   23996615.1994
 -17465897.29348 -13557276.50846  21023917.3364                   21023911.9844
 -22600115.03948 -17604925.18246  21770801.9614                   21770801.0664
 -18543523.66847 -14442227.15244  23473583.8524                   23473581.7894
 -14619525.78547 -11364140.08645  22072664.3444                   22072660.6644
 11  7 29  3 10 30.0000000  0  7G05G12G04G02G25G29G10
 -26798668.79348 -20867224.95747  20236440.3524                   20236436.8324
 -21189112.84448 -16507300.32446  20830319.8204                   20830316.7074
   -191470.75846    879328.80943  24020253.2274                   24020251.5744
 -17390707.82048 -13498687.32846  21038225.6094                   21038219.9884
 -22595656.30148 -17601450.82046  21771650.0784                   21771649.6524
 -18583911.03947 -14473697.72744  23465898.4614                   23465896.3754
 -14493660.49647 -11266063.27745  22096615.3204                   22096612.5164
 11  7 29  3 11  0.0000000  0  7G05G12G04G02G25G29G10
 -26771444.93448 -20846011.49247  20241620.9304                   20241617.2544
 -21115849.61747 -16450212.10246  20844261.9534                   20844258.3164
    -67303.03146    976082.88744  24043882.2734                   24043880.2774
 -17315384.44547 -13439993.79746  21052559.1174                   21052553.4414
 -22590646.93448 -17597547.38746  21772603.4304                   21772602.5664
 -18624308.18847 -14505175.95744  23458210.5704                   23458208.4304
 -14367411.87147 -11167687.74245  22120639.8364                   22120636.9694
 11  7 29  3 11 30.0000000  0  7G05G12G04G02G25G29G10
 -26743636.81348 -20824342.76247  20246912.5634                   20246909.0394
 -21042024.04748 -16392685.68846  20858309.8914                   20858306.6294
     56826.20746   1072806.95743  24067502.1484                   24067500.9694
 -17239923.03548 -13381192.71146  21066919.0554                   21066913.3954
 -22585080.58648 -17593209.94546  21773662.4304                   21773662.0274
 -18664709.07847 -14536657.08644  23450522.6094                   23450520.3554
 -14240777.39847 -11069011.54345  22144737.1954                   22144735.0904
 11  7 29  3 12  0.0000000  0  7G05G12G04G02G25G29G10
 -26715246.48448 -20802220.36347  20252314.8914                   20252311.5554
 -20967639.75848 -16334723.90246  20872464.7274                   20872461.4534
    180914.19946   1169498.89543  24091116.3594                   24091114.0124
 -17164326.33248 -13322286.18846  21081304.2584                   21081299.0474
 -22578958.13748 -17588439.17646  21774827.8134                   21774827.0474
 -18705114.33647 -14568141.64144  23442834.1954                   23442832.0704
 -14113761.95347 -10970038.47345  22168907.7814                   22168904.6764
 11  7 29  3 12 30.0000000  0  7G05G12G04G02G25G29G10
 -26686272.34048 -20779643.05547  20257828.3834                   20257824.7664
 -20892696.13348 -16276326.27746  20886726.2894                   20886722.6334
    304962.13146   1266159.61743  24114721.5554                   24114719.3634
 -17088593.54748 -13263273.63346  21095715.8284                   21095710.3134
 -22572276.73048 -17583232.86746  21776099.6254                   21776098.2584
 -18745521.35247 -14599627.54344  23435143.9534                   23435142.4344
 -13986367.02047 -10870769.68545  22193150.3834                   22193147.3714
 11  7 29  3 13  0.0000000  0  7G05G12G04G02G25G29G10
 -26656720.46148 -20756615.57047  20263452.2034                   20263448.5664
 -20817200.56348 -16217498.56646  20901092.6024                   20901089.4344
    428963.87546   1362784.32843  24138318.3364                   24138316.5204
 -17012730.55548 -13204159.62146  21110152.0084                   21110146.8014
 -22565040.77348 -17577594.43046  21777475.8984                   21777475.6954
 -18785934.30147 -14631118.08244  23427454.0474                   23427452.4924
 -13858601.01247 -10771211.75845  22217463.2504                   22217460.1724
 11  7 29  3 13 30.0000000  0  7G05G12G04G02G25G29G10
 -26626597.33648 -20733142.95747  20269183.9774                   20269180.4414
 -20741161.17248 -16158247.09846  20915562.0314                   20915558.9614
    552911.98446   1459367.27043  24161905.5394                   24161902.6454
 -16936745.48048 -13144950.48046  21124611.7974                   21124606.4884
 -22557256.14148 -17571528.45346  21778957.1174                   21778956.4494
 -18826359.09846 -14662617.87144  23419761.0704                   23419759.4064
 -13730474.02347 -10671372.54345  22241844.9064                   22241841.9184
 11  7 29  3 14  0.0000000  0  7G05G12G04G02G25G29G10
 -26595888.25848 -20709213.77747  20275027.7114                   20275024.2774
 -20664564.23448 -16098561.18046  20930138.5554                   20930134.9844
    676821.00046   1555919.72743  24185483.6954                   24185482.8014
 -16860624.05148 -13085635.08646  21139096.9774                   21139091.7384
 -22548906.85948 -17565022.49646  21780546.2424                   21780545.1884
 -18866779.74247 -14694114.40244  23412069.6254                   23412067.6844
 -13601974.04347 -10571242.69944  22266297.6804                   22266294.7894
 11  7 29  3 14 30.0000000  0  7G05G12G04G02G25G29G10
 -26564597.48048 -20684831.33247  20280982.3524                   20280979.1604
 -20587415.82848 -16038445.53146  20944819.1414                   20944815.8874
    800686.09846   1652437.96543  24209054.8204                   24209052.2894
 -16784371.20348 -13026217.29346  21153607.3054                   21153602.2424
 -22539996.00848 -17558078.95346  21782241.8754                   21782240.9454
 -18907199.17247 -14725610.00044  23404378.1724                   23404376.1684
 -13473107.87947 -10470827.51645  22290820.2664                   22290817.3794
 11  7 29  3 15  0.0000000  0  7G05G12G04G02G25G29G10
 -26532731.77048 -20660000.89547  20287046.2114                   20287042.5164
 -20509723.35948 -15977905.94946  20959603.6334                   20959600.5744
    924500.65246   1748916.84443  24232615.8444                   24232613.8444
 -16707993.98448 -12966702.57446  21168141.6484                   21168136.1334
 -22530528.90648 -17550701.97746  21784043.2894                   21784042.4924
 -18947622.50047 -14757108.62544  23396685.7114                   23396683.1914
 -13343884.81347 -10370134.23045  22315410.4064                   22315407.6604
 11  7 29  3 15 30.0000000  0  7G05G12G04G02G25G29G10
 -26500282.30248 -20634715.59147  20293221.1644                   20293217.8954
 -20431479.57047 -15916936.76646  20974492.8364                   20974489.8714
   1048272.66446   1845362.52742  24256168.2894                   24256166.7114
 -16631484.33247 -12907084.67246  21182700.8984                   21182695.3554
 -22520495.75848 -17542883.92246  21785952.7894                   21785951.7934
 -18988039.85947 -14788602.60944  23388994.3914                   23388992.0634
 -13214299.15647 -10269158.42645  22340070.0234                   22340067.0904
 11  7 29  3 16  0.0000000  0  7G05G12G04G02G25G29G10
 -26467255.69548 -20608980.56147  20299505.9144                   20299502.5274
 -20352692.28148 -15855544.07846  20989485.7114                   20989482.1684
   1171995.79746   1941770.13342  24279712.3284                   24279711.3674
 -16554848.98848 -12847368.82046  21197284.0084                   21197279.0044
 -22509901.71948 -17534628.80546  21787968.3754                   21787967.5314
 -19028455.95847 -14820095.60744  23381303.6724                   23381301.3874
 -13084359.85247 -10167907.02345  22364796.6414                   22364793.8794
 11  7 29  3 16 30.0000000  0  7G05G12G04G02G25G29G10
 -26433648.03548 -20582792.76647  20305901.0164                   20305897.4844
 -20273358.48048 -15793725.53146  21004582.5864                   21004579.1724
   1295673.62946   2038142.44943  24303247.4534                   24303245.6134
 -16478084.90248 -12787552.64846  21211891.9144                   21211886.5594
 -22498741.78948 -17525932.73846  21790092.2894                   21790091.5634
 -19068865.86747 -14851583.77344  23373613.5864                   23373611.6054
 -12954065.78147 -10066379.16445  22389590.4224                   22389587.9144
 11  7 29  3 17  0.0000000  0  7G05G12G04G02G25G29G10
 -26399465.26248 -20556156.82447  20312405.9224                   20312402.4534
 -20193486.32048 -15731487.48846  21019781.7664                   21019777.9534
   1419299.70346   2134474.40643  24326772.8204                   24326771.6724
 -16401198.30548 -12727641.01646  21226523.0234                   21226517.4144
 -22487020.70348 -17516799.41046  21792322.3754                   21792321.8484
 -19109273.88747 -14883070.47344  23365923.9384                   23365922.4804
 -12823425.61747  -9964581.64144  22414451.2274                   22414447.6954
 11  7 29  3 17 30.0000000  0  7G05G12G04G02G25G29G10
 -26364699.21548 -20529066.39847  20319021.4064                   20319017.9654
 -20113068.24648 -15668824.05146  21035084.6644                   21035081.0554
   1542882.32846   2230772.57443  24350290.0474                   24350288.1054
 -16324181.60248 -12667628.00446  21241178.5314                   21241173.5394
 -22474729.05148 -17507221.48046  21794661.7034                   21794660.7504
 -19149670.38747 -14914548.18444  23358236.9384                   23358234.6684
 -12692433.98047  -9862510.23445  22439377.7034                   22439374.3834
 11  7 29  3 18  0.0000000  0  7G05G12G04G02G25G29G10
 -26329352.00048 -20501523.10247  20325748.0004                   20325744.6644
 -20032107.65248 -15605737.87946  21050490.9774                   21050487.2234
   1666419.09446   2327034.99243  24373798.4304                   24373796.3554
 -16247037.34848 -12607515.60246  21255858.7034                   21255853.5044
 -22461868.00448 -17497199.86346  21797109.1484                   21797108.0434
 -19190055.91047 -14946017.34844  23350551.8754                   23350549.4694
 -12561095.67647  -9760168.71944  22464370.6024                   22464367.7504
 11  7 29  3 18 30.0000000  0  8G05G12G26G04G02G25G29G10
 -26293431.18848 -20473532.85547  20332583.5864                   20332579.7074
 -19950613.88748 -15542236.24646  21065998.4224                   21065995.0634
 -15837226.79356 -12329918.22353  24843246.1024                   24843245.4844
   1789902.53946   2423255.83243  24397295.9224                   24397294.2544
 -16169772.95348 -12547309.58646  21270561.8524                   21270556.2974
 -22448443.54348 -17486739.23446  21799663.5944                   21799663.0784
 -19230436.16047 -14977482.41444  23342867.8834                   23342865.4024
 -12429420.71147  -9657564.84044  22489427.3674                   22489424.6564
 11  7 29  3 19  0.0000000  0  8G05G12G26G04G02G25G29G10
 -26256930.60948 -20445090.84447  20339529.3054                   20339525.6914
 -19868581.18848 -15478314.65646  21081608.8524                   21081605.2154
 -15889112.96946 -12370348.92243  24833373.4924                   24833372.1804
   1913338.94546   2519440.00043  24420785.5634                   24420783.9774
 -16092382.78148 -12487005.56646  21285288.6174                   21285283.0904
 -22434448.20748 -17475833.76646  21802326.7274                   21802325.6334
 -19270803.30547 -15008937.25844  23335185.9384                   23335183.6214
 -12297405.32047  -9554695.71145  22514549.0864                   22514546.0204
 11  7 29  3 19 30.0000000  0  8G05G12G26G04G02G25G29G10
 -26219855.62548 -20416201.25047  20346584.6484                   20346580.9304
 -19786016.73048 -15413978.71946  21097320.6564                   21097316.7154
 -15941118.69546 -12410872.73442  24823477.5164                   24823475.1764
   2036722.82746   2615583.29843  24444265.3524                   24444263.0784
 -16014872.49248 -12426607.94546  21300038.3674                   21300033.0084
 -22419886.18848 -17464486.71146  21805097.7194                   21805096.8484
 -19311161.13747 -15040384.84444  23327506.3284                   23327504.0514
 -12165057.66447  -9451567.66044  22539733.6724                   22539731.0514
 11  7 29  3 20  0.0000000  0  8G05G12G26G04G02G25G29G10
 -26182208.62948 -20386865.92247  20353748.3834                   20353745.0554
 -19702924.03148 -15349231.17246  21113132.6954                   21113128.8484
 -15993243.43846 -12451489.34442  24813557.8834                   24813556.1214
   2160051.83247   2711683.77743  24467733.7814                   24467731.7304
 -15937244.67248 -12366118.73046  21314810.6254                   21314804.8094
 -22404758.67248 -17452699.02346  21807976.4064                   21807975.2154
 -19351510.45747 -15071825.79344  23319827.6414                   23319825.2854
 -12032382.41447  -9348184.33644  22564981.0164                   22564978.0474
 11  7 29  3 20 30.0000000  0  8G05G12G26G04G02G25G29G10
 -26143988.59848 -20357084.08647  20361021.5784                   20361018.0634
 -19619303.71948 -15284072.49646  21129044.9064                   21129041.3164
 -16045482.82445 -12492195.27742  24803616.4304                   24803616.4964
   2283326.46147   2807741.90643  24491191.3054                   24491190.1724
 -15859498.76648 -12305537.50846  21329604.7424                   21329599.4534
 -22389063.76248 -17440469.19946  21810963.2424                   21810962.1764
 -19391848.83247 -15103258.21944  23312151.6484                   23312149.5554
 -11899381.70347  -9244547.41444  22590290.4224                   22590287.5164
 11  7 29  3 21  0.0000000  0  8G05G12G26G04G02G25G29G10
 -26105193.94948 -20326854.49647  20368403.6884                   20368400.3204
 -19535155.00448 -15218502.08246  21145057.8444                   21145054.1954
 -16097831.96946 -12532986.68442  24793655.1254                   24793654.3164
   2406548.90247   2903759.34043  24514640.7894                   24514638.8484
 -15781633.06648 -12244862.94546  21344422.6024                   21344417.1604
 -22372798.52048 -17427794.96946  21814058.6564                   21814057.2424
 -19432172.23847 -15134678.97344  23304478.0864                   23304476.1254
 -11766055.91047  -9140657.17644  22615661.5314                   22615658.3204
 11  7 29  3 21 30.0000000  0  8G05G12G26G04G02G25G29G10
 -26065826.65648 -20296178.67247  20375895.0704                   20375891.5744
 -19450481.04748 -15152522.37946  21161170.7894                   21161167.0824
 -16150289.04346 -12573862.18442  24783672.8754                   24783671.7624
   2529717.56647   2999734.88743  24538079.5394                   24538077.0434
 -15703649.57848 -12184096.59446  21359262.2344                   21359256.6994
 -22355963.27748 -17414676.57046  21817261.9144                   21817261.0864
 -19472481.00047 -15166088.34044  23296807.6094                   23296805.5394
 -11632409.30947  -9036516.96944  22641093.5084                   22641090.5904
 11  7 29  3 22  0.0000000  0  8G05G12G26G04G02G25G29G10
 -26025887.26648 -20265057.07047  20383495.3284                   20383491.9654
 -19365283.79348 -15086134.91846  21177383.3754                   21177379.6804
 -16202851.56646 -12614819.93843  24773670.7194                   24773669.8094
   2652831.53147   3095667.83243  24561506.9924                   24561505.2734
 -15625549.30948 -12123239.25446  21374124.2814                   21374118.7664
 -22338557.75048 -17401113.81346  21820574.0784                   21820573.3364
 -19512774.14147 -15197485.53144  23289140.5474                   23289137.5554
 -11498445.19547  -8932129.35544  22666586.0554                   22666583.2624
 11  7 29  3 22 30.0000000  0  8G05G12G26G04G02G25G29G10
 -25985372.35948 -20233487.00847  20391205.1804                   20391201.5434
 -19279561.21948 -15019338.11346  21193695.9694                   21193691.9614
 -16255512.96146 -12655854.68443  24763649.1564                   24763647.5744
   2775894.33646   3191560.86343  24584925.0234                   24584922.3984
 -15547329.12948 -12062288.47746  21389008.9384                   21389003.6954
 -22320577.36348 -17387103.10246  21823995.4774                   21823994.2194
 -19553046.28147 -15228866.35244  23281476.9454                   23281474.2854
 -11364162.82847  -8827493.76644  22692139.2034                   22692136.4064
 11  7 29  3 23  0.0000000  0  8G05G12G26G04G02G25G29G10
 -25944284.59848 -20201470.55947  20399023.9224                   20399020.8404
 -19193317.03548 -14952134.86346  21210107.3984                   21210103.7854
 -16308271.92646 -12696965.47743  24753609.7194                   24753607.5594
   2898903.76647   3287412.33243  24608333.0394                   24608330.8134
 -15468991.32448 -12001246.03146  21403915.9534                   21403910.8484
 -22302023.28148 -17372645.35546  21827526.3834                   21827525.4494
 -19593297.82047 -15260231.12944  23273816.4224                   23273814.3714
 -11229567.16047  -8722614.06344  22717751.8524                   22717749.4804
 11  7 29  3 23 30.0000000  0  8G05G12G26G04G02G25G29G10
 -25902623.49648 -20169007.35247  20406951.8524                   20406948.3164
 -19106552.15648 -14884525.88346  21226618.0704                   21226614.8404
 -16361124.55546 -12738149.28143  24743551.5164                   24743549.7504
   3021860.69546   3383222.89143  24631731.0004                   24631729.0004
 -15390535.57848 -11940111.69546  21418845.4844                   21418840.4574
 -22282894.01648 -17357739.42246  21831166.3054                   21831165.5744
 -19633526.49647 -15291578.09444  23266161.6804                   23266159.6524
 -11094659.80147  -8617491.42645  22743424.0164                   22743421.2114
 11  7 29  3 24  0.0000000  0  8G05G12G26G04G02G25G29G10
 -25860389.48448 -20136097.72747  20414988.3834                   20414985.4414
 -19019267.76248 -14816512.08246  21243228.1174                   21243224.4344
 -16414067.48446 -12779403.44143  24733477.1884                   24733475.3754
   3144765.14846   3478992.53543  24655118.6484                   24655116.7114
 -15311962.05948 -11878885.57846  21433797.7894                   21433792.7194
 -22263188.24648 -17342384.27046  21834916.3054                   21834916.0164
 -19673730.56647 -15322905.87145  23258511.2194                   23258508.2274
 -10959443.22347  -8512127.87544  22769154.3364                   22769152.0124
 11  7 29  3 24 30.0000000  0  8G05G12G26G04G02G25G29G10
 -27393005.52748 -21330343.98447  20123341.4614                   20123337.8244
 -20506887.27048 -15975696.12146  20960143.5394                   20960139.6884
 -18042523.83246 -14048330.42643  24423592.4614                   24423590.3244
   1692196.79746   2347121.11742  24378703.7274                   24378702.6954
 -16808692.89548 -13045169.35246  21148979.4844                   21148974.3554
 -23818329.14148 -18554182.35246  21538983.2894                   21538982.0204
 -21289334.43847 -16581817.92245  22951072.0084                   22951069.4224
 -12399340.47347  -9634125.74644  22495150.9844                   22495148.6524
 11  7 29  3 25  0.0000000  0  8G05G12G26G04G02G25G29G10
 -27349629.48048 -21296544.44947  20131595.4454                   20131592.3524
 -20418572.40248 -15906879.34846  20976949.1174                   20976945.5314
 -18095641.24246 -14089720.54744  24413484.5944                   24413482.8364
   1814992.70345   2442806.08642  24402070.0864                   24402070.0944
 -16729888.11748 -12983763.03546  21163975.3834                   21163970.1414
 -23797471.61748 -18537929.71946  21542951.9064                   21542951.0234
 -21329487.79747 -16613106.19544  22943430.7504                   22943427.8164
 -12263517.35947  -9528289.56344  22520997.6884                   22520994.8484
 11  7 29  3 25 30.0000000  0  8G05G12G26G04G02G25G29G10
 -27305677.42248 -21262296.08247  20139959.6804                   20139956.0944
 -20329739.41048 -15837658.84046  20993853.8284                   20993850.0084
 -18148835.48846 -14131170.53544  24403361.4384                   24403359.9384
   1937739.80145   2538453.12142  24425429.2734                   24425428.7584
 -16650962.25048 -12922262.35946  21178994.6644                   21178989.3014
 -23776031.28948 -18521222.96146  21547032.0084                   21547030.8134
 -21369607.50447 -16644368.26245  22935796.3834                   22935793.8204
 -12127389.41847  -9422215.83644  22546902.1644                   22546899.2034
 11  7 29  3 26  0.0000000  0  8G05G12G26G04G02G25G29G10
 -27261153.14548 -21227601.82447  20148432.0944                   20148428.7154
 -20240392.72348 -15768038.05146  21010855.6024                   21010852.2544
 -18202106.77046 -14172680.57044  24393224.8444                   24393222.5234
   2060434.85545   2634059.66442  24448777.0944                   24448776.9774
 -16571919.59048 -12860670.68046  21194035.8054                   21194030.5354
 -23754010.77348 -18504064.10946  21551222.1174                   21551221.2464
 -21409695.11347 -16675605.29745  22928167.5634                   22928165.4454
 -11990962.72747  -9315909.33644  22572862.9774                   22572860.1414
 11  7 29  3 26 30.0000000  0  8G05G12G26G04G02G25G29G10
 -27216054.94148 -21192460.34447  20157013.8134                   20157010.3524
 -20150532.19948 -15698016.87146  21027955.3594                   21027952.0864
 -18255449.25446 -14214246.10243  24383073.6414                   24383071.6414
   2183079.72346   2729627.08642  24472115.6484                   24472115.4734
 -16492757.95748 -12798986.30146  21209099.4694                   21209094.3524
 -23731407.11348 -18486450.84846  21555523.8444                   21555523.0164
 -21449747.21147 -16706814.65245  22920546.2734                   22920543.5004
 -11854237.62547  -9209370.30144  22598881.0234                   22598878.0824
 11  7 29  3 27  0.0000000  0  8G05G12G26G04G02G25G29G10
 -27170389.22748 -21156876.65247  20165703.7664                   20165700.3204
 -20060165.12948 -15627600.97746  21045151.6254                   21045148.5984
 -18308865.86746 -14255869.37543  24372909.1334                   24372907.1454
   2305668.92646   2825151.19142  24495444.4224                   24495442.8874
 -16413483.40648 -12737213.92646  21224185.0864                   21224179.6884
 -23708225.50848 -18468387.24646  21559934.9694                   21559933.6054
 -21489767.84447 -16737999.50045  22912930.7814                   22912927.7464
 -11717222.82447  -9102605.52744  22624954.4534                   22624951.1334
 11  7 29  3 27 30.0000000  0  8G05G12G26G04G02G25G29G10
 -27124155.46148 -21120850.32047  20174501.8914                   20174498.7464
 -19969292.59848 -15556791.22746  21062444.3284                   21062440.6414
 -18362351.99646 -14297546.79743  24362731.1724                   24362728.6994
   2428203.39546   2920632.59842  24518761.1804                   24518760.4654
 -16334095.22748 -12675353.00046  21239292.2114                   21239286.9184
 -23684464.00848 -18449871.77346  21564456.6954                   21564455.4844
 -21529753.91447 -16769157.41445  22905320.9774                   22905318.8054
 -11579919.92647  -8995616.25844  22651081.9064                   22651078.7544
 11  7 29  3 28  0.0000000  0  8G05G12G26G04G02G25G29G10
 -27077353.66848 -21084381.37947  20183407.8674                   20183404.5744
 -19877915.35248 -15485588.18446  21079832.9144                   21079829.2384
 -18415904.17246 -14339275.70743  24352539.7894                   24352538.3524
   2550683.55546   3016071.70342  24542068.8134                   24542067.2624
 -16254592.94548 -12613403.16446  21254420.7114                   21254415.6254
 -23660121.48448 -18430903.55546  21569088.7734                   21569088.0784
 -21569703.44147 -16800286.85245  22897718.7814                   22897716.4884
 -11442330.84447  -8888404.00044  22677264.0314                   22677261.4734
 11  7 29  3 28 30.0000000  0  8G05G12G26G04G02G25G29G10
 -27029987.77348 -21047472.87147  20192421.3594                   20192418.0434
 -19786038.62148 -15413995.93846  21097316.7114                   21097313.1524
 -18469522.00046 -14381055.77043  24342336.7584                   24342334.9414
   2673106.05547   3111465.85543  24565365.6414                   24565363.8794
 -16174980.37148 -12551367.37946  21269570.7974                   21269565.4694
 -23635200.57048 -18411484.64546  21573830.8204                   21573829.9844
 -21609617.52747 -16831388.66045  22890123.2894                   22890121.1914
 -11304461.30147  -8780973.19144  22703500.2894                   22703497.0634
 11  7 29  3 29  0.0000000  0  8G05G12G26G04G02G25G29G10
 -26982049.28548 -21010118.19147  20201543.4774                   20201540.0664
 -19693655.56648 -15342009.15246  21114896.6024                   21114892.9144
 -18523193.90646 -14422878.00042  24332123.1484                   24332121.8204
   2795479.60946   3206821.90643  24588651.8594                   24588650.1844
 -16095249.15248 -12489239.14546  21284743.0944                   21284737.6844
 -23609692.14848 -18391607.93446  21578685.2274                   21578684.3014
 -21649486.33647 -16862455.17645  22882536.5084                   22882534.4144
 -11166305.83647  -8673319.59444  22729789.8204                   22729786.3984
 11  7 29  3 29 30.0000000  0  8G05G12G26G04G02G25G29G10
 -26933547.34848 -20972324.46547  20210773.0864                   20210769.5394
 -19600776.14148 -15269635.58246  21132570.4844                   21132567.0904
 -18576924.45346 -14464745.87942  24321897.7814                   24321896.9184
   2917796.07046   3302133.40243  24611928.3984                   24611926.2194
 -16015407.50448 -12427024.86746  21299936.7034                   21299931.4144
 -23583603.57448 -18371279.16046  21583649.6334                   21583648.3014
 -21689315.81647 -16893491.05545  22874957.2274                   22874954.7114
 -11027875.11747  -8565451.52744  22756132.7274                   22756129.4964
 11  7 29  3 30  0.0000000  0  8G05G12G26G04G02G25G29G10
 -26884484.10948 -20934093.35247  20220109.4774                   20220106.3054
 -19507403.89148 -15196877.99646  21150338.8364                   21150335.4844
 -18630712.36746 -14506658.48842  24311662.6094                   24311661.2624
   3040053.96946   3397399.35243  24635193.0164                   24635191.0234
 -15935457.47748 -12364726.14146  21315150.4534                   21315145.4964
 -23556936.03148 -18350499.23446  21588723.9844                   21588723.3014
 -21729106.16847 -16924496.44145  22867385.2974                   22867382.9574
 -10889173.62947  -8457372.44944  22782526.8674                   22782523.6524
